[[{"header":{"parameterUnit":"m.s-1","parameterCategory":1,"la1":30.6,"la2":29.2853,"lo1":-89.7004,"lo2":-87.6739,"dy":0.0162,"dx":0.0183,"nx":112,"ny":82,"refTime":"2023-03-19T18:00:00:Z","depth":0,"parameterNumber":2,"parameterNumberName":"U-component_of_WINDS"},"data":[0.0,0.0,0.0,0.0,0.0,0.0,0.0,0.0,0.0,0.0,0.0,0.0,0.0,0.0,0.0,0.0,0.0,0.0,0.0,0.0,0.0,0.0,0.0,0.0,0.0,0.0,0.0,0.0,0.0,0.0,0.0,0.0,0.0,0.0,0.0,0.0,0.0,0.0,0.0,0.0,0.0,0.0,0.0,0.0,0.0,0.0,0.0,0.0,0.0,0.0,0.0,0.0,0.0,0.0,0.0,0.0,0.0,0.0,0.0,0.0,0.0,0.0,0.0,0.0,0.0,0.0,0.0,0.0,0.0,0.0,0.0,0.0,0.0,0.0,0.0,0.0,0.0,0.0,0.0,0.0,0.0,0.0,0.0,0.0,0.0,0.0,0.0,0.0,0.0,0.0,-2.1535,-2.1735,-2.2778,-2.3456,-2.3456,-2.3323,-2.277,-2.1689,0.0,0.0,0.0,0.0,0.0,0.0,0.0,0.0,0.0,0.0,0.0,0.0,0.0,0.0,0.0,0.0,0.0,0.0,0.0,0.0,0.0,0.0,0.0,0.0,0.0,0.0,0.0,0.0,0.0,0.0,0.0,0.0,0.0,0.0,0.0,0.0,0.0,0.0,0.0,0.0,0.0,0.0,0.0,0.0,0.0,0.0,0.0,0.0,0.0,0.0,0.0,0.0,0.0,0.0,0.0,0.0,0.0,0.0,0.0,0.0,0.0,0.0,0.0,0.0,0.0,0.0,0.0,0.0,0.0,0.0,0.0,0.0,0.0,0.0,0.0,0.0,0.0,0.0,0.0,0.0,0.0,0.0,0.0,0.0,0.0,0.0,0.0,0.0,0.0,0.0,0.0,0.0,0.0,0.0,0.0,0.0,0.0,0.0,0.0,0.0,0.0,0.0,0.0,0.0,-2.2578,-2.3717,-2.4025,-2.4148,-2.4148,-2.3422,-2.297,-2.299,0.0,0.0,0.0,0.0,0.0,0.0,0.0,0.0,0.0,0.0,0.0,0.0,0.0,0.0,0.0,0.0,0.0,0.0,0.0,0.0,0.0,0.0,0.0,0.0,0.0,0.0,0.0,0.0,0.0,0.0,0.0,0.0,0.0,0.0,0.0,0.0,0.0,0.0,0.0,0.0,0.0,0.0,0.0,0.0,0.0,0.0,0.0,0.0,0.0,0.0,0.0,0.0,0.0,0.0,0.0,0.0,0.0,0.0,0.0,0.0,0.0,0.0,0.0,0.0,0.0,0.0,0.0,0.0,0.0,0.0,0.0,0.0,0.0,0.0,0.0,0.0,0.0,0.0,0.0,0.0,0.0,0.0,0.0,0.0,0.0,0.0,0.0,0.0,0.0,0.0,0.0,0.0,0.0,0.0,0.0,0.0,0.0,0.0,0.0,0.0,0.0,0.0,0.0,-2.264,-2.3209,-2.421,-2.4302,-2.4302,-2.4302,-2.3902,-2.3565,-2.3332,-2.2378,0.0,0.0,0.0,0.0,0.0,0.0,0.0,0.0,0.0,0.0,0.0,0.0,0.0,0.0,0.0,0.0,0.0,0.0,0.0,0.0,0.0,0.0,0.0,0.0,0.0,0.0,0.0,0.0,0.0,0.0,0.0,0.0,0.0,0.0,0.0,0.0,0.0,0.0,0.0,0.0,0.0,0.0,0.0,0.0,0.0,0.0,0.0,0.0,0.0,0.0,0.0,0.0,0.0,0.0,0.0,0.0,0.0,0.0,0.0,0.0,0.0,0.0,0.0,0.0,0.0,0.0,0.0,0.0,0.0,0.0,0.0,0.0,0.0,0.0,0.0,0.0,0.0,0.0,0.0,0.0,0.0,0.0,0.0,0.0,0.0,0.0,0.0,0.0,0.0,0.0,0.0,0.0,0.0,0.0,0.0,0.0,0.0,0.0,0.0,0.0,0.0,0.0,-2.344,-2.3733,-2.4256,-2.4302,-2.4302,-2.4302,-2.4302,-2.4087,-2.3563,-2.2749,0.0,0.0,0.0,0.0,0.0,0.0,0.0,0.0,0.0,0.0,0.0,0.0,0.0,0.0,0.0,0.0,0.0,0.0,0.0,0.0,0.0,0.0,0.0,0.0,0.0,0.0,0.0,0.0,0.0,0.0,0.0,0.0,0.0,0.0,0.0,0.0,0.0,0.0,0.0,0.0,0.0,0.0,0.0,0.0,0.0,0.0,0.0,0.0,0.0,0.0,0.0,0.0,0.0,0.0,0.0,0.0,0.0,0.0,0.0,0.0,0.0,0.0,0.0,0.0,0.0,0.0,0.0,0.0,0.0,0.0,0.0,0.0,0.0,0.0,0.0,0.0,0.0,0.0,0.0,0.0,0.0,0.0,0.0,0.0,0.0,0.0,0.0,0.0,0.0,0.0,0.0,0.0,0.0,0.0,0.0,0.0,0.0,0.0,0.0,0.0,0.0,0.0,-2.384,-2.4256,-2.4281,-2.4302,-2.4302,-2.4302,-2.4302,-2.4287,-2.4241,-2.3032,0.0,0.0,0.0,0.0,0.0,0.0,0.0,0.0,0.0,0.0,0.0,0.0,0.0,0.0,0.0,0.0,0.0,0.0,0.0,0.0,0.0,0.0,0.0,0.0,0.0,0.0,0.0,0.0,0.0,0.0,0.0,0.0,0.0,0.0,0.0,0.0,0.0,0.0,0.0,0.0,0.0,0.0,0.0,0.0,0.0,0.0,0.0,0.0,0.0,0.0,0.0,0.0,0.0,0.0,0.0,0.0,0.0,0.0,0.0,0.0,0.0,0.0,0.0,0.0,0.0,0.0,0.0,0.0,0.0,0.0,0.0,0.0,0.0,0.0,0.0,0.0,0.0,0.0,0.0,0.0,0.0,0.0,0.0,0.0,0.0,0.0,0.0,0.0,0.0,0.0,0.0,0.0,0.0,0.0,0.0,0.0,0.0,0.0,0.0,0.0,0.0,0.0,-2.4148,-2.4302,0.0,-2.4302,-2.4302,-2.4302,-2.4302,-2.4302,-2.4302,0.0,0.0,0.0,0.0,0.0,0.0,0.0,0.0,0.0,0.0,0.0,0.0,0.0,0.0,0.0,0.0,0.0,0.0,0.0,0.0,0.0,0.0,0.0,0.0,0.0,0.0,0.0,0.0,0.0,0.0,0.0,0.0,0.0,0.0,0.0,0.0,0.0,0.0,0.0,0.0,0.0,0.0,0.0,0.0,0.0,0.0,0.0,0.0,0.0,0.0,0.0,0.0,0.0,0.0,0.0,0.0,0.0,0.0,0.0,0.0,0.0,0.0,0.0,0.0,0.0,0.0,0.0,0.0,0.0,0.0,0.0,0.0,0.0,0.0,0.0,0.0,0.0,0.0,0.0,0.0,0.0,0.0,0.0,0.0,0.0,0.0,0.0,0.0,0.0,0.0,0.0,0.0,0.0,0.0,0.0,0.0,0.0,0.0,0.0,0.0,0.0,0.0,-2.4241,-2.4302,-2.4302,0.0,-2.4302,-2.4302,-2.4302,-2.4302,-2.4302,-2.4302,0.0,0.0,0.0,0.0,0.0,0.0,0.0,0.0,0.0,0.0,0.0,0.0,0.0,0.0,0.0,0.0,0.0,0.0,0.0,0.0,0.0,0.0,0.0,0.0,0.0,0.0,0.0,0.0,0.0,0.0,0.0,0.0,0.0,0.0,0.0,0.0,0.0,0.0,0.0,0.0,0.0,0.0,0.0,0.0,0.0,0.0,0.0,0.0,0.0,0.0,0.0,0.0,0.0,0.0,0.0,0.0,0.0,0.0,0.0,0.0,0.0,0.0,0.0,0.0,0.0,0.0,0.0,0.0,0.0,0.0,0.0,0.0,0.0,0.0,0.0,0.0,0.0,0.0,0.0,0.0,0.0,0.0,0.0,0.0,0.0,0.0,0.0,0.0,0.0,0.0,0.0,0.0,0.0,0.0,0.0,0.0,0.0,0.0,0.0,0.0,0.0,0.0,-2.4302,-2.4302,-2.4302,-2.4302,-2.4302,-2.4302,-2.4302,-2.4302,-2.4302,0.0,0.0,0.0,0.0,0.0,0.0,0.0,0.0,0.0,0.0,0.0,0.0,0.0,0.0,0.0,0.0,0.0,0.0,0.0,0.0,0.0,0.0,0.0,0.0,0.0,0.0,0.0,0.0,0.0,0.0,0.0,0.0,0.0,0.0,0.0,0.0,0.0,0.0,0.0,0.0,0.0,0.0,0.0,0.0,0.0,0.0,0.0,0.0,0.0,0.0,0.0,0.0,0.0,0.0,0.0,0.0,0.0,0.0,0.0,0.0,0.0,0.0,0.0,0.0,0.0,0.0,0.0,0.0,0.0,0.0,0.0,0.0,0.0,0.0,0.0,0.0,0.0,0.0,0.0,0.0,0.0,0.0,0.0,0.0,0.0,0.0,0.0,0.0,0.0,0.0,0.0,0.0,0.0,0.0,0.0,0.0,0.0,0.0,0.0,0.0,0.0,0.0,0.0,-2.4302,-2.4302,-2.4302,-2.4302,-2.4302,-2.4302,-2.4302,-2.4302,-2.4302,-2.4302,0.0,0.0,0.0,0.0,0.0,0.0,0.0,0.0,0.0,0.0,0.0,0.0,0.0,0.0,0.0,0.0,0.0,0.0,0.0,0.0,0.0,0.0,0.0,0.0,0.0,0.0,0.0,0.0,0.0,0.0,0.0,0.0,0.0,0.0,0.0,0.0,0.0,0.0,0.0,0.0,0.0,0.0,0.0,0.0,0.0,0.0,0.0,0.0,0.0,0.0,0.0,0.0,0.0,0.0,0.0,0.0,0.0,0.0,0.0,0.0,0.0,0.0,0.0,0.0,0.0,0.0,0.0,0.0,0.0,0.0,0.0,0.0,0.0,0.0,0.0,0.0,0.0,0.0,0.0,0.0,0.0,0.0,0.0,0.0,0.0,0.0,0.0,0.0,0.0,0.0,0.0,0.0,0.0,0.0,0.0,0.0,0.0,0.0,0.0,0.0,0.0,0.0,-2.4302,-2.4302,-2.4302,-2.4302,-2.4302,-2.4302,-2.4302,-2.4302,-2.4302,-2.4302,0.0,0.0,0.0,0.0,0.0,0.0,0.0,0.0,0.0,0.0,0.0,0.0,0.0,0.0,0.0,0.0,0.0,0.0,0.0,0.0,0.0,0.0,0.0,0.0,0.0,0.0,0.0,0.0,0.0,0.0,0.0,0.0,0.0,0.0,0.0,0.0,0.0,0.0,0.0,0.0,0.0,0.0,0.0,0.0,0.0,0.0,0.0,0.0,0.0,0.0,0.0,0.0,0.0,0.0,0.0,0.0,0.0,0.0,0.0,0.0,0.0,0.0,0.0,0.0,0.0,0.0,0.0,0.0,0.0,0.0,0.0,0.0,0.0,0.0,0.0,0.0,0.0,0.0,0.0,0.0,0.0,0.0,0.0,0.0,0.0,0.0,0.0,0.0,0.0,0.0,0.0,0.0,0.0,0.0,0.0,0.0,0.0,0.0,0.0,0.0,0.0,0.0,-2.4302,-2.4302,-2.4333,-2.4394,-2.4348,-2.4333,-2.4394,-2.4348,-2.4302,-2.4302,0.0,0.0,0.0,0.0,0.0,0.0,0.0,0.0,0.0,0.0,0.0,0.0,0.0,0.0,0.0,0.0,0.0,0.0,0.0,0.0,0.0,0.0,0.0,0.0,0.0,0.0,0.0,0.0,0.0,0.0,0.0,0.0,0.0,0.0,0.0,0.0,0.0,0.0,0.0,0.0,0.0,0.0,0.0,0.0,0.0,0.0,0.0,0.0,0.0,0.0,0.0,0.0,0.0,0.0,0.0,0.0,0.0,0.0,0.0,0.0,-2.6691,0.0,0.0,0.0,0.0,0.0,0.0,0.0,0.0,0.0,0.0,0.0,0.0,0.0,0.0,0.0,0.0,0.0,0.0,0.0,0.0,0.0,0.0,0.0,0.0,0.0,0.0,0.0,0.0,0.0,0.0,0.0,0.0,0.0,0.0,0.0,0.0,0.0,0.0,0.0,0.0,0.0,-2.4302,-2.4302,-2.4502,-2.5019,-2.4604,-2.4518,-2.5035,-2.461,-2.4302,-2.4302,-2.4302,0.0,0.0,0.0,0.0,0.0,0.0,0.0,0.0,0.0,0.0,0.0,0.0,0.0,0.0,0.0,0.0,0.0,0.0,0.0,0.0,0.0,0.0,0.0,0.0,0.0,0.0,0.0,0.0,0.0,0.0,0.0,0.0,0.0,0.0,0.0,0.0,0.0,0.0,0.0,0.0,0.0,0.0,0.0,0.0,0.0,0.0,0.0,0.0,0.0,0.0,0.0,0.0,0.0,0.0,0.0,0.0,0.0,0.0,0.0,0.0,-2.6691,0.0,0.0,0.0,0.0,0.0,0.0,0.0,0.0,0.0,0.0,0.0,0.0,0.0,0.0,0.0,0.0,0.0,0.0,0.0,0.0,0.0,0.0,0.0,0.0,0.0,0.0,0.0,0.0,0.0,0.0,0.0,0.0,0.0,0.0,0.0,0.0,0.0,0.0,0.0,0.0,-2.4748,-2.4795,-2.5056,-2.5749,-2.5518,-2.5441,-2.5795,-2.5195,-2.4795,-2.4795,-2.4487,0.0,0.0,0.0,0.0,0.0,0.0,0.0,0.0,0.0,0.0,0.0,0.0,0.0,0.0,0.0,0.0,0.0,0.0,0.0,0.0,0.0,0.0,0.0,0.0,0.0,0.0,0.0,0.0,0.0,0.0,0.0,0.0,0.0,0.0,0.0,0.0,0.0,0.0,0.0,0.0,0.0,0.0,0.0,0.0,0.0,0.0,0.0,0.0,0.0,0.0,0.0,0.0,0.0,-2.801,-2.8366,-2.8993,-2.8993,-2.8993,-2.8925,-2.7656,-2.7097,-2.7097,-2.7097,0.0,0.0,0.0,0.0,0.0,0.0,0.0,0.0,0.0,0.0,0.0,0.0,0.0,0.0,0.0,0.0,0.0,0.0,0.0,0.0,0.0,0.0,0.0,0.0,-2.4466,-2.4538,0.0,0.0,0.0,0.0,0.0,0.0,0.0,0.0,0.0,0.0,0.0,0.0,-2.5426,-2.5481,-2.578,-2.651,-2.6457,-2.6464,-2.6549,-2.5903,-2.5419,-2.5312,-2.4795,-2.4425,0.0,0.0,0.0,0.0,0.0,0.0,0.0,0.0,0.0,0.0,0.0,0.0,0.0,0.0,0.0,0.0,0.0,0.0,0.0,0.0,0.0,0.0,0.0,0.0,0.0,0.0,0.0,0.0,0.0,0.0,0.0,0.0,-2.6691,-2.6691,0.0,0.0,0.0,0.0,0.0,0.0,0.0,0.0,0.0,0.0,0.0,0.0,0.0,-2.8705,-2.8705,-2.8705,-2.8756,-2.884,-2.884,-2.8908,-2.8993,-2.8993,-2.8993,-2.8993,-2.879,0.0,-2.8705,-2.8705,0.0,0.0,0.0,0.0,0.0,0.0,0.0,0.0,0.0,0.0,0.0,0.0,0.0,0.0,0.0,0.0,0.0,0.0,0.0,0.0,0.0,0.0,-2.4456,-2.5019,-2.5158,-2.5456,0.0,-2.5498,-2.4364,-2.4302,-2.4302,0.0,0.0,0.0,0.0,0.0,0.0,0.0,-2.6241,-2.6241,-2.6503,-2.7196,-2.6734,-2.6649,-2.7211,-2.6573,-2.5927,-2.5327,-2.5204,-2.4896,-2.4333,-2.4261,0.0,0.0,0.0,0.0,0.0,0.0,0.0,0.0,0.0,0.0,0.0,0.0,0.0,0.0,0.0,0.0,0.0,0.0,0.0,0.0,0.0,0.0,0.0,0.0,0.0,0.0,0.0,0.0,0.0,-2.7994,-2.7994,-2.7994,-2.7994,-2.7994,0.0,0.0,0.0,0.0,0.0,0.0,0.0,0.0,0.0,-2.8993,-2.8993,-2.9213,-2.96,-2.9617,-3.0023,-3.0855,-3.0855,-3.1075,-3.1461,-3.1461,-3.1461,-3.1461,-3.1461,-3.1461,-3.1343,-2.9687,-2.8807,-2.8467,0.0,0.0,0.0,0.0,-2.7994,-2.7959,-2.7728,-2.7674,0.0,-2.7456,0.0,0.0,0.0,0.0,0.0,0.0,0.0,0.0,0.0,0.0,-2.6331,-2.6649,-2.6504,-2.6535,-2.732,-2.6635,-2.5874,0.0,-2.5672,-2.5472,-2.5472,0.0,0.0,0.0,0.0,-2.645,-2.6903,-2.6949,-2.7211,-2.7888,-2.7703,-2.7642,-2.7934,-2.7334,-2.6795,-2.6503,-2.6134,-2.561,-2.4881,-2.485,-2.4666,0.0,0.0,0.0,0.0,0.0,0.0,0.0,0.0,0.0,0.0,0.0,0.0,0.0,0.0,0.0,0.0,0.0,0.0,0.0,0.0,0.0,0.0,0.0,0.0,0.0,0.0,0.0,0.0,-2.8993,-2.8993,-2.8993,-2.8993,-2.8993,0.0,0.0,0.0,0.0,0.0,0.0,-2.9551,-2.9738,-2.9924,-3.0127,-3.0144,-3.0378,-3.0954,-3.0934,-3.1495,-3.2581,-3.2581,-3.2865,-3.3406,-3.3406,-3.3406,-3.3406,-3.3406,-3.3406,-3.3237,-3.1021,-2.9907,-2.9568,-2.9568,-2.9331,-2.8993,-2.8993,-2.8993,-2.8956,-2.8661,-2.855,-2.8531,-2.8436,-2.8398,-2.8455,-2.8755,0.0,0.0,0.0,0.0,-2.8379,-2.8265,-2.803,-2.7843,-2.8017,-2.7782,-2.7705,-2.8339,-2.8102,-2.7689,0.0,-2.6907,-2.6588,-2.6588,0.0,0.0,0.0,0.0,-2.7034,-2.758,-2.7657,-2.7857,-2.835,-2.8411,-2.8411,-2.8411,-2.7934,-2.758,-2.7411,-2.6919,-2.6318,-2.5588,-2.5389,-2.5066,-2.4579,0.0,0.0,0.0,0.0,0.0,0.0,0.0,0.0,0.0,0.0,0.0,0.0,0.0,0.0,0.0,0.0,0.0,0.0,0.0,0.0,0.0,0.0,0.0,0.0,0.0,0.0,0.0,0.0,0.0,-2.8993,-2.8993,0.0,0.0,0.0,0.0,-2.8993,-2.9651,-3.0362,-3.1038,-3.1752,-3.2462,-3.3169,-3.3186,-3.3203,-3.3237,-3.3237,-3.3271,-3.3339,-3.3339,-3.3372,-3.3406,-3.3406,-3.3406,-3.3406,-3.3406,-3.3406,-3.3389,-3.3254,-3.2357,-3.1089,-3.1089,-3.0245,-2.8993,-2.8993,-2.8993,-2.8993,-2.8975,-2.8956,-2.8901,-2.8531,-2.8398,-2.84,-2.842,-2.8699,0.0,0.0,-2.8417,-2.8304,-2.7931,-2.781,-2.7952,-2.8593,-2.8735,-2.9018,-3.0129,-3.0004,-2.9292,0.0,-2.7384,-2.7063,-2.7063,0.0,-2.7349,-2.7349,-2.7888,-2.8319,-2.835,-2.835,-2.8365,-2.8411,-2.8411,-2.8411,-2.8411,-2.8381,-2.8088,-2.7442,-2.7365,-2.7026,-2.628,-2.5635,-2.5281,-2.525,-2.4604,0.0,0.0,0.0,0.0,0.0,0.0,0.0,0.0,0.0,0.0,0.0,0.0,0.0,0.0,0.0,0.0,0.0,0.0,0.0,0.0,0.0,0.0,0.0,0.0,0.0,0.0,0.0,0.0,-3.1075,-3.1125,0.0,-3.1782,-3.1833,-3.1833,-3.1833,-3.2087,-3.2341,-3.2611,-3.2865,-3.3136,-3.3389,-3.3406,-3.3626,-3.41,-3.4568,-3.5081,-3.5588,-3.6079,-3.6299,-3.6299,-3.6299,-3.6045,-3.5594,-3.5594,-3.5301,-3.4822,-3.4822,-3.3964,-3.2628,-3.2628,-3.229,-3.1833,-3.1833,-3.1833,-3.1833,-3.1833,-3.1833,-3.1729,-3.1102,-3.0911,-3.0827,-3.0356,-3.0299,-3.0393,-3.0241,-3.0185,-3.0283,-3.0617,-3.0714,-3.0877,-3.1592,-3.1546,-3.1402,-3.1775,-3.1759,-3.1413,-3.0551,-2.9288,-2.828,-2.8007,-2.7991,-2.8042,-2.8042,-2.8258,-2.8411,-2.8411,-2.8411,-2.8411,-2.8411,-2.8411,-2.8411,-2.8411,-2.8411,-2.8304,-2.8057,-2.8042,-2.7734,-2.7042,-2.678,-2.6441,-2.5958,-2.5749,-2.5426,0.0,0.0,0.0,0.0,0.0,0.0,0.0,0.0,0.0,0.0,0.0,0.0,0.0,0.0,0.0,0.0,0.0,0.0,0.0,0.0,0.0,0.0,0.0,0.0,0.0,0.0,-3.1833,-3.2577,-3.2662,-3.2848,-3.3355,-3.3406,-3.3406,-3.3406,-3.3863,-3.4129,-3.4129,-3.4641,-3.4928,-3.4928,-3.4928,-3.5165,-3.5639,-3.6146,-3.6654,-3.7161,-3.7669,-3.7905,-3.7905,-3.7905,-3.7635,-3.7161,-3.7161,-3.6874,-3.6377,-3.6377,-3.5785,-3.4844,-3.4066,-3.3626,-3.3406,-3.3406,-3.3406,-3.3406,-3.3406,-3.3427,-3.338,-3.2835,-3.2703,-3.2639,-3.2107,-3.1935,-3.1935,-3.1935,-3.1935,-3.2053,-3.2527,-3.2662,-3.278,-3.3288,-3.316,-3.2927,-3.2878,-3.2906,-3.2757,-3.22,-3.1137,-3.0165,-2.9658,-2.9603,-2.9555,-2.9377,-2.9353,-2.9279,-2.9113,-2.9064,-2.9064,-2.9064,-2.8889,-2.875,-2.875,-2.8535,-2.8411,-2.8411,-2.8411,-2.8211,-2.775,-2.7519,-2.7165,-2.668,-2.6488,-2.6149,-2.5672,0.0,0.0,0.0,0.0,0.0,0.0,0.0,0.0,0.0,0.0,0.0,0.0,0.0,0.0,0.0,0.0,0.0,0.0,0.0,0.0,0.0,0.0,0.0,-3.2327,-3.2327,-3.2632,-3.3389,-3.3474,-3.3491,-3.3541,-3.3541,-3.3541,-3.3541,-3.4856,-3.5667,-3.5667,-3.7094,-3.7905,-3.7905,-3.7905,-3.7905,-3.7905,-3.7922,-3.7939,-3.7939,-3.7973,-3.7973,-3.7973,-3.7973,-3.7973,-3.7939,-3.7939,-3.7939,-3.7905,-3.7905,-3.7905,-3.7686,-3.5436,-3.4134,-3.3508,-3.3491,-3.3474,-3.3474,-3.3474,-3.3537,-3.3637,-3.3478,-3.352,-3.3603,-3.3444,-3.3406,-3.3406,-3.3406,-3.3406,-3.3406,-3.344,-3.344,-3.344,-3.3474,-3.3474,-3.3453,-3.3453,-3.3453,-3.333,-3.2824,-3.2779,-3.259,-3.2015,-3.1945,-3.182,-3.1307,-3.1209,0.0,-3.049,-3.0428,-3.0402,-3.0402,-2.9817,-2.9417,-2.9417,-2.8842,-2.8458,-2.8442,-2.8427,-2.8427,-2.8411,-2.778,-2.7426,-2.7426,-2.6765,-2.6433,-2.6433,0.0,0.0,0.0,0.0,0.0,0.0,0.0,0.0,0.0,0.0,0.0,0.0,0.0,0.0,0.0,0.0,0.0,0.0,0.0,0.0,0.0,0.0,-3.3102,-3.3102,-3.3102,-3.3575,-3.4839,-3.4991,-3.543,-3.6552,-3.6671,-3.6671,-3.6671,-3.7043,-3.728,-3.728,-3.7686,-3.7905,-3.7905,-3.7905,-3.7905,-3.7905,-3.843,-3.87,-3.87,-3.9225,-3.9503,-3.9503,-3.9503,-3.9191,-3.87,-3.8798,-3.8468,-3.7905,-3.8007,-3.8001,-3.7787,-3.6603,-3.6051,-3.5774,-3.5216,-3.4991,-3.4991,-3.4991,-3.5013,-3.495,-3.437,-3.4223,-3.4143,-3.3558,-3.3406,-3.3406,-3.3406,-3.3406,-3.3525,-3.4066,-3.4201,-3.4336,-3.4856,-3.4991,-3.4885,-3.4507,-3.4712,-3.4712,-3.3818,-3.4267,-3.4202,-3.2304,-3.1985,-3.1938,-3.1797,-3.1453,0.0,-3.1002,-3.0629,-3.0402,-3.0402,-3.0233,-3.0125,-3.0125,-2.9956,-2.9633,-2.9166,-2.9135,-2.8919,-2.8427,-2.8227,-2.8134,-2.8134,-2.7457,-2.7119,0.0,0.0,0.0,0.0,0.0,0.0,0.0,0.0,0.0,0.0,0.0,0.0,0.0,0.0,0.0,0.0,0.0,0.0,0.0,0.0,0.0,0.0,-3.4049,-3.4556,-3.5199,-3.4742,-3.4873,-3.6377,-3.6546,-3.6924,-3.7821,-3.7905,-3.7905,-3.7905,-3.8193,-3.8362,-3.8362,-3.865,-3.8819,-3.8819,-3.8819,-3.8819,-3.8819,-3.9266,-3.9469,-3.9486,-3.991,-4.0096,-4.0096,-4.0096,-3.9876,-3.9469,-3.9536,-3.9282,-3.8843,-3.8965,-3.8965,0.0,0.0,0.0,0.0,0.0,-3.6546,-3.6569,-3.6615,-3.6435,-3.6079,-3.5694,-3.5321,-3.496,-3.4472,-3.4315,-3.4315,-3.4315,-3.4315,-3.4416,-3.4861,-3.4962,-3.5081,-3.5498,-3.56,-3.5515,-3.5201,-3.5379,-3.5424,-3.4793,-3.5178,0.0,-3.3752,-3.3512,-3.3419,-3.321,-3.2901,-3.2635,-3.2389,-3.1901,-3.1555,-3.1555,-3.1113,-3.0828,-3.0828,-3.0555,0.0,0.0,0.0,-2.951,-2.8858,-2.8827,0.0,0.0,0.0,-2.7827,-2.7811,0.0,0.0,0.0,-2.6457,-2.6149,0.0,0.0,0.0,0.0,0.0,0.0,0.0,0.0,0.0,0.0,0.0,0.0,0.0,0.0,0.0,0.0,-3.5802,-3.636,-3.7821,-3.6857,-3.6479,-3.7872,-3.8024,-3.8075,-3.8142,-3.8159,-3.8159,-3.8159,-3.8751,-3.9106,-3.9106,0.0,0.0,0.0,0.0,-4.0096,-4.0096,-4.0096,-4.0096,-4.0096,-4.0096,-4.0096,-4.0096,-4.0096,-4.0096,-4.0096,-4.0113,-4.0096,-4.0096,-4.0263,-4.0313,-4.0152,-3.8662,-3.7997,-3.7929,-3.7929,-3.7905,-3.7905,-3.8031,0.0,0.0,-3.7069,-3.6627,-3.6005,-3.5898,-3.5802,-3.5735,-3.5735,-3.5667,-3.56,-3.56,-3.56,-3.56,-3.56,-3.56,-3.56,-3.56,-3.56,-3.56,-3.56,-3.56,-3.56,-3.56,-3.56,-3.5447,-3.4951,-3.4857,-3.4601,-3.4061,-3.3537,-3.3198,-3.3119,0.0,0.0,-3.1516,-3.0982,-3.0586,-3.0509,-3.0432,-3.0125,-2.9525,-2.9494,-2.9218,-2.8642,-2.855,-2.8519,-2.8519,-2.8442,-2.8411,-2.8381,-2.718,-2.6595,0.0,0.0,0.0,0.0,0.0,0.0,0.0,0.0,0.0,0.0,0.0,0.0,0.0,0.0,0.0,-3.6423,-3.7077,-3.777,-3.865,-3.8531,-3.8447,-3.8751,-3.8785,-3.9005,-3.9622,-3.9673,-3.9673,-3.9673,-3.9808,-3.9893,-3.9893,-4.0028,-4.0096,-4.0096,-4.0096,-4.0096,-4.0096,-4.0096,-4.0096,-4.0096,0.0,0.0,-4.0096,-4.0096,-4.0096,-4.0113,-4.0213,-4.0188,-4.0138,-4.0362,-4.0461,-4.0375,-3.9464,-3.8676,-3.8054,-3.8054,-3.7984,-3.7905,-3.7929,-3.7828,-3.7709,-3.7709,-3.7608,-3.7489,-3.7466,-3.7043,0.0,-3.6575,-3.6096,-3.56,-3.56,-3.56,-3.56,-3.56,-3.56,-3.56,-3.56,-3.56,-3.56,-3.56,-3.56,-3.56,-3.56,-3.56,-3.556,-3.5447,-3.5068,-3.4601,-3.4061,-3.3537,-3.3039,-3.2586,-3.2357,-3.2198,-3.2198,-3.209,-3.1782,-3.1228,-3.0705,-3.034,-3.0202,-3.0202,-3.014,-3.0017,-2.9479,-2.9202,-2.9212,-2.8673,-2.8411,-2.8396,-2.8134,-2.8011,0.0,0.0,0.0,0.0,0.0,0.0,0.0,0.0,0.0,0.0,0.0,-3.4602,0.0,0.0,-3.7009,-3.777,-3.821,-3.87,-3.9453,-3.9868,-3.9952,-3.958,-3.9554,-3.9706,-4.0062,-4.0096,-4.0265,-4.0612,-4.0646,-4.0798,-4.1196,-4.1213,-4.1213,-4.1213,-4.1213,-4.1213,-4.1213,-4.1213,-4.1027,-4.0646,-4.0646,-4.0468,-4.0096,-4.0163,-4.0163,-4.0113,-4.0238,-4.0213,-4.0138,-4.0313,-4.0485,-4.0549,-4.0124,-3.9675,-3.9303,-3.9303,-3.9255,-3.9207,-3.9272,-3.8986,-3.856,-3.8615,-3.8306,-3.7905,-3.7905,-3.7652,-3.7347,-3.7347,-3.706,-3.6664,-3.6299,-3.6197,-3.6096,-3.5701,-3.56,-3.56,-3.56,-3.56,-3.56,-3.56,-3.56,-3.56,-3.56,-3.56,-3.56,-3.56,-3.5138,-3.4697,-3.4431,-3.37,-3.3093,-3.2815,-3.2574,-3.2398,-3.2398,-3.2398,-3.2259,-3.1905,-3.1582,-3.1259,-3.092,-3.0905,-3.0751,-3.0402,-3.0063,-2.9894,-2.9894,-2.9556,-2.9387,-2.9387,-2.9387,-2.9058,0.0,0.0,0.0,0.0,0.0,0.0,0.0,0.0,-3.3914,-3.4218,-3.5211,-3.609,-3.6225,-3.728,-3.8362,-3.9089,-3.9326,-3.9631,-4.0231,-4.095,-4.1187,-4.0603,-4.0536,-4.0536,-4.0536,-4.0536,-4.0764,-4.1373,-4.1407,-4.1677,-4.2252,-4.2286,-4.2286,-4.2286,-4.2286,-4.2286,-4.2286,-4.2286,-4.1999,-4.1407,-4.1407,-4.1102,-4.0536,-4.0637,-4.0637,-4.057,-4.0577,-4.0424,-4.0188,-4.0313,-4.0502,-4.0697,-4.0583,-4.0534,-4.051,-4.051,-4.0468,-4.0485,-4.0607,-4.0134,-3.9469,-3.9573,-3.9068,-3.8401,-3.8376,-3.8268,-3.8149,-3.8125,-3.8024,-3.777,-3.7185,-3.7015,-3.684,-3.6191,-3.5938,-3.5819,-3.5819,-3.5701,-3.56,-3.56,-3.56,-3.56,-3.56,-3.56,-3.56,-3.56,-3.5224,-3.4927,-3.4793,-3.4053,-3.3469,-3.3381,-3.2868,-3.252,-3.2425,-3.2398,-3.2398,-3.2398,-3.2398,-3.2151,-3.1624,-3.1582,-3.1336,-3.0786,-3.0648,-3.0586,-3.0586,-3.0448,-3.0402,-3.0402,-3.0402,-2.9817,-3.3406,-3.3406,-3.3406,-3.3406,-3.3406,-3.3744,0.0,0.0,-3.5735,-3.7127,-3.7533,-3.7838,-3.8497,-3.8751,-3.9106,-3.9859,-4.0527,-4.0984,-4.1068,-4.1711,-4.2134,-4.2049,-4.2033,-4.2033,-4.2033,-4.2033,-4.2083,-4.2168,-4.2168,-4.2202,-4.2286,-4.2286,-4.2286,-4.2286,-4.2286,-4.2286,-4.2286,-4.2286,-4.2252,-4.2168,-4.2168,-4.2117,-4.2033,-4.2076,-4.2138,-4.2192,-4.1699,-4.1083,-4.0485,-4.06,-4.0673,-4.0697,-4.0673,-4.0607,-4.051,-4.051,-4.0412,-4.0337,-4.0485,-4.0458,-4.0366,-4.0373,-4.0297,-4.0197,-4.0075,-3.9566,-3.9033,-3.8894,-3.8413,-3.7889,-3.7804,-3.7787,-3.7753,-3.7669,-3.7144,-3.6677,-3.6677,-3.6096,-3.56,-3.56,-3.56,-3.56,-3.56,-3.56,-3.56,-3.56,-3.5554,-3.5339,-3.4857,-3.4697,-3.4456,-3.3944,-3.3433,-3.2922,-3.2437,-3.2398,-3.2398,-3.2398,-3.2398,-3.2367,-3.2275,-3.2275,-3.2244,-3.2167,-3.1582,-3.1274,-3.1274,-3.0705,-3.0402,-3.0402,-3.0402,-3.0325,-3.467,-3.467,-3.4793,-3.525,-3.5368,-3.5639,-3.6705,-3.6935,-3.7104,-3.777,-3.8244,-3.8633,-3.8937,-3.9368,-3.9893,0.0,-4.1001,-4.1356,-4.1779,-4.2489,-4.2946,-4.2946,-4.3335,-4.3295,-4.2388,-4.2286,-4.2472,-4.2912,-4.2946,-4.3149,-4.3616,-4.365,-4.365,-4.365,-4.365,-4.365,-4.365,-4.365,-4.3386,-4.2946,-4.2946,-4.2726,-4.2286,-4.2383,-4.2462,-4.2498,-4.2236,-4.2006,-4.1783,-4.1868,-4.1686,-4.1332,-4.1258,-4.0935,-4.051,-4.051,-4.051,-4.0551,-4.06,-4.0624,-4.0624,-4.0624,-4.0558,-4.0485,-4.0337,-4.0084,-3.9821,-3.9681,-3.9436,-3.9073,-3.865,-3.8531,-3.843,-3.8007,-3.7669,-3.7432,-3.7432,-3.7178,-3.6935,-3.6935,-3.6935,-3.6935,-3.6935,-3.6935,-3.6935,-3.6935,-3.591,-3.5045,-3.4833,-3.4529,-3.426,-3.402,-3.3793,-3.3563,-3.3345,-3.3055,-3.2868,-3.2868,-3.2559,-3.2398,-3.2398,-3.2398,-3.2398,-3.2398,-3.2105,-3.1967,-3.1967,-3.1705,-3.1567,-3.1567,-3.1567,-3.1567,-3.5943,-3.6073,-3.636,-3.6958,-3.7117,-3.7297,-3.8041,-3.821,-3.8261,-3.8464,-3.892,-3.9292,-3.9292,-3.9926,-4.0561,-4.1119,-4.1542,-4.1999,-4.2523,-4.325,-4.3741,-4.3741,-4.4231,-4.4175,-4.3031,-4.2912,-4.3149,-4.369,-4.3741,-4.3995,-4.4581,-4.4615,-4.4615,-4.4615,-4.4615,-4.4615,-4.4615,-4.4615,-4.4327,-4.3741,-4.3741,-4.3453,-4.2956,-4.3064,-4.2998,-4.2741,-4.2847,-4.2833,-4.2723,-4.2792,-4.256,-4.2121,-4.2004,-4.1492,-4.08,-4.08,-4.0771,-4.0697,-4.0697,-4.0721,-4.0745,-4.0745,-4.0655,-4.0534,-4.0387,-4.033,-4.0263,-4.0138,-4.0096,-3.9977,-3.9453,-3.9292,-3.9157,-3.8633,-3.8345,-3.821,-3.821,-3.8041,-3.7905,-3.7905,-3.7905,-3.7905,-3.7905,-3.7905,-3.7905,-3.7905,-3.6635,-3.5654,-3.5654,-3.5324,-3.5013,-3.4863,-3.4863,-3.4706,-3.4327,-3.3824,-3.343,-3.3198,-3.2695,-3.2398,-3.2398,-3.2398,-3.2398,-3.2398,-3.2398,-3.2398,-3.2398,-3.2398,-3.2398,-3.2398,-3.2398,-3.2398,0.0,0.0,-3.7838,-3.7872,-3.7872,-3.8058,-3.8802,-3.8954,-3.9157,-3.9893,-4.0045,-4.0079,-4.0079,-4.0663,-4.117,-4.1204,-4.2405,-4.3325,-4.3358,-4.4062,-4.4564,-4.4564,-4.4598,-4.4581,0.0,-4.453,-4.4547,-4.4564,-4.4564,-4.4581,-4.4615,-4.4615,-4.4615,-4.4615,-4.4615,-4.4615,-4.4615,-4.4615,-4.4598,-4.4564,-4.4564,-4.4564,-4.453,-4.4652,-4.4217,-4.3386,-4.37,-4.3423,-4.2706,-4.2834,-4.2911,-4.2971,-4.2971,-4.2397,-4.1569,-4.1569,-4.1199,-4.0697,-4.0697,-4.0793,-4.0894,-4.0894,-4.0817,-4.0673,-4.0534,-4.0412,-4.0263,-4.0138,-4.0096,-4.0096,-4.0079,-4.0079,-4.0062,-4.0045,-3.9503,-3.8954,-3.8954,-3.8396,-3.7905,-3.7905,-3.7905,-3.7905,-3.7905,-3.7905,-3.7905,-3.7905,-3.7848,-3.7814,-3.7814,-3.779,-3.758,-3.7062,-3.7003,-3.647,-3.5182,-3.4569,-3.3963,-3.323,-3.2695,-3.2398,-3.2398,-3.2398,-3.2398,-3.2398,-3.2398,-3.2398,-3.2398,-3.2398,-3.2398,-3.2398,-3.2398,-3.2398,0.0,0.0,-3.8024,-3.8514,-3.8633,-3.8819,-3.9571,-3.974,-3.9808,-4.0045,-4.0096,-4.0096,-4.0096,-4.0696,-4.1373,-4.1847,-4.2777,-4.3606,-4.4113,-4.4445,-4.4615,-4.4615,-4.4615,0.0,0.0,0.0,0.0,-4.4615,-4.4615,-4.4615,-4.4615,-4.4615,-4.4615,-4.4615,-4.4615,-4.4615,-4.4615,-4.4615,-4.4615,-4.4615,-4.4615,-4.4615,-4.4615,-4.4654,-4.449,-4.4225,-4.4402,-4.433,-4.4119,-4.4342,-4.4156,-4.3743,-4.3829,-4.3364,-4.2643,-4.2568,-4.2463,-4.2201,-4.1106,-4.0721,-4.0769,-4.0769,-4.0673,-4.0534,-4.0412,-4.0355,-4.0263,-4.0138,-4.0096,-4.0096,-4.0096,-4.0096,-4.0096,-4.0096,-3.991,-3.974,-3.974,-3.9537,-3.9343,-3.9343,-3.9343,-3.9343,-3.9343,-3.9343,-3.9343,-3.9343,-3.8531,-3.7905,-3.7905,-3.7905,-3.7834,-3.7648,-3.7648,-3.7457,-3.7002,-3.6104,-3.5439,-3.5214,-3.4304,-3.3552,-3.3075,-3.3059,-3.2844,-3.2398,-3.2398,-3.2398,-3.2398,-3.2398,-3.2398,-3.2398,-3.2398,-3.2398,0.0,-3.8481,-3.8802,-3.9259,-3.9402,-3.9537,-3.9994,-4.0096,-4.0096,-4.0096,-4.0096,-4.0096,-4.0096,-4.0696,-4.1441,-4.2168,-4.2929,-4.369,-4.4496,-4.4615,-4.4615,-4.4615,-4.4615,-4.4615,0.0,0.0,0.0,-4.4615,-4.4615,-4.4615,-4.4615,-4.4615,-4.4615,-4.4615,-4.4615,-4.4615,-4.4615,-4.4615,-4.4615,-4.4615,-4.4615,-4.4615,-4.4615,-4.4615,-4.4615,-4.4598,-4.4682,-4.4765,-4.4803,-4.4978,-4.4812,-4.442,-4.4578,-4.4165,-4.3528,-4.3477,-4.3355,-4.3026,-4.1896,-4.1381,-4.1164,-4.1116,-4.083,-4.0485,-4.0337,-4.028,-4.0213,-4.0121,-4.0096,-4.0096,-4.0096,-4.0096,-4.0096,-4.0096,-4.0096,-4.0096,-4.0096,-4.0096,-4.0096,-4.0096,-4.0096,-4.0096,-4.0096,-4.0096,-4.0096,-4.0096,-3.9276,-3.8684,-3.8684,-3.8684,-3.8684,-3.8684,-3.8684,-3.8582,-3.8328,-3.7459,-3.681,-3.6538,-3.5443,-3.462,-3.4125,-3.3926,-3.3583,-3.3152,-3.3165,-3.3013,-3.2752,-3.2752,-3.2628,-3.2398,-3.2398,-3.2398,-3.9039,-3.958,-4.0163,-4.0163,-4.0163,-4.0163,-4.0163,-4.013,-4.0096,-4.0096,-4.0096,-4.0096,0.0,0.0,-4.1441,-4.2168,-4.2929,-4.369,-4.4496,-4.4615,-4.4615,0.0,0.0,0.0,0.0,0.0,0.0,-4.4615,0.0,-4.4615,-4.4615,-4.4615,-4.4615,-4.4615,-4.4615,-4.4615,-4.4615,-4.4615,-4.4615,-4.4615,-4.4615,-4.4615,-4.4615,-4.4615,-4.4615,-4.4615,-4.4615,-4.4682,-4.4776,-4.482,-4.4886,-4.5005,-4.5123,-4.4765,-4.4156,-4.4311,-4.3914,-4.3285,-4.3159,-4.2651,-4.2019,-4.1913,-4.1292,-4.0563,-4.0457,-4.0298,-4.0163,-4.0163,-4.013,-4.0096,-4.0096,-4.0096,-4.0096,-4.0096,-4.0096,-4.0096,-4.0096,-4.0096,-4.0096,-4.0096,-4.0096,-4.0096,-4.0096,-4.0096,-4.0096,-4.0096,-4.0096,-4.0096,-4.0096,-4.0096,-4.0096,-4.0096,-4.0096,-3.9825,-3.9106,-3.8555,-3.7949,-3.7243,-3.6142,-3.5538,-3.5506,-3.4914,-3.4594,-3.4563,-3.4505,-3.4166,-3.346,-3.346,-3.3121,-3.2505,-3.2505,-3.2505,-3.9673,-4.0358,-4.0916,-4.0916,-4.0916,-4.0916,-4.0916,-4.0476,-4.0096,-4.0096,-4.0096,-4.0096,-4.0096,-4.0696,0.0,-4.2168,-4.2929,0.0,-4.4496,-4.4615,0.0,-4.4615,0.0,-4.4615,-4.4615,-4.4615,0.0,0.0,-4.4615,-4.4615,-4.4615,-4.4615,-4.4615,-4.4615,-4.4615,-4.4615,-4.4615,-4.4615,-4.4615,-4.4615,-4.4615,-4.4615,-4.4615,-4.4615,-4.4615,-4.4615,-4.4615,-4.4626,-4.4654,-4.4748,-4.4831,-4.4886,-4.5113,-4.502,-4.4812,-4.5025,-4.4957,-4.4706,-4.4776,-4.3872,-4.2721,-4.2713,-4.2364,-4.1997,-4.1946,-4.1469,-4.0916,-4.0916,-4.051,-4.0096,-4.0096,-4.0096,-4.0096,-4.0096,-4.0096,-4.0096,-4.0096,-4.0096,-4.0096,-4.0096,-4.0096,-4.0096,-4.0096,-4.0096,-4.0096,-4.0096,-4.0096,-4.0096,-4.0096,-4.0096,-4.0096,-4.0096,-4.0096,-4.0028,-3.9842,-3.9282,-3.8868,-3.8676,-3.7981,-3.7351,-3.6846,-3.6248,-3.5684,-3.5194,-3.4723,-3.4412,-3.4227,-3.4227,-3.4135,-3.3966,-3.3966,-3.3966,-4.0375,-4.0882,-4.1288,-4.1593,-4.1441,-4.1204,-4.1204,-4.0629,-4.0096,-4.0096,-4.0096,-4.0096,-4.0096,-4.0426,-4.1052,0.0,0.0,0.0,-4.4445,-4.4615,-4.4615,0.0,-4.4615,0.0,-4.4615,-4.4615,-4.4615,0.0,-4.4615,-4.4615,-4.4615,-4.4615,-4.4615,-4.4615,-4.4615,-4.4615,-4.4615,-4.4615,-4.4615,-4.4615,-4.4615,-4.4615,-4.4615,-4.4615,-4.4615,-4.4615,0.0,-4.4615,-4.4615,-4.4682,-4.4709,-4.472,-4.4923,-4.4978,-4.494,-4.5157,-4.522,-4.5203,-4.5274,-4.4767,-4.3984,-4.3606,-4.3143,-4.2697,-4.2645,-4.2295,-4.1894,-4.1894,-4.1308,-4.0663,-4.0663,-4.04,-4.0096,-4.0096,-4.0096,-4.0096,-4.0096,-4.0096,-4.0096,-4.0096,-4.0096,-4.0096,-4.0096,-4.0096,-4.0096,-4.0096,-4.0096,-4.0096,-4.0096,-4.0096,-4.0096,-4.0096,-4.0096,-4.0096,-4.0096,-3.9799,-3.9575,-3.9575,-3.9028,-3.8532,-3.815,-3.7556,-3.6944,-3.6292,-3.5945,-3.5497,-3.4951,-3.4951,-3.4797,-3.4505,-3.4505,-3.4505,-4.1035,-4.1339,-4.1627,-4.2151,-4.1813,-4.1322,-4.1221,-4.0629,-4.0096,-4.0096,-4.0096,-4.0096,-4.0096,-4.0096,-4.0553,-4.1914,0.0,-4.2794,-4.4231,-4.4547,-4.4615,-4.4615,-4.4615,-4.4615,-4.4615,-4.4615,-4.4615,-4.4615,-4.4615,-4.4615,-4.4615,-4.4615,-4.4615,-4.4615,-4.4615,-4.4615,-4.4615,-4.4615,-4.4615,-4.4615,-4.4615,-4.4615,-4.4615,-4.4615,-4.4615,-4.4615,-4.4615,-4.4615,-4.4615,-4.4615,-4.4615,-4.4598,-4.4765,-4.4776,-4.4776,-4.4923,-4.5086,-4.5194,-4.5177,-4.5274,-4.5294,-4.4534,-4.3829,-4.3271,-4.316,-4.3039,-4.2945,-4.2945,-4.2287,-4.1571,-4.1554,-4.0977,-4.0409,-4.04,-4.04,-4.04,-4.04,-4.0316,-4.0231,-4.013,-4.0096,-4.0096,-4.0096,-4.0096,-4.0096,-4.0096,-4.0096,-4.0096,-4.0096,-4.0096,-4.0096,-4.0096,-4.0096,-4.0096,-4.0096,-4.0096,-4.0096,-4.0096,-3.9618,-3.9312,-3.9312,-3.8739,-3.8153,-3.7519,-3.7447,-3.6836,-3.5614,-3.5614,-3.5337,-3.4767,-3.4767,-3.4767,-4.117,-4.21,-4.2885,-4.2422,-4.2202,-4.1948,-4.1339,-4.0629,0.0,-4.0096,-4.0096,-4.0096,-4.0096,-4.0096,-4.0383,-4.1255,-4.1897,-4.2608,-4.3487,-4.4181,-4.4615,0.0,-4.4615,-4.4615,-4.4615,-4.4615,0.0,0.0,-4.4615,-4.4615,-4.4615,-4.4615,-4.4615,-4.4615,-4.4615,-4.4615,-4.4615,-4.4615,-4.4615,-4.4615,-4.4615,-4.4615,-4.4615,-4.4615,-4.4615,-4.4615,-4.4615,0.0,-4.4615,-4.4615,-4.4615,-4.4598,-4.4765,-4.4737,-4.4654,-4.4913,-4.5005,-4.5059,-4.515,-4.5274,-4.538,-4.5216,-4.5025,-4.4799,-4.4799,-4.4281,-4.3697,-4.3697,-4.315,-4.2518,-4.2363,-4.2192,-4.2055,-4.195,-4.1941,-4.1941,-4.1941,-4.1441,-4.0832,-4.0231,-4.0096,-4.0096,-4.0096,-4.0096,-4.0096,-4.0096,-4.0096,-4.0096,-4.0096,-4.0096,-4.0096,-4.0096,-4.0096,-4.0096,-4.0096,-4.0096,-4.0096,-4.0096,-3.9995,-3.9927,-3.9927,-3.9348,-3.8767,-3.8153,-3.765,-3.7041,-3.6322,-3.6322,-3.6261,-3.6138,-3.6138,-3.6138,-4.1559,-4.2286,-4.2828,-4.2861,-4.2574,-4.21,-4.1373,0.0,0.0,-4.0096,-4.0096,-4.0096,-4.0096,-4.0096,-4.035,-4.1085,-4.1813,-4.2557,-4.3318,-4.4079,-4.4615,-4.4615,-4.4615,-4.4615,-4.4615,-4.4615,-4.4615,-4.4615,-4.4615,-4.4615,-4.4615,-4.4615,-4.4615,-4.4615,-4.4615,-4.4615,-4.4615,-4.4615,-4.4615,-4.4615,-4.4615,-4.4615,-4.4615,-4.4615,-4.4615,-4.4615,-4.4615,-4.4615,-4.4615,-4.4615,-4.4615,-4.4615,-4.4682,-4.4654,-4.4615,-4.472,-4.4886,-4.5005,-4.4978,-4.5167,-4.5397,-4.53,-4.53,-4.53,-4.53,-4.5007,-4.4679,-4.4679,-4.4103,-4.3442,-4.3356,-4.2918,-4.2481,-4.2402,-4.2339,-4.2286,-4.2286,-4.2016,-4.166,-4.1314,-4.1221,-4.1221,-4.1221,-4.0942,-4.0663,-4.0663,-4.0367,-4.0096,-4.0096,-4.0096,-4.0096,-4.0096,-4.0096,-4.0096,-4.0096,-4.0096,-4.0096,-4.0096,-4.0096,-4.0096,-4.0096,-3.9523,-3.892,-3.8306,-3.7709,-3.7088,-3.6492,-3.6492,-3.6492,-3.6492,-3.6492,-3.6492,-4.1745,-4.2168,-4.2388,-4.2828,-4.2489,-4.1863,-4.1136,-4.0536,0.0,-4.0096,-4.0096,-4.0096,-4.0096,-4.0096,-4.0299,0.0,-4.1711,-4.2489,-4.3098,-4.3978,-4.4615,0.0,-4.4615,0.0,-4.4615,-4.4615,0.0,-4.4615,-4.4615,-4.4615,-4.4615,-4.4615,-4.4615,-4.4615,-4.4615,-4.4615,-4.4615,-4.4615,-4.4615,-4.4615,-4.4615,-4.4615,-4.4615,-4.4615,-4.4615,-4.4615,-4.4615,-4.4615,-4.4615,-4.4615,-4.4615,-4.4615,-4.4615,-4.4615,-4.4615,-4.4615,-4.4765,-4.4923,-4.4831,-4.5022,-4.5318,-4.522,-4.53,-4.5397,-4.5397,-4.5397,-4.5397,-4.5397,-4.4914,-4.4371,-4.4345,-4.3724,-4.3062,-4.3,-4.2894,-4.278,-4.2574,-4.254,-4.2489,-4.232,-4.2286,-4.2286,-4.2286,-4.1813,-4.1441,-4.1441,-4.0933,-4.057,-4.057,-4.0434,-4.035,-4.035,-4.0197,-4.0096,-4.0096,-4.0096,-4.0096,-4.0096,-4.0096,-4.0096,-4.0096,-3.9523,-3.892,-3.8306,-3.7709,-3.7088,-3.6492,-3.6492,-3.6492,-3.6492,-3.6492,-3.6492,-4.1271,-4.1779,-4.2151,-4.1559,-4.1356,-4.1102,-4.0383,0.0,-4.0096,-4.0096,-4.0096,-4.0096,-4.0096,-4.0096,-4.013,-4.0197,0.0,-4.232,-4.2388,-4.3684,-4.4615,-4.4615,0.0,0.0,-4.4615,-4.4615,-4.4615,-4.4615,-4.4615,-4.4615,-4.4615,-4.4615,-4.4615,-4.4615,-4.4615,-4.4615,-4.4615,-4.4615,-4.4615,-4.4615,-4.4615,-4.4615,-4.4615,-4.4615,-4.4615,-4.4615,-4.4615,-4.4615,0.0,-4.4615,-4.4615,-4.4615,-4.4615,-4.4615,-4.4615,-4.4615,-4.4709,-4.4803,-4.4803,-4.4913,-4.5059,-4.515,-4.53,-4.5397,-4.5397,-4.5397,-4.5397,-4.5397,-4.5345,-4.5267,-4.5144,-4.5022,-4.489,-4.4654,-4.4572,-4.4357,-4.3481,-4.3291,-4.3115,-4.2422,-4.2286,-4.2286,-4.2286,-4.2236,-4.2185,-4.2185,-4.2134,-4.2083,-4.2083,-4.1508,-4.1102,-4.1102,-4.0519,-4.0096,-4.0096,-4.0096,-4.0096,-4.0096,-4.0096,-4.0096,-4.0096,-3.9523,-3.892,-3.8306,-3.7709,-3.7088,-3.6492,-3.6492,-3.6492,-3.6492,-3.6492,-3.6492,-4.1085,-4.1407,-4.1576,-4.1271,-4.1204,-4.1018,-4.0282,0.0,-4.0096,-4.0096,-4.0096,-4.0096,-4.0096,-4.0096,-4.0096,0.0,0.0,0.0,-4.2286,-4.3633,-4.4615,-4.4615,-4.4615,0.0,0.0,0.0,-4.4615,-4.4615,-4.4615,-4.4615,-4.4615,-4.4615,-4.4615,-4.4615,-4.4615,-4.4615,-4.4615,-4.4615,-4.4615,-4.4615,-4.4615,-4.4615,-4.4615,-4.4615,-4.4615,-4.4615,-4.4615,-4.4615,0.0,-4.4615,-4.4615,-4.4615,-4.4615,-4.4615,-4.4615,-4.4615,-4.4682,-4.4776,-4.4709,-4.4831,-4.5005,-4.4951,-4.5032,-4.5184,-4.5344,-4.5397,-4.5397,-4.5397,-4.5397,-4.5397,-4.5327,-4.5274,-4.515,-4.4951,-4.4858,-4.4708,-4.433,-4.4169,-4.4028,-4.3752,-4.3684,-4.3684,-4.3684,-4.3284,-4.2963,-4.2963,-4.2574,-4.2286,-4.2286,-4.2033,-4.1863,-4.1863,-4.0807,-4.0096,-4.0096,-4.0096,-4.0096,-4.0096,-4.0096,-4.0096,-4.0096,-3.9523,-3.9082,-3.8865,-3.8238,-3.765,-3.7043,-3.7043,-3.6877,-3.6492,-3.6492,-3.6492,-4.0663,-4.0865,-4.0865,-4.0865,-4.0865,-4.073,0.0,0.0,-4.0096,-4.0096,-4.0096,-4.0096,-4.0096,-4.0096,-4.0096,0.0,0.0,-4.2286,-4.2286,-4.3633,-4.4615,-4.4615,0.0,-4.4615,0.0,-4.4615,-4.4615,-4.4615,-4.4615,-4.4615,-4.4615,-4.4615,-4.4615,-4.4615,-4.4615,-4.4615,-4.4615,-4.4615,-4.4615,-4.4615,-4.4615,-4.4615,-4.4615,-4.4615,-4.4615,-4.4615,-4.4615,-4.4615,0.0,-4.4615,-4.4615,-4.4615,-4.4615,-4.4615,-4.4615,-4.4615,-4.4654,-4.4737,-4.4626,-4.472,-4.4886,-4.4831,-4.4858,-4.4978,-4.5211,-4.5318,-4.5344,-4.5397,-4.5397,-4.5397,-4.5397,-4.5344,-4.522,-4.5086,-4.4978,-4.4913,-4.4803,-4.4737,-4.4654,-4.4598,-4.4615,-4.4615,-4.4615,-4.413,-4.3758,-4.3758,-4.3301,-4.299,-4.299,-4.276,-4.2625,-4.2625,-4.1491,-4.0756,-4.0756,-4.057,-4.0434,-4.0434,-4.0231,-4.0096,-4.0096,-3.9523,-3.9206,-3.9206,-3.8601,-3.8096,-3.7666,-3.749,-3.7178,-3.6754,-3.6569,-3.6492,-3.991,-4.0113,-4.0113,-4.0113,-4.0113,-4.0113,0.0,-4.0096,-4.0096,-4.0096,-4.0096,-4.0096,-4.0096,-4.0096,-4.0096,-4.0096,0.0,0.0,-4.2286,-4.3633,-4.4615,0.0,0.0,-4.4615,-4.4615,-4.4615,-4.4615,-4.4615,-4.4615,0.0,-4.4615,-4.4615,-4.4615,-4.4615,-4.4615,-4.4615,-4.4615,-4.4615,-4.4615,-4.4615,-4.4615,-4.4615,-4.4615,-4.4615,-4.4615,-4.4615,-4.4615,-4.4615,0.0,-4.4615,-4.4615,-4.4615,-4.4615,-4.4615,-4.4615,-4.4615,-4.4615,-4.4615,-4.4615,-4.4615,-4.4643,-4.4765,-4.4803,-4.4831,-4.4951,-4.5113,-4.5247,-4.5371,-4.5397,-4.5397,-4.5397,-4.5397,-4.5353,-4.5247,-4.5194,-4.5123,-4.4858,-4.4803,-4.4748,-4.4643,-4.4615,-4.4615,-4.4615,-4.4598,-4.4598,-4.4598,-4.4581,-4.4581,-4.4581,-4.3876,-4.3375,-4.3375,-4.2726,-4.2269,-4.2269,-4.161,-4.1187,-4.1187,-4.0493,-4.0096,-4.0096,-3.9523,-3.9206,-3.9206,-3.8601,-3.8306,-3.8294,-3.7679,-3.7417,-3.7387,-3.6785,-3.6492,-3.9276,-3.9723,-4.0096,-4.0096,-4.0096,-4.0096,-4.0096,-4.0096,-4.0096,-4.0096,-4.0096,-4.0096,-4.0096,-4.0096,-4.0096,-4.0096,0.0,0.0,0.0,0.0,0.0,-4.4615,-4.4615,-4.4615,0.0,0.0,-4.4615,-4.4615,-4.4615,-4.4615,-4.4615,-4.4615,-4.4615,-4.4615,-4.4615,-4.4615,-4.4615,-4.4615,-4.4615,-4.4615,-4.4615,-4.4615,-4.4615,-4.4615,-4.4615,-4.4615,-4.4615,-4.4615,-4.4615,-4.4615,-4.4615,-4.4598,-4.4709,-4.4682,-4.4598,-4.4709,-4.4682,-4.4615,-4.4615,-4.4615,-4.4615,-4.4654,-4.4654,-4.4682,-4.4831,-4.5005,-4.5247,-4.5371,-4.5397,-4.5397,-4.5397,-4.5397,-4.5397,-4.5344,-4.5274,-4.5194,-4.5086,-4.494,-4.4793,-4.472,-4.4654,-4.4615,-4.4615,-4.4615,-4.4615,-4.4615,-4.4615,-4.4615,-4.4615,-4.4395,-4.4215,-4.4215,-4.3995,-4.3464,-4.2388,-4.2083,-4.1728,-4.1238,-4.0984,-4.0612,-4.013,-3.9918,-3.9825,-3.9825,-3.9627,-3.9322,-3.8903,-3.8728,-3.8197,-3.7387,-3.7208,-3.6892,0.0,-3.9351,-3.9757,-4.0028,-4.0096,0.0,0.0,-4.0096,-4.0096,-4.0096,-4.0096,-4.0096,-4.0096,-4.0096,-4.0096,-4.0096,-4.1348,0.0,0.0,0.0,0.0,-4.4615,0.0,0.0,0.0,-4.4615,-4.4615,-4.4615,-4.4615,-4.4615,-4.4615,-4.4615,-4.4615,-4.4615,-4.4615,-4.4615,-4.4615,-4.4615,-4.4615,-4.4615,-4.4615,-4.4615,-4.4615,-4.4615,-4.4615,-4.4615,-4.4615,-4.4615,0.0,-4.4615,-4.4615,-4.4598,-4.4682,-4.4682,-4.4598,-4.4709,-4.4709,-4.4682,-4.4626,-4.4626,-4.4654,-4.4615,-4.4615,-4.4654,-4.4886,-4.5059,-4.522,-4.53,-4.5371,-4.5397,-4.5397,-4.5397,-4.5397,-4.5397,-4.5344,-4.5247,-4.5167,-4.5032,-4.4913,-4.4748,-4.4709,-4.4654,-4.4598,-4.4615,-4.4615,-4.4615,-4.4615,-4.4615,-4.4615,-4.4615,-4.4615,-4.4615,-4.4615,-4.4225,-4.3234,-4.2878,-4.2523,-4.2066,-4.1508,-4.0984,-4.0527,-4.0248,-4.0096,-4.0096,-4.0096,-3.9918,-3.9523,-3.9312,-3.859,-3.7417,-3.7417,-3.7074,0.0,-3.8903,-3.9157,-3.9859,-4.0062,-4.0096,-4.0096,0.0,0.0,-4.0096,-4.0096,-4.0096,-4.0096,-4.0096,-4.013,-4.018,-4.1382,0.0,0.0,-4.3667,0.0,0.0,-4.4615,0.0,-4.4615,-4.4615,-4.4615,-4.4615,-4.4615,-4.4615,-4.4615,-4.4615,-4.4615,-4.4615,-4.4615,-4.4615,-4.4615,-4.4615,-4.4615,-4.4615,-4.4615,-4.4615,-4.4615,-4.4615,-4.4615,0.0,-4.4615,-4.4615,-4.4615,-4.4615,-4.4615,-4.4615,-4.4598,-4.4598,-4.4615,-4.4598,-4.4682,-4.4776,-4.4654,-4.4709,-4.4776,-4.4654,-4.4626,-4.4709,-4.5059,-4.5177,-4.5194,-4.5177,-4.5274,-4.5371,-4.5371,-4.5397,-4.5397,-4.5397,-4.5397,-4.5344,-4.5086,-4.5113,-4.5086,-4.4709,-4.4737,-4.4748,-4.4654,-4.4598,-4.4598,-4.4598,-4.4615,-4.4615,-4.4615,-4.4615,-4.4615,-4.4615,-4.4615,-4.4615,-4.4615,-4.3927,-4.3443,-4.3392,-4.2117,-4.1322,-4.1204,-4.0527,-4.0146,-4.0096,-4.0096,-4.0096,-4.0096,-3.9497,-3.8618,-3.7519,-3.7447,-3.7088,-3.7043,0.0,-3.9039,-3.9208,-3.969,-4.0096,0.0,0.0,0.0,0.0,0.0,0.0,0.0,-4.0096,-4.0282,-4.0849,0.0,-4.2489,-4.3064,-4.3978,0.0,-4.4615,-4.4615,-4.4615,-4.4615,-4.4615,-4.4615,-4.4615,-4.4615,-4.4615,-4.4615,-4.4615,-4.4615,-4.4615,-4.4615,-4.4615,-4.4615,-4.4615,-4.4615,-4.4615,-4.4615,-4.4615,-4.4615,-4.4615,-4.4615,-4.4615,-4.4615,-4.4615,-4.4615,-4.4615,-4.4615,-4.4598,-4.4709,-4.4682,-4.4598,-4.4709,-4.4709,-4.4654,-4.4737,-4.4776,-4.4803,-4.4886,-4.4913,-4.4923,-4.5005,-4.4995,-4.494,-4.514,-4.5167,-4.5113,-4.522,-4.5247,-4.5274,-4.5371,-4.5397,-4.5371,-4.5318,-4.5247,-4.515,-4.5086,-4.4913,-4.4831,-4.4886,-4.4737,-4.4626,-4.4737,-4.4654,-4.4615,-4.4615,-4.4615,-4.4615,-4.4615,-4.4615,-4.4615,-4.4615,-4.4445,-4.4062,-4.3426,-4.3054,-4.2361,-4.1255,-4.1035,-4.0679,-4.0113,-4.0096,-4.0096,-4.0096,-3.9497,-3.9055,-3.8756,-3.7825,-3.7328,-3.6129,-3.7094,-3.8142,-3.8819,-3.9317,-3.969,-4.0028,0.0,0.0,0.0,0.0,0.0,0.0,-4.0383,-4.073,-4.1136,-4.21,0.0,0.0,0.0,-4.4615,-4.4615,-4.4615,-4.4615,0.0,-4.4615,-4.4615,-4.4615,-4.4615,-4.4615,-4.4615,-4.4615,-4.4615,-4.4615,-4.4615,-4.4615,-4.4615,-4.4615,-4.4615,-4.4615,-4.4615,-4.4615,-4.4615,-4.4615,-4.4615,-4.4615,-4.4615,-4.4615,-4.4615,-4.4615,-4.4615,-4.4615,-4.4682,-4.4654,-4.4598,-4.4682,-4.4737,-4.4793,-4.482,-4.4831,-4.4896,-4.5059,-4.5059,-4.5005,-4.5157,-4.5049,-4.4923,-4.514,-4.5167,-4.5113,-4.5247,-4.5247,-4.523,-4.5371,-4.5397,-4.5371,-4.53,-4.53,-4.5247,-4.514,-4.5032,-4.4978,-4.5005,-4.4886,-4.4793,-4.4803,-4.4737,-4.4682,-4.4598,-4.4615,-4.4615,-4.4615,-4.4615,-4.4615,-4.4615,-4.4615,-4.4401,-4.3978,-4.3606,-4.3037,-4.2226,-4.1559,-4.0849,-4.0113,-4.0096,-4.0096,-4.0096,-3.9773,-3.9339,-3.8767,-3.8379,-3.7767,-3.56,-3.6096,-3.6958,-3.8447,-3.8903,-3.9191,-3.9943,0.0,0.0,0.0,0.0,0.0,0.0,-4.0696,0.0,0.0,0.0,0.0,-4.4513,-4.4615,-4.4615,-4.4615,-4.4615,0.0,-4.4615,-4.4615,-4.4615,-4.4615,-4.4615,-4.4615,-4.4615,-4.4615,-4.4615,-4.4615,-4.4615,-4.4615,-4.4615,-4.4615,-4.4615,-4.4615,-4.4615,-4.4615,-4.4615,-4.4615,-4.4615,-4.4615,0.0,0.0,-4.4615,-4.4615,-4.4615,-4.4615,-4.4615,-4.4615,-4.4615,-4.4615,-4.472,-4.494,-4.4831,-4.4913,-4.5059,-4.515,-4.514,-4.5086,-4.5344,-4.5238,-4.5086,-4.5194,-4.5194,-4.5194,-4.5327,-4.5274,-4.523,-4.5371,-4.5397,-4.5371,-4.5247,-4.53,-4.5344,-4.5103,-4.514,-4.515,-4.5086,-4.5032,-4.4951,-4.4886,-4.4831,-4.4776,-4.4682,-4.4654,-4.4626,-4.4626,-4.4598,-4.4615,-4.4615,-4.4615,-4.4615,-4.4615,-4.3961,-4.3538,-4.3392,-4.21,-4.1018,-4.0282,-4.0282,-4.0214,-4.0096,-4.002,-3.9428,-3.8463,-3.8783,-3.8096,-3.56,-3.5684,-3.614,-3.7702,-3.8531,-3.9191,-3.9943,0.0,0.0,0.0,0.0,0.0,0.0,-4.0696,-4.1407,0.0,0.0,-4.4479,0.0,0.0,-4.4615,-4.4615,0.0,-4.4615,-4.4615,-4.4615,-4.4615,-4.4615,-4.4615,-4.4615,-4.4615,-4.4615,-4.4615,-4.4615,-4.4615,-4.4615,-4.4615,-4.4615,-4.4615,-4.4615,-4.4615,-4.4615,-4.4615,-4.4615,-4.4615,-4.4615,0.0,-4.4615,-4.4615,-4.4615,-4.4615,-4.4615,-4.4615,-4.4615,-4.4615,-4.4615,-4.4643,-4.4682,-4.4776,-4.4951,-4.5177,-4.5177,-4.5274,-4.5344,-4.5397,-4.5371,-4.5344,-4.5371,-4.5211,-4.5059,-4.5194,-4.522,-4.523,-4.5371,-4.5397,-4.5397,-4.5371,-4.5397,-4.5397,-4.5344,-4.5274,-4.5247,-4.5318,-4.5157,-4.5032,-4.5123,-4.5032,-4.4951,-4.4923,-4.4831,-4.4776,-4.4776,-4.4682,-4.4615,-4.4615,-4.4615,-4.4615,-4.4615,-4.4496,-4.4113,-4.3426,-4.2591,-4.1779,-4.1052,-4.1035,-4.0713,-4.0096,-3.9592,-3.9259,-3.9028,-3.8112,-3.7519,-3.56,-3.5926,-3.6518,-3.7635,-3.8159,-3.87,0.0,0.0,0.0,0.0,0.0,0.0,0.0,0.0,-4.2642,-4.3403,0.0,-4.4615,-4.4615,-4.4615,-4.4615,0.0,0.0,-4.4615,-4.4615,-4.4615,-4.4615,-4.4615,-4.4615,-4.4615,-4.4615,-4.4615,-4.4615,-4.4615,-4.4615,-4.4615,-4.4615,-4.4615,-4.4615,-4.4615,-4.4615,-4.4615,-4.4615,-4.4615,-4.4615,-4.4615,0.0,-4.4615,-4.4615,-4.4615,-4.4615,-4.4615,-4.4615,-4.4615,-4.4598,-4.4682,-4.4709,-4.4737,-4.4858,-4.5032,-4.5203,-4.5203,-4.53,-4.5397,-4.5397,-4.5397,-4.5397,-4.5397,-4.5247,-4.514,-4.5274,-4.5247,-4.523,-4.5371,-4.5397,-4.5397,-4.5397,-4.5397,-4.5397,-4.5397,-4.5371,-4.5344,-4.5397,-4.5291,-4.5194,-4.5203,-4.5167,-4.5086,-4.5005,-4.4886,-4.4803,-4.4803,-4.4682,-4.4615,-4.4615,-4.4615,-4.4615,-4.4615,-4.4615,-4.4231,-4.3426,-4.3081,-4.2557,-4.1813,-4.1779,-4.1424,-4.0679,-4.0404,-3.9897,-3.9206,-3.9369,-3.9105,-3.56,-3.618,-3.6981,-3.7719,0.0,0.0,0.0,0.0,0.0,0.0,0.0,0.0,0.0,-4.2513,0.0,-4.4479,-4.4615,-4.4615,-4.4615,-4.4615,-4.4615,-4.4615,-4.4615,-4.4615,-4.4615,-4.4615,-4.4615,-4.4615,-4.4615,-4.4615,-4.4615,-4.4615,-4.4615,-4.4615,-4.4615,-4.4615,-4.4615,-4.4615,-4.4615,-4.4615,-4.4615,-4.4615,-4.4615,-4.4615,-4.4615,-4.4615,-4.4615,-4.4615,-4.4615,-4.4615,-4.4615,-4.4615,-4.4615,-4.4615,-4.4598,-4.4709,-4.4748,-4.4776,-4.4886,-4.4978,-4.5113,-4.5113,-4.522,-4.5371,-4.5371,-4.5371,-4.5397,-4.5397,-4.5344,-4.5274,-4.5371,-4.5327,-4.5274,-4.5371,-4.5397,-4.5397,-4.5397,-4.5397,-4.5397,-4.5397,-4.5397,-4.5397,-4.5397,-4.5397,-4.5371,-4.5274,-4.5247,-4.5194,-4.5059,-4.494,-4.4831,-4.4803,-4.4682,-4.4615,-4.4615,-4.4615,-4.4615,-4.4615,-4.4615,-4.4316,-4.3724,-4.369,-4.3335,-4.2574,-4.2557,-4.2185,-4.1457,-4.1457,-4.0848,-3.9746,-4.0776,-4.0685,-3.56,-3.618,-3.6981,-3.7719,-3.8413,0.0,-3.9926,-4.0096,0.0,-4.0984,0.0,0.0,0.0,-4.2878,-4.3673,-4.4479,-4.4615,-4.4615,-4.4615,0.0,-4.4615,-4.4615,-4.4615,-4.4615,-4.4615,-4.4615,-4.4615,-4.4615,-4.4615,-4.4615,-4.4615,-4.4615,-4.4615,-4.4615,-4.4615,-4.4615,-4.4615,-4.4615,-4.4615,-4.4615,-4.4615,-4.4615,-4.4615,-4.4615,-4.4615,-4.4615,-4.4615,-4.4615,-4.4615,-4.4615,-4.4615,-4.4615,-4.4615,-4.4615,-4.4615,-4.4598,-4.4598,-4.4615,-4.4643,-4.4709,-4.4831,-4.4831,-4.5005,-4.5203,-4.5203,-4.53,-4.5397,-4.5397,-4.5397,-4.5397,-4.5397,-4.5397,-4.5397,-4.5397,-4.5397,-4.5397,-4.5397,-4.5397,-4.5397,-4.5397,-4.5397,-4.5397,-4.5397,-4.5397,-4.5397,-4.5397,-4.5397,-4.5344,-4.5203,-4.5059,-4.4923,-4.4803,-4.4682,-4.4615,-4.4615,-4.4615,-4.4615,-4.4615,-4.4615,-4.4581,-4.453,-4.4513,-4.413,-4.3325,-4.3308,-4.2963,-4.2219,-4.2219,-4.19,-4.1238,-4.1344,-4.1049,-3.6214,-3.6891,-3.7652,-3.8396,-3.9478,0.0,0.0,-4.0781,-4.0984,-4.1728,-4.2252,0.0,0.0,0.0,-4.4231,-4.4564,-4.4615,-4.4615,-4.4615,-4.4615,-4.4615,-4.4615,-4.4615,-4.4615,-4.4615,-4.4615,-4.4615,-4.4615,-4.4615,-4.4615,-4.4615,-4.4615,-4.4615,-4.4615,-4.4615,-4.4615,-4.4615,-4.4615,-4.4615,-4.4615,-4.4615,-4.4615,-4.4615,-4.4615,-4.4615,-4.4615,-4.4615,-4.4615,-4.4615,-4.4615,-4.4615,-4.4615,-4.4615,-4.4615,-4.4615,-4.4615,-4.4615,-4.4615,-4.4615,-4.4682,-4.4803,-4.4803,-4.4978,-4.5203,-4.5203,-4.53,-4.5397,-4.5397,-4.5397,-4.5397,-4.5397,-4.5397,-4.5397,-4.5397,-4.5397,-4.5397,-4.5397,-4.5397,-4.5397,-4.5397,-4.5397,-4.5397,-4.5397,-4.5397,-4.5397,-4.5397,-4.5397,-4.5371,-4.522,-4.5086,-4.4951,-4.4803,-4.4682,-4.4615,-4.4615,-4.4615,-4.4615,-4.4615,-4.4615,-4.4615,-4.4615,-4.4615,-4.4479,-4.4147,-4.4147,-4.3758,-4.2997,-4.2997,-4.2635,-4.1963,-4.2416,-4.2523,-3.6367,-3.7195,-3.8091,-3.8819,0.0,0.0,-4.1491,-4.1542,-4.1762,-4.2489,-4.325,-4.3944,-4.4513,0.0,0.0,0.0,-4.4615,-4.4615,-4.4615,-4.4615,-4.4615,-4.4615,-4.4615,-4.4615,-4.4615,-4.4615,-4.4615,-4.4615,-4.4615,-4.4615,-4.4615,-4.4615,-4.4615,-4.4615,-4.4615,-4.4615,-4.4615,-4.4615,-4.4615,-4.4615,-4.4615,-4.4615,-4.4615,-4.4615,-4.4615,-4.4615,-4.4615,-4.4615,-4.4615,-4.4615,-4.4615,-4.4615,-4.4615,-4.4615,-4.4615,-4.4615,-4.4615,-4.4615,-4.4615,-4.4654,-4.4737,-4.4737,-4.4913,-4.514,-4.5086,-4.522,-4.5397,-4.5344,-4.5371,-4.5397,-4.5397,-4.5397,-4.5397,-4.5397,-4.5397,-4.5397,-4.5397,-4.5397,-4.5397,-4.5397,-4.5397,-4.5397,-4.5397,-4.5397,-4.5397,-4.5397,-4.5397,-4.5344,-4.5167,-4.5059,-4.494,-4.4765,-4.4654,-4.4615,-4.4615,-4.4615,-4.4615,-4.4615,-4.4615,-4.4615,-4.4615,-4.4615,-4.4615,-4.4615,-4.4615,-4.4344,-4.3792,-4.3792,-4.3521,-4.3031,-4.3538,-4.3792,-3.5947,-3.6939,-3.8051,-3.8819,0.0,0.0,-4.2117,-4.2286,-4.2523,-4.324,-4.4045,-4.4615,-4.4615,-4.4615,0.0,-4.4615,-4.4615,-4.4615,-4.4615,-4.4615,-4.4615,-4.4615,-4.4615,-4.4615,-4.4615,-4.4615,-4.4615,-4.4615,-4.4615,-4.4615,-4.4615,-4.4615,-4.4615,-4.4615,-4.4615,-4.4615,-4.4615,-4.4615,-4.4615,-4.4615,-4.4615,-4.4615,-4.4615,-4.4615,-4.4615,-4.4615,-4.4615,-4.4615,-4.4615,-4.4615,-4.4615,-4.4615,-4.4615,-4.4615,-4.4615,-4.4615,-4.4615,-4.4615,-4.4615,-4.4615,-4.4615,-4.4615,-4.4776,-4.4978,-4.4831,-4.5076,-4.5371,-4.5247,-4.53,-4.5397,-4.5397,-4.5397,-4.5397,-4.5397,-4.5397,-4.5397,-4.5397,-4.5397,-4.5397,-4.5397,-4.5397,-4.5397,-4.5397,-4.5397,-4.5397,-4.5397,-4.5397,-4.5318,-4.5032,-4.5005,-4.4886,-4.4626,-4.4615,-4.4615,-4.4615,-4.4615,-4.4615,-4.4615,-4.4615,-4.4615,-4.4615,-4.4615,-4.4615,-4.4615,-4.4615,-4.4615,-4.4615,-4.4615,-4.4615,-4.4615,-4.4615,-4.4615,-3.6562,-3.7012,-3.7678,-3.9353,0.0,0.0,0.0,-4.2377,0.0,0.0,-4.4418,-4.4615,-4.4615,-4.4615,0.0,-4.4615,-4.4615,-4.4615,-4.4615,-4.4615,-4.4615,-4.4615,-4.4615,-4.4615,-4.4615,-4.4615,-4.4615,-4.4615,-4.4615,-4.4615,-4.4615,-4.4615,-4.4615,-4.4615,-4.4615,-4.4615,-4.4615,-4.4615,-4.4615,-4.4615,-4.4615,-4.4615,-4.4615,-4.4615,-4.4615,-4.4615,-4.4615,-4.4615,-4.4615,-4.4615,-4.4615,-4.4615,-4.4615,-4.4615,-4.4615,-4.4615,-4.4615,-4.4615,-4.4615,-4.4615,-4.4615,-4.4615,-4.4737,-4.4886,-4.4923,-4.5086,-4.5274,-4.5344,-4.5371,-4.5397,-4.5397,-4.5397,-4.5397,-4.5397,-4.5397,-4.5397,-4.5397,-4.5397,-4.5397,-4.5397,-4.5397,-4.5397,-4.5397,-4.5397,-4.5397,-4.5397,-4.53,-4.5167,-4.4886,-4.4793,-4.4682,-4.4598,-4.4615,-4.4615,-4.4615,-4.4615,-4.4615,-4.4615,-4.4615,-4.4615,-4.4615,-4.4615,-4.4615,-4.4615,-4.4615,-4.4615,-4.4615,-4.4615,-4.4615,-4.4615,-4.4615,-4.4615,-3.6156,-3.6548,0.0,-3.9601,-4.058,-4.1222,-4.1985,0.0,0.0,0.0,-4.4615,-4.4615,-4.4615,-4.4615,0.0,-4.4615,-4.4615,-4.4615,-4.4615,-4.4615,-4.4615,-4.4615,-4.4615,-4.4615,-4.4615,-4.4615,-4.4615,-4.4615,-4.4615,-4.4615,-4.4615,-4.4615,-4.4615,-4.4615,-4.4615,-4.4615,-4.4615,-4.4615,-4.4615,-4.4615,-4.4615,-4.4615,-4.4615,-4.4615,-4.4615,-4.4615,-4.4615,-4.4615,-4.4615,-4.4615,-4.4615,-4.4615,-4.4615,-4.4615,-4.4615,-4.4615,-4.4615,-4.4615,-4.4615,-4.4615,-4.4615,-4.4615,-4.4682,-4.4803,-4.4831,-4.5005,-4.522,-4.522,-4.5318,-4.5397,-4.5397,-4.5397,-4.5397,-4.5397,-4.5397,-4.5397,-4.5397,-4.5397,-4.5397,-4.5397,-4.5397,-4.5371,-4.5344,-4.5353,-4.5371,-4.5344,-4.522,-4.5032,-4.4831,-4.4682,-4.4615,-4.4615,-4.4615,-4.4615,-4.4615,-4.4615,-4.4615,-4.4615,-4.4615,-4.4615,-4.4615,-4.4615,-4.4615,-4.4615,-4.4615,-4.4615,-4.4615,-4.4615,-4.4615,-4.4615,-4.4615,-4.4615,-3.5161,-3.5794,-3.6853,-3.9545,-4.0336,0.0,-4.2944,-4.3453,-4.3706,-4.444,0.0,-4.4615,-4.4615,-4.4615,-4.4615,-4.4615,-4.4615,-4.4615,-4.4615,-4.4615,-4.4615,-4.4615,-4.4615,-4.4615,-4.4615,-4.4615,-4.4615,-4.4615,-4.4615,-4.4615,-4.4615,-4.4615,-4.4615,-4.4615,-4.4615,-4.4615,-4.4615,-4.4615,-4.4615,-4.4615,-4.4615,-4.4615,-4.4615,-4.4615,-4.4615,-4.4615,-4.4615,-4.4615,-4.4615,-4.4615,-4.4615,-4.4615,-4.4615,-4.4615,-4.4615,-4.4615,-4.4615,-4.4615,-4.4615,-4.4615,-4.4615,-4.4615,-4.4682,-4.4748,-4.4654,-4.4886,-4.514,-4.5032,-4.5167,-4.5371,-4.5371,-4.5397,-4.5397,-4.5397,-4.5397,-4.5397,-4.5397,-4.5397,-4.5397,-4.5397,-4.5397,-4.5371,-4.5247,-4.53,-4.5344,-4.5194,-4.5059,-4.4923,-4.4803,-4.4682,-4.4615,-4.4615,-4.4615,-4.4615,-4.4615,-4.4615,-4.4615,-4.4615,-4.4615,-4.4615,-4.4615,-4.4615,-4.4615,-4.4615,-4.4615,-4.4615,-4.4615,-4.4615,-4.4615,-4.4615,-4.4615,-4.4615,-3.5288,-3.5839,0.0,-3.8971,-4.0361,-4.1437,-4.2481,-4.3106,-4.3706,-4.444,-4.4615,-4.4615,-4.4615,-4.4615,-4.4615,-4.4615,-4.4615,-4.4615,-4.4615,-4.4615,-4.4615,-4.4615,-4.4615,-4.4615,-4.4615,-4.4615,-4.4615,-4.4615,-4.4615,-4.4615,-4.4615,-4.4615,-4.4615,-4.4615,-4.4615,-4.4615,-4.4615,-4.4615,-4.4615,-4.4615,-4.4615,-4.4615,-4.4615,-4.4615,-4.4615,-4.4615,-4.4615,-4.4615,-4.4615,-4.4615,-4.4615,-4.4615,-4.4615,-4.4615,-4.4615,-4.4615,-4.4615,-4.4615,-4.4615,-4.4615,-4.4615,-4.4615,-4.4626,-4.4654,-4.472,-4.4803,-4.4913,-4.4978,-4.5113,-4.5247,-4.5247,-4.53,-4.5397,-4.5397,-4.5397,-4.5397,-4.5397,-4.5397,-4.5397,-4.5397,-4.5397,-4.5397,-4.5371,-4.53,-4.5167,-4.4913,-4.4858,-4.4776,-4.4654,-4.4626,-4.4615,-4.4615,-4.4615,-4.4615,-4.4615,-4.4615,-4.4615,-4.4615,-4.4615,-4.4615,-4.4615,-4.4615,-4.4615,-4.4615,-4.4615,-4.4615,-4.4615,-4.4615,-4.4615,-4.4615,-4.4615,-4.4615,-3.4754,0.0,0.0,-3.8321,0.0,-4.1165,-4.1853,-4.23,-4.2738,-4.3439,-4.4121,-4.4615,-4.4615,-4.4615,-4.4615,-4.4615,-4.4615,-4.4615,-4.4615,-4.4615,-4.4615,-4.4615,-4.4615,-4.4615,-4.4615,-4.4615,-4.4615,-4.4615,-4.4615,-4.4615,-4.4615,-4.4615,-4.4615,-4.4615,-4.4615,-4.4615,-4.4615,-4.4615,-4.4615,-4.4615,-4.4615,-4.4615,-4.4615,-4.4615,-4.4615,-4.4615,-4.4615,-4.4615,-4.4615,-4.4615,-4.4615,-4.4615,-4.4615,-4.4615,-4.4615,-4.4615,-4.4615,-4.4615,-4.4615,-4.4615,-4.4615,-4.4615,-4.4615,-4.4598,-4.4682,-4.4765,-4.4803,-4.4886,-4.5059,-4.5203,-4.5203,-4.53,-4.5397,-4.5397,-4.5397,-4.5397,-4.5397,-4.5397,-4.5397,-4.5397,-4.5397,-4.5371,-4.5318,-4.5194,-4.5059,-4.4913,-4.4831,-4.4765,-4.4615,-4.4615,-4.4615,-4.4615,-4.4615,-4.4615,-4.4615,-4.4615,-4.4615,-4.4615,-4.4615,-4.4615,-4.4615,-4.4615,-4.4615,-4.4615,-4.4615,-4.4615,-4.4615,-4.4615,-4.4615,-4.4615,-4.4615,-4.4615,-3.415,0.0,-3.5598,-3.7923,-3.9495,0.0,-4.1334,-4.1591,-4.1836,-4.2395,-4.3515,-4.4412,-4.4412,-4.4514,-4.4615,-4.4615,-4.4615,-4.4615,-4.4615,-4.4615,-4.4615,-4.4615,-4.4615,-4.4615,-4.4615,-4.4615,-4.4615,-4.4615,-4.4615,-4.4615,-4.4615,-4.4615,-4.4615,-4.4615,-4.4615,-4.4615,-4.4615,-4.4615,-4.4615,-4.4615,-4.4615,-4.4615,-4.4615,-4.4615,-4.4615,-4.4615,-4.4615,-4.4615,-4.4615,-4.4615,-4.4615,-4.4615,-4.4615,-4.4615,-4.4615,-4.4615,-4.4615,-4.4615,-4.4615,-4.4615,-4.4615,-4.4615,-4.4615,-4.4615,-4.4615,-4.4682,-4.4765,-4.4765,-4.4951,-4.5167,-4.5167,-4.5274,-4.5397,-4.5397,-4.5397,-4.5397,-4.5397,-4.5397,-4.5397,-4.5397,-4.5397,-4.5371,-4.522,-4.5086,-4.4978,-4.4951,-4.4858,-4.4737,-4.4598,-4.4615,-4.4615,-4.4615,-4.4615,-4.4615,-4.4615,-4.4615,-4.4615,-4.4615,-4.4615,-4.4615,-4.4615,-4.4615,-4.4615,-4.4615,-4.4615,-4.4615,-4.4615,-4.4615,-4.4615,-4.4615,-4.4615,-4.4615,-3.4289,0.0,-3.7323,0.0,-3.9495,-4.0672,0.0,0.0,-4.2395,0.0,-4.3106,-4.3647,-4.3647,-4.4179,-4.4615,-4.4615,-4.4615,-4.4615,-4.4615,-4.4615,-4.4615,-4.4615,-4.4615,-4.4615,-4.4615,-4.4615,-4.4615,-4.4615,-4.4615,-4.4615,-4.4615,-4.4615,-4.4615,-4.4615,-4.4615,-4.4615,-4.4615,-4.4615,-4.4615,-4.4615,-4.4615,-4.4615,-4.4615,-4.4615,-4.4615,-4.4615,-4.4615,-4.4615,-4.4615,-4.4615,-4.4615,-4.4615,-4.4615,-4.4615,-4.4615,-4.4615,-4.4615,-4.4615,-4.4615,-4.4615,-4.4615,-4.4615,-4.4615,-4.4615,-4.4615,-4.4598,-4.4643,-4.4643,-4.4831,-4.5032,-4.5032,-4.5194,-4.5397,-4.5397,-4.5397,-4.5397,-4.5397,-4.5397,-4.5397,-4.5397,-4.5397,-4.5371,-4.522,-4.5086,-4.4951,-4.4831,-4.4709,-4.4626,-4.4615,-4.4615,-4.4615,-4.4615,-4.4615,-4.4615,-4.4615,-4.4615,-4.4615,-4.4615,-4.4615,-4.4615,-4.4615,-4.4615,-4.4615,-4.4615,-4.4615,-4.4615,-4.4615,-4.4615,-4.4615,-4.4615,-4.4615,-4.4615,-3.4212,-3.5676,-3.7184,0.0,-3.8938,-3.9648,-4.0689,-4.1176,-4.136,-4.136,-4.1917,-4.2614,-4.3347,-4.4105,-4.4615,-4.4615,-4.4615,-4.4615,-4.4615,-4.4615,-4.4615,-4.4615,-4.4615,-4.4615,-4.4615,-4.4615,-4.4615,-4.4615,-4.4615,-4.4615,-4.4615,-4.4615,-4.4615,-4.4615,-4.4615,-4.4615,-4.4615,-4.4615,-4.4615,-4.4615,-4.4615,-4.4615,-4.4615,-4.4615,-4.4615,-4.4615,-4.4615,-4.4615,-4.4615,-4.4615,-4.4615,-4.4615,-4.4615,-4.4615,-4.4615,-4.4615,-4.4615,-4.4615,-4.4615,-4.4615,-4.4615,-4.4615,-4.4615,-4.4615,-4.4615,-4.4615,-4.4615,-4.4615,-4.4737,-4.4913,-4.4978,-4.5103,-4.5194,-4.5274,-4.5274,-4.5274,-4.5274,-4.5344,-4.5397,-4.5397,-4.5397,-4.5371,-4.53,-4.5194,-4.5059,-4.494,-4.4803,-4.4682,-4.4598,-4.4615,-4.4615,-4.4615,-4.4615,-4.4615,-4.4615,-4.4615,-4.4615,-4.4615,-4.4615,-4.4615,-4.4615,-4.4615,-4.4615,-4.4615,-4.4615,-4.4615,-4.4615,-4.4615,-4.4615,-4.4615,-4.4615,-4.4615,0.0,0.0,-3.6769,-3.7954,-3.8385,-3.8849,0.0,0.0,-4.0558,0.0,-4.1142,-4.1868,-4.3045,-4.3839,-4.4367,-4.457,-4.4615,-4.4615,-4.4615,-4.4615,-4.4615,-4.4615,-4.4615,-4.4615,-4.4615,-4.4615,-4.4615,-4.4615,-4.4615,-4.4615,-4.4615,-4.4615,-4.4615,-4.4615,-4.4615,-4.4615,-4.4615,-4.4615,-4.4615,-4.4615,-4.4615,-4.4615,-4.4615,-4.4615,-4.4615,-4.4615,-4.4615,-4.4615,-4.4615,-4.4615,-4.4615,-4.4615,-4.4615,-4.4615,-4.4615,-4.4615,-4.4615,-4.4615,-4.4615,-4.4615,-4.4615,-4.4615,-4.4615,-4.4615,-4.4615,-4.4615,-4.4615,-4.4615,-4.4709,-4.4831,-4.4923,-4.4978,-4.5032,-4.514,-4.5167,-4.5167,-4.5247,-4.5344,-4.5397,-4.5371,-4.5344,-4.5344,-4.5318,-4.5194,-4.5059,-4.4951,-4.4831,-4.4709,-4.4598,-4.4615,-4.4615,-4.4615,-4.4615,-4.4615,-4.4615,-4.4615,-4.4615,-4.4615,-4.4615,-4.4615,-4.4615,-4.4615,-4.4615,-4.4615,-4.4615,-4.4615,-4.4615,-4.4615,-4.4615,-4.4615,-4.4615,-4.4615,0.0,-3.5491,0.0,-3.7384,-3.8031,-3.8841,0.0,0.0,-4.0681,-4.1343,-4.1492,-4.1706,-4.2426,-4.3106,-4.3781,-4.4468,-4.4615,-4.4615,-4.4615,-4.4615,-4.4615,-4.4615,-4.4615,-4.4615,-4.4615,-4.4615,-4.4615,-4.4615,-4.4615,-4.4615,-4.4615,-4.4615,-4.4615,-4.4615,-4.4615,-4.4615,-4.4615,-4.4615,-4.4615,-4.4615,-4.4615,-4.4615,-4.4615,-4.4615,-4.4615,-4.4615,-4.4615,-4.4615,-4.4615,-4.4615,-4.4615,-4.4615,-4.4615,-4.4615,-4.4615,-4.4615,-4.4615,-4.4615,-4.4615,-4.4615,-4.4615,-4.4615,-4.4615,-4.4615,-4.4615,-4.4615,-4.4615,-4.4615,-4.4709,-4.4803,-4.4803,-4.4896,-4.5005,-4.5005,-4.5005,-4.5086,-4.5344,-4.5397,-4.5371,-4.5247,-4.5203,-4.5167,-4.5032,-4.4913,-4.4831,-4.4803,-4.4709,-4.4598,-4.4615,-4.4615,-4.4615,-4.4615,-4.4615,-4.4615,-4.4615,-4.4615,-4.4615,-4.4615,-4.4615,-4.4615,-4.4615,-4.4615,-4.4615,-4.4615,-4.4615,-4.4615,-4.4615,-4.4615,-4.4615,-4.4615,-4.4615,-4.4615,0.0,0.0,0.0,-3.7291,-3.8,-3.8743,-3.9672,-4.0201,-4.0558,-4.0802,-4.087,-4.1176,-4.23,-4.3045,-4.3735,-4.4468,-4.4615,-4.4615,-4.4615,-4.4615,-4.4615,-4.4615,-4.4615,-4.4615,-4.4615,-4.4615,-4.4615,-4.4615,-4.4615,-4.4615,-4.4615,-4.4615,-4.4615,-4.4615,-4.4615,-4.4615,-4.4615,-4.4615,-4.4615,-4.4615,-4.4615,-4.4615,-4.4615,-4.4615,-4.4615,-4.4615,-4.4615,-4.4615,-4.4615,-4.4615,-4.4615,-4.4615,-4.4615,-4.4615,-4.4615,-4.4615,-4.4615,-4.4615,-4.4615,-4.4615,-4.4615,-4.4615,-4.4615,-4.4615,-4.4615,-4.4615,-4.4615,-4.4615,-4.4626,-4.4682,-4.4776,-4.4776,-4.4748,-4.4858,-4.4886,-4.4913,-4.5086,-4.514,-4.514,-4.5177,-4.514,-4.5086,-4.5113,-4.5005,-4.4913,-4.4803,-4.4748,-4.4709,-4.4598,-4.4615,-4.4615,-4.4615,-4.4615,-4.4615,-4.4615,-4.4615,-4.4615,-4.4615,-4.4615,-4.4615,-4.4615,-4.4615,-4.4615,-4.4615,-4.4615,-4.4615,-4.4615,-4.4615,-4.4615,-4.4615,-4.4615,-4.4615,-3.4727,0.0,0.0,0.0,0.0,-3.8354,-3.9031,-3.9674,-4.0213,-4.0443,-4.0489,-4.0836,-4.1949,-4.252,-4.3213,-4.4412,-4.4615,-4.4615,-4.4615,-4.4615,-4.4615,-4.4615,-4.4615,-4.4615,-4.4615,-4.4615,-4.4615,-4.4615,-4.4615,0.0,-4.4615,-4.4615,-4.4615,-4.4615,-4.4615,-4.4615,-4.4615,-4.4615,-4.4615,-4.4615,-4.4615,-4.4615,-4.4615,-4.4615,-4.4615,-4.4615,-4.4615,-4.4615,-4.4615,-4.4615,-4.4615,-4.4615,-4.4615,-4.4615,-4.4615,-4.4615,-4.4615,-4.4615,-4.4615,-4.4615,-4.4615,-4.4615,-4.4615,-4.4615,-4.4615,-4.4615,-4.4615,-4.4615,-4.4615,-4.4666,-4.5015,-4.5213,-4.5292,-4.5151,-4.5111,-4.5071,-4.4909,-4.494,-4.5005,-4.5059,-4.4978,-4.4968,-4.4978,-4.4923,-4.4831,-4.4765,-4.472,-4.4709,-4.4598,-4.4615,-4.4615,-4.4615,-4.4615,-4.4615,-4.4615,-4.4615,-4.4615,-4.4615,-4.4615,-4.4615,-4.4615,-4.4615,-4.4615,-4.4615,-4.4615,-4.4615,-4.4615,-4.4615,-4.4615,-4.4615,-4.4615,-4.4615,0.0,0.0,0.0,0.0,0.0,0.0,-3.8354,0.0,-3.9674,-4.0351,-4.0489,-4.0715,-4.1376,-4.1492,-4.2189,-4.4224,-4.457,-4.457,-4.4615,-4.4615,-4.4615,-4.4615,-4.4615,-4.4615,-4.4615,-4.4615,-4.4615,-4.4615,-4.4615,-4.4615,-4.4615,-4.4615,-4.4615,-4.4615,-4.4615,-4.4615,-4.4615,-4.4615,-4.4615,-4.4615,-4.4615,-4.4615,-4.4615,-4.4615,-4.4615,-4.4615,-4.4615,-4.4615,-4.4615,-4.4615,-4.4615,-4.4615,-4.4615,-4.4615,-4.4615,-4.4615,-4.4615,-4.4615,-4.4615,-4.4615,-4.4615,-4.4615,-4.4615,-4.4615,-4.4615,-4.4615,-4.4615,-4.4615,-4.4632,-4.4818,-4.5551,-4.6261,-4.6616,-4.5906,-4.5737,-4.5534,-4.4835,-4.4854,-4.4985,-4.4831,-4.482,-4.4748,-4.4626,-4.4598,-4.4615,-4.4615,-4.4615,-4.4615,-4.4615,-4.4615,-4.4615,-4.4615,-4.4615,-4.4615,-4.4615,-4.4615,-4.4615,-4.4615,-4.4615,-4.4615,-4.4615,-4.4615,-4.4615,-4.4615,-4.4615,-4.4615,-4.4615,-4.4615,-4.4615,-4.4615,-4.4615,-4.4615,-3.5201,0.0,0.0,0.0,0.0,0.0,0.0,0.0,-3.9674,-4.0351,-4.0489,-4.0715,-4.1376,-4.1492,-4.1997,-4.3558,-4.381,-4.3972,-4.4542,-4.4615,-4.4615,-4.4615,-4.4615,-4.4615,-4.4615,-4.4615,-4.4615,0.0,-4.4615,-4.4615,-4.4615,-4.4615,-4.4615,-4.4615,-4.4615,-4.4615,-4.4615,-4.4615,-4.4615,-4.4615,-4.4615,-4.4615,-4.4615,-4.4615,-4.4615,-4.4615,-4.4615,-4.4615,-4.4615,-4.4615,-4.4615,-4.4615,-4.4615,-4.4615,-4.4615,-4.4615,-4.4615,-4.4615,-4.4615,-4.4615,-4.4615,-4.4615,-4.4615,-4.4615,-4.4615,-4.4615,-4.4615,-4.4615,-4.4976,-4.5568,-4.6295,-4.665,-4.6735,-4.6532,-4.6498,-4.643,-4.6227,-4.5811,-4.5371,-4.4895,-4.4737,-4.4682,-4.472,-4.4654,-4.4615,-4.4615,-4.4615,-4.4615,-4.4615,-4.4615,-4.4615,-4.4615,-4.4615,-4.4615,-4.4615,-4.4615,-4.4615,-4.4615,-4.4615,-4.4615,-4.4615,-4.4615,-4.4615,-4.4615,-4.4615,-4.4615,-4.4615,-4.4615,-4.4615,-4.4615,-4.4615,-4.4615,0.0,0.0,0.0,0.0,0.0,0.0,-3.8161,-3.8731,-3.9269,-4.029,-4.0489,-4.0612,-4.1024,-4.1091,-4.1426,-4.2489,-4.2676,-4.3122,-4.4412,-4.4615,-4.4615,-4.4615,-4.4615,-4.4615,-4.4615,-4.4615,-4.4615,-4.4615,-4.4615,-4.4615,-4.4615,-4.4615,-4.4615,-4.4615,-4.4615,-4.4615,-4.4615,-4.4615,-4.4615,-4.4615,-4.4615,-4.4615,-4.4615,-4.4615,-4.4615,-4.4615,-4.4615,-4.4615,-4.4615,-4.4615,-4.4615,-4.4615,-4.4615,-4.4615,-4.4615,-4.4615,-4.4615,-4.4615,-4.4615,-4.4615,-4.4615,-4.4615,-4.4615,-4.4615,-4.4615,-4.4615,-4.4666,-4.4959,-4.5805,-4.6735,-4.7158,-4.7496,-4.7631,-4.7327,-4.7259,-4.7175,-4.6853,-4.6464,-4.5969,-4.5292,-4.4874,-4.4626,-4.4709,-4.4654,-4.4615,-4.4615,-4.4615,-4.4615,-4.4615,-4.4615,-4.4615,-4.4615,-4.4615,-4.4615,-4.4615,-4.4615,-4.4615,-4.4615,-4.4615,-4.4615,-4.4615,-4.4615,-4.4615,-4.4615,-4.4615,-4.4615,-4.4615,-4.4615,-4.4615,-4.4615,-4.4615,-4.4615,0.0,0.0,0.0,0.0,0.0,0.0,-3.8091,-3.8399,-3.88,-4.0194,-4.0489,-4.0489,-4.0489,-4.0489,-4.0715,-4.1393,-4.1558,-4.2285,-4.4224,-4.4485,-4.4514,-4.4598,-4.4615,-4.4615,-4.4615,-4.4615,-4.4615,-4.4615,-4.4615,-4.4615,-4.4615,-4.4615,-4.4615,-4.4615,-4.4615,-4.4615,-4.4615,-4.4615,-4.4615,-4.4615,-4.4615,-4.4615,-4.4615,-4.4615,-4.4615,-4.4615,-4.4615,-4.4615,-4.4615,-4.4615,-4.4615,-4.4615,-4.4615,-4.4615,-4.4615,-4.4615,-4.4615,-4.4615,-4.4615,-4.4615,-4.4615,-4.4615,-4.4615,-4.4615,-4.4615,-4.4666,-4.4902,-4.572,-4.6904,-4.7906,-4.799,-4.8528,-4.8832,-4.8189,-4.8007,-4.7851,-4.7192,-4.6972,-4.6718,-4.6075,-4.528,-4.4733,-4.4733,-4.4649,-4.4615,-4.4615,-4.4615,-4.4615,-4.4615,-4.4615,-4.4615,-4.4615,-4.4615,-4.4615,-4.4615,-4.4615,-4.4615,-4.4615,-4.4615,-4.4615,-4.4615,-4.4615,-4.4615,-4.4615,-4.4615,-4.4615,-4.4615,-4.4615,-4.4615,-4.4615,-4.4615,-4.4615,0.0,0.0,0.0,0.0,0.0,0.0,-3.8806,-3.9023,-3.9302,-4.0286,-4.0489,-4.0489,-4.0489,-4.0489,-4.0715,-4.1393,-4.1949,-4.2645,-4.3588,-4.3706,-4.3943,-4.4542,-4.4615,-4.4615,-4.4615,-4.4615,-4.4615,-4.4615,-4.4615,-4.4615,-4.4615,-4.4615,-4.4615,-4.4615,-4.4615,-4.4615,-4.4615,-4.4615,-4.4615,-4.4615,-4.4615,-4.4615,-4.4615,-4.4615,-4.4615,-4.4615,-4.4615,-4.4615,-4.4615,-4.4615,-4.4615,-4.4615,-4.4615,-4.4615,-4.4615,-4.4615,-4.4615,-4.4615,-4.4615,-4.4615,-4.4615,-4.4615,-4.4615,-4.4615,-4.4615,-4.4993,-4.5771,-4.7107,-4.7669,-4.8054,-4.8646,-4.89,-4.8968,-4.8832,-4.8798,-4.8748,-4.8612,-4.8105,-4.7618,-4.7483,-4.6413,-4.5483,-4.5483,-4.4976,-4.4615,-4.4615,-4.4615,-4.4615,-4.4615,-4.4615,-4.4615,-4.4615,-4.4615,-4.4615,-4.4615,-4.4615,-4.4615,-4.4615,-4.4615,-4.4615,-4.4615,-4.4615,-4.4615,-4.4615,-4.4615,-4.4615,-4.4615,-4.4615,-4.4615,-4.4615,-4.4615,-4.4615,0.0,0.0,0.0,-3.7643,0.0,0.0,0.0,-3.9086,-3.9387,-4.0317,-4.0489,-4.0489,-4.0489,-4.0489,-4.0612,-4.0972,-4.1542,-4.2109,-4.2458,-4.3393,-4.4179,-4.4542,-4.4615,-4.4615,-4.4615,-4.4615,-4.4615,-4.4615,-4.4215,-4.4181,-4.4581,-4.4615,-4.4615,-4.4615,-4.4615,-4.4615,-4.4615,-4.4615,-4.4615,-4.4615,-4.4615,-4.4615,-4.4615,-4.4615,-4.4615,-4.4615,-4.4615,-4.4615,-4.4615,-4.4615,-4.4615,-4.4615,-4.4615,-4.4615,-4.4615,-4.4615,-4.4615,-4.4615,-4.4615,-4.4615,-4.4615,-4.4615,-4.4615,-4.4682,-4.5026,-4.5923,-4.6972,-4.7686,-4.8173,-4.8545,-4.89,-4.9001,-4.9001,-4.9001,-4.9001,-4.9001,-4.9001,-4.8714,-4.846,-4.846,-4.7564,-4.6566,-4.5838,-4.5382,-4.501,-4.4666,-4.4615,-4.4615,-4.4615,-4.4615,-4.4615,-4.4615,-4.4615,-4.4615,-4.4615,-4.4615,-4.4615,-4.4615,-4.4615,-4.4615,-4.4615,-4.4615,-4.4615,-4.4615,-4.4615,-4.4615,-4.4615,-4.4615,-4.4615,-4.4615,-4.4615,-4.4615,0.0,0.0,0.0,0.0,0.0,-3.7997,0.0,0.0,0.0,-4.0243,0.0,0.0,0.0,0.0,0.0,0.0,0.0,0.0,0.0,-4.2815,0.0,-4.4367,-4.4514,-4.4615,-4.4615,-4.4615,-4.4547,-4.4395,-4.391,-4.3859,-4.4333,-4.453,-4.4615,-4.4615,-4.4615,-4.4615,-4.4615,-4.4615,-4.4615,-4.4615,-4.4615,-4.4615,-4.4615,-4.4615,-4.4615,-4.4615,-4.4615,-4.4615,-4.4615,-4.4615,-4.4615,-4.4615,-4.4615,-4.4615,-4.4615,-4.4615,-4.4615,-4.4615,-4.4615,-4.4615,-4.4615,-4.4615,-4.4699,-4.4976,-4.5855,-4.6972,-4.7922,-4.8058,-4.8545,-4.9001,-4.9001,-4.9001,-4.9001,-4.9001,-4.9001,-4.9001,-4.9001,-4.9001,-4.9001,-4.9001,-4.8528,-4.7669,-4.6363,-4.6024,-4.5652,-4.4936,-4.4818,-4.4767,-4.4632,-4.4615,-4.4615,-4.4615,-4.4615,-4.4615,-4.4615,-4.4615,-4.4615,-4.4615,-4.4615,-4.4615,-4.4615,-4.4615,-4.4615,-4.4615,-4.4615,-4.4615,-4.4615,-4.4615,-4.4615,-4.4615,-4.4615,-4.4615,0.0,0.0,0.0,0.0,-3.9149,0.0,-3.9561,0.0,-3.9713,-4.0016,0.0,0.0,0.0,0.0,0.0,0.0,0.0,0.0,-3.909,-4.1094,-4.2953,-4.3542,-4.4207,-4.4615,-4.4615,-4.4615,-4.4282,-4.3606,-4.4113,-4.4181,-4.3589,-4.4198,-4.4615,-4.4615,-4.4615,-4.4615,-4.4615,-4.4615,-4.4615,-4.4615,-4.4615,-4.4615,-4.4615,-4.4615,-4.4615,-4.4615,-4.4615,-4.4615,-4.4615,-4.4615,-4.4615,-4.4615,-4.4615,-4.4615,-4.4615,-4.4615,-4.4615,-4.4615,-4.4615,-4.4615,-4.4615,-4.4615,-4.5026,-4.5838,-4.7242,-4.7753,-4.8054,-4.8697,-4.8934,-4.9001,-4.9001,-4.9001,-4.9001,-4.9001,-4.9001,-4.9001,-4.9001,-4.9001,-4.9001,-4.9001,-4.8934,-4.8612,-4.777,-4.7107,-4.6413,-4.5686,-4.5585,-4.5331,-4.4682,-4.4615,-4.4615,-4.4615,-4.4615,-4.4615,-4.4615,-4.4615,-4.4615,-4.4615,-4.4615,-4.4615,-4.4615,-4.4615,-4.4615,-4.4615,-4.4615,-4.4615,-4.4615,-4.4615,-4.4615,-4.4615,-4.4615,-4.4615,0.0,0.0,0.0,0.0,0.0,0.0,-3.9646,0.0,-3.9768,0.0,0.0,0.0,0.0,0.0,0.0,0.0,-4.0462,0.0,0.0,0.0,-4.3196,0.0,0.0,0.0,-4.4542,-4.4181,-4.3775,-4.3426,-4.3724,-4.3775,-4.3409,-4.4147,-4.4615,-4.4615,-4.4615,-4.4615,-4.4615,-4.4615,-4.4615,-4.4615,-4.4615,-4.4615,-4.4615,-4.4615,-4.4615,-4.4615,-4.4615,-4.4615,-4.4615,-4.4615,-4.4615,-4.4615,-4.4615,-4.4615,-4.4615,-4.4615,-4.4615,-4.4615,-4.4615,-4.4615,-4.4682,-4.5094,-4.5737,-4.6532,-4.7567,-4.8206,-4.8612,-4.8917,-4.9001,-4.9001,-4.9001,-4.9001,-4.9001,-4.9001,-4.9001,-4.9001,-4.9001,-4.9001,-4.9001,-4.9001,-4.9001,-4.89,-4.8595,-4.7936,-4.7192,-4.6447,-4.5974,-4.5602,-4.528,-4.484,-4.4615,-4.4615,-4.4615,-4.4615,-4.4615,-4.4615,-4.4615,-4.4615,-4.4615,-4.4615,-4.4615,-4.4615,-4.4615,-4.4615,-4.4615,-4.4615,-4.4615,-4.4615,-4.4615,-4.4615,-4.4615,-4.4615,-3.9388,0.0,0.0,0.0,0.0,0.0,0.0,0.0,0.0,0.0,0.0,0.0,0.0,0.0,0.0,0.0,0.0,-4.0836,0.0,-4.1405,0.0,0.0,0.0,0.0,0.0,-4.4062,-4.3656,-4.3409,-4.3606,-4.3639,-4.3409,-4.4147,-4.4615,-4.4615,-4.4615,-4.4615,-4.4615,-4.4615,-4.4615,-4.4615,-4.4615,-4.4615,-4.4615,-4.4615,-4.4615,-4.4615,-4.4615,-4.4615,-4.4615,-4.4615,-4.4615,-4.4615,-4.4615,-4.4615,-4.4615,-4.4615,-4.4615,-4.4615,-4.4615,-4.4733,-4.501,-4.5754,-4.6498,-4.7242,-4.7986,-4.8595,-4.9001,-4.9001,-4.9001,-4.9001,-4.9001,-4.9001,-4.9001,-4.9001,-4.9001,-4.9001,-4.9001,-4.9001,-4.9001,-4.9001,-4.9001,-4.9001,-4.9001,-4.8578,-4.797,-4.7208,-4.665,-4.6244,-4.6024,-4.5348,-4.4919,-4.4919,-4.4733,-4.4615,-4.4615,-4.4615,-4.4615,-4.4615,-4.4615,-4.4615,-4.4615,-4.4615,-4.4615,-4.4615,-4.4615,-4.4615,-4.4615,-4.4615,-4.4615,-4.4615,-4.4615,-4.4615,0.0,0.0,0.0,-3.9388,0.0,0.0,0.0,0.0,-3.9424,0.0,0.0,0.0,0.0,0.0,0.0,0.0,0.0,0.0,0.0,0.0,0.0,0.0,0.0,0.0,0.0,-4.4581,-4.4231,-4.3443,-4.4113,-4.4215,-4.3426,-4.4147,-4.4615,-4.4615,-4.4615,-4.4615,-4.4615,-4.4615,-4.4615,-4.4615,-4.4615,-4.4615,-4.4615,-4.4615,-4.4615,-4.4615,-4.4615,-4.4615,-4.4615,-4.4615,-4.4615,-4.4615,-4.4615,-4.4615,-4.4615,-4.4615,-4.4615,-4.4615,-4.4615,-4.506,-4.5788,-4.6515,-4.7259,-4.799,-4.8748,-4.8984,-4.9001,-4.9001,-4.9001,-4.9001,-4.9001,-4.9001,-4.9001,-4.9001,-4.9001,-4.9001,-4.9001,-4.9001,-4.9001,-4.9001,-4.9001,-4.9001,-4.9001,-4.8984,-4.8714,-4.7973,-4.7838,-4.7581,-4.6853,-4.6126,-4.5669,-4.5669,-4.501,-4.4615,-4.4615,-4.4615,-4.4615,-4.4615,-4.4615,-4.4615,-4.4615,-4.4615,-4.4615,-4.4615,-4.4615,-4.4615,-4.4615,-4.4615,-4.4615,-4.4615,-4.4615,-4.4615,0.0,0.0,-3.9388,-3.9388,0.0,0.0,0.0,0.0,0.0,0.0,0.0,0.0,0.0,0.0,0.0,0.0,0.0,0.0,0.0,0.0,0.0,0.0,0.0,0.0,0.0,0.0,-4.4265,-4.3443,-4.4147,-4.4231,-4.3426,-4.4147,-4.4615,-4.4615,-4.4615,-4.4615,-4.4615,-4.4615,-4.4615,-4.4615,-4.4615,-4.4615,-4.4615,-4.4615,-4.4615,-4.4615,-4.4615,-4.4615,-4.4615,-4.4615,-4.4615,-4.4615,-4.4615,-4.4615,-4.4615,-4.4615,-4.4615,-4.4682,-4.5162,-4.55,-4.5906,-4.7141,-4.7716,-4.8024,-4.8781,-4.9001,-4.9001,-4.9001,-4.9001,-4.9001,-4.9001,-4.9001,-4.9001,-4.9001,-4.9001,-4.9001,-4.9001,-4.9001,-4.9001,-4.9001,-4.9001,-4.9001,-4.9001,-4.9001,-4.8917,-4.868,-4.8193,-4.7804,-4.7564,-4.6887,-4.643,-4.643,-4.6194,-4.6041,-4.6041,-4.6041,-4.5838,-4.5348,-4.5331,-4.5094,-4.4632,-4.4615,-4.4852,-4.5314,-4.5331,-4.5568,-4.6041,-4.6041,-4.6041,-4.6041,-4.6041,-4.5546,-3.9388,-3.9388,0.0,-3.9388,-3.9388,0.0,-3.9388,0.0,-3.9388,0.0,0.0,0.0,0.0,0.0,0.0,0.0,0.0,0.0,0.0,-4.099,0.0,0.0,0.0,0.0,0.0,-4.444,-4.4395,-4.3876,-4.4327,-4.435,0.0,-4.4316,-4.4615,-4.4615,-4.4615,-4.4615,-4.4615,-4.4615,-4.4615,-4.4615,-4.4615,-4.4615,-4.4615,-4.4615,-4.4615,-4.4615,-4.4615,-4.4615,-4.4615,-4.4615,-4.4615,-4.4615,-4.4615,-4.4615,-4.4615,-4.4615,-4.4615,-4.4716,-4.5449,-4.5872,-4.6295,-4.753,-4.8075,-4.8392,-4.8866,-4.9001,-4.8951,-4.8697,-4.8798,-4.8951,-4.868,-4.8798,-4.9001,-4.9001,-4.9001,-4.9001,-4.9001,-4.9001,-4.9001,-4.9001,-4.9001,-4.9001,-4.9001,-4.9001,-4.9001,-4.9001,-4.8612,-4.8308,-4.8308,-4.7648,-4.7192,-4.7192,-4.6955,-4.6786,-4.6786,-4.6786,-4.6599,-4.6126,-4.6092,-4.5872,-4.541,-4.5393,-4.5602,-4.6075,-4.6092,-4.6329,-4.6786,-4.6786,-4.6786,-4.6786,-4.6786,-4.6278]},{"header":{"parameterUnit":"m.s-1","parameterCategory":1,"la1":30.6,"la2":29.2853,"lo1":-89.7004,"lo2":-87.6739,"dy":0.0162,"dx":0.0183,"nx":112,"ny":82,"refTime":"2023-03-19T18:00:00:Z","depth":0,"parameterNumber":3,"parameterNumberName":"V-component_of_WINDS"},"data":[0.0,0.0,0.0,0.0,0.0,0.0,0.0,0.0,0.0,0.0,0.0,0.0,0.0,0.0,0.0,0.0,0.0,0.0,0.0,0.0,0.0,0.0,0.0,0.0,0.0,0.0,0.0,0.0,0.0,0.0,0.0,0.0,0.0,0.0,0.0,0.0,0.0,0.0,0.0,0.0,0.0,0.0,0.0,0.0,0.0,0.0,0.0,0.0,0.0,0.0,0.0,0.0,0.0,0.0,0.0,0.0,0.0,0.0,0.0,0.0,0.0,0.0,0.0,0.0,0.0,0.0,0.0,0.0,0.0,0.0,0.0,0.0,0.0,0.0,0.0,0.0,0.0,0.0,0.0,0.0,0.0,0.0,0.0,0.0,0.0,0.0,0.0,0.0,0.0,0.0,1.6787,1.6943,1.7796,1.8326,1.8326,1.8304,1.787,1.6907,0.0,0.0,0.0,0.0,0.0,0.0,0.0,0.0,0.0,0.0,0.0,0.0,0.0,0.0,0.0,0.0,0.0,0.0,0.0,0.0,0.0,0.0,0.0,0.0,0.0,0.0,0.0,0.0,0.0,0.0,0.0,0.0,0.0,0.0,0.0,0.0,0.0,0.0,0.0,0.0,0.0,0.0,0.0,0.0,0.0,0.0,0.0,0.0,0.0,0.0,0.0,0.0,0.0,0.0,0.0,0.0,0.0,0.0,0.0,0.0,0.0,0.0,0.0,0.0,0.0,0.0,0.0,0.0,0.0,0.0,0.0,0.0,0.0,0.0,0.0,0.0,0.0,0.0,0.0,0.0,0.0,0.0,0.0,0.0,0.0,0.0,0.0,0.0,0.0,0.0,0.0,0.0,0.0,0.0,0.0,0.0,0.0,0.0,0.0,0.0,0.0,0.0,0.0,0.0,1.764,1.853,1.877,1.8867,1.8867,1.8714,1.8435,1.8002,0.0,0.0,0.0,0.0,0.0,0.0,0.0,0.0,0.0,0.0,0.0,0.0,0.0,0.0,0.0,0.0,0.0,0.0,0.0,0.0,0.0,0.0,0.0,0.0,0.0,0.0,0.0,0.0,0.0,0.0,0.0,0.0,0.0,0.0,0.0,0.0,0.0,0.0,0.0,0.0,0.0,0.0,0.0,0.0,0.0,0.0,0.0,0.0,0.0,0.0,0.0,0.0,0.0,0.0,0.0,0.0,0.0,0.0,0.0,0.0,0.0,0.0,0.0,0.0,0.0,0.0,0.0,0.0,0.0,0.0,0.0,0.0,0.0,0.0,0.0,0.0,0.0,0.0,0.0,0.0,0.0,0.0,0.0,0.0,0.0,0.0,0.0,0.0,0.0,0.0,0.0,0.0,0.0,0.0,0.0,0.0,0.0,0.0,0.0,0.0,0.0,0.0,0.0,1.7688,1.8133,1.8915,1.8987,1.8987,1.8987,1.8927,1.8661,1.8229,1.7484,0.0,0.0,0.0,0.0,0.0,0.0,0.0,0.0,0.0,0.0,0.0,0.0,0.0,0.0,0.0,0.0,0.0,0.0,0.0,0.0,0.0,0.0,0.0,0.0,0.0,0.0,0.0,0.0,0.0,0.0,0.0,0.0,0.0,0.0,0.0,0.0,0.0,0.0,0.0,0.0,0.0,0.0,0.0,0.0,0.0,0.0,0.0,0.0,0.0,0.0,0.0,0.0,0.0,0.0,0.0,0.0,0.0,0.0,0.0,0.0,0.0,0.0,0.0,0.0,0.0,0.0,0.0,0.0,0.0,0.0,0.0,0.0,0.0,0.0,0.0,0.0,0.0,0.0,0.0,0.0,0.0,0.0,0.0,0.0,0.0,0.0,0.0,0.0,0.0,0.0,0.0,0.0,0.0,0.0,0.0,0.0,0.0,0.0,0.0,0.0,0.0,0.0,1.8313,1.8542,1.8951,1.8987,1.8987,1.8987,1.8987,1.8819,1.841,1.8055,0.0,0.0,0.0,0.0,0.0,0.0,0.0,0.0,0.0,0.0,0.0,0.0,0.0,0.0,0.0,0.0,0.0,0.0,0.0,0.0,0.0,0.0,0.0,0.0,0.0,0.0,0.0,0.0,0.0,0.0,0.0,0.0,0.0,0.0,0.0,0.0,0.0,0.0,0.0,0.0,0.0,0.0,0.0,0.0,0.0,0.0,0.0,0.0,0.0,0.0,0.0,0.0,0.0,0.0,0.0,0.0,0.0,0.0,0.0,0.0,0.0,0.0,0.0,0.0,0.0,0.0,0.0,0.0,0.0,0.0,0.0,0.0,0.0,0.0,0.0,0.0,0.0,0.0,0.0,0.0,0.0,0.0,0.0,0.0,0.0,0.0,0.0,0.0,0.0,0.0,0.0,0.0,0.0,0.0,0.0,0.0,0.0,0.0,0.0,0.0,0.0,0.0,1.8626,1.8951,1.9013,1.8987,1.8987,1.8987,1.8987,1.8975,1.8939,1.907,0.0,0.0,0.0,0.0,0.0,0.0,0.0,0.0,0.0,0.0,0.0,0.0,0.0,0.0,0.0,0.0,0.0,0.0,0.0,0.0,0.0,0.0,0.0,0.0,0.0,0.0,0.0,0.0,0.0,0.0,0.0,0.0,0.0,0.0,0.0,0.0,0.0,0.0,0.0,0.0,0.0,0.0,0.0,0.0,0.0,0.0,0.0,0.0,0.0,0.0,0.0,0.0,0.0,0.0,0.0,0.0,0.0,0.0,0.0,0.0,0.0,0.0,0.0,0.0,0.0,0.0,0.0,0.0,0.0,0.0,0.0,0.0,0.0,0.0,0.0,0.0,0.0,0.0,0.0,0.0,0.0,0.0,0.0,0.0,0.0,0.0,0.0,0.0,0.0,0.0,0.0,0.0,0.0,0.0,0.0,0.0,0.0,0.0,0.0,0.0,0.0,0.0,1.8867,1.8987,0.0,1.8987,1.8987,1.8987,1.8987,1.8987,1.8987,0.0,0.0,0.0,0.0,0.0,0.0,0.0,0.0,0.0,0.0,0.0,0.0,0.0,0.0,0.0,0.0,0.0,0.0,0.0,0.0,0.0,0.0,0.0,0.0,0.0,0.0,0.0,0.0,0.0,0.0,0.0,0.0,0.0,0.0,0.0,0.0,0.0,0.0,0.0,0.0,0.0,0.0,0.0,0.0,0.0,0.0,0.0,0.0,0.0,0.0,0.0,0.0,0.0,0.0,0.0,0.0,0.0,0.0,0.0,0.0,0.0,0.0,0.0,0.0,0.0,0.0,0.0,0.0,0.0,0.0,0.0,0.0,0.0,0.0,0.0,0.0,0.0,0.0,0.0,0.0,0.0,0.0,0.0,0.0,0.0,0.0,0.0,0.0,0.0,0.0,0.0,0.0,0.0,0.0,0.0,0.0,0.0,0.0,0.0,0.0,0.0,0.0,1.8939,1.8987,1.8987,0.0,1.8987,1.8987,1.8987,1.8987,1.8987,1.8987,0.0,0.0,0.0,0.0,0.0,0.0,0.0,0.0,0.0,0.0,0.0,0.0,0.0,0.0,0.0,0.0,0.0,0.0,0.0,0.0,0.0,0.0,0.0,0.0,0.0,0.0,0.0,0.0,0.0,0.0,0.0,0.0,0.0,0.0,0.0,0.0,0.0,0.0,0.0,0.0,0.0,0.0,0.0,0.0,0.0,0.0,0.0,0.0,0.0,0.0,0.0,0.0,0.0,0.0,0.0,0.0,0.0,0.0,0.0,0.0,0.0,0.0,0.0,0.0,0.0,0.0,0.0,0.0,0.0,0.0,0.0,0.0,0.0,0.0,0.0,0.0,0.0,0.0,0.0,0.0,0.0,0.0,0.0,0.0,0.0,0.0,0.0,0.0,0.0,0.0,0.0,0.0,0.0,0.0,0.0,0.0,0.0,0.0,0.0,0.0,0.0,0.0,1.8987,1.8987,1.8987,1.8987,1.8987,1.8987,1.8987,1.8987,1.8987,0.0,0.0,0.0,0.0,0.0,0.0,0.0,0.0,0.0,0.0,0.0,0.0,0.0,0.0,0.0,0.0,0.0,0.0,0.0,0.0,0.0,0.0,0.0,0.0,0.0,0.0,0.0,0.0,0.0,0.0,0.0,0.0,0.0,0.0,0.0,0.0,0.0,0.0,0.0,0.0,0.0,0.0,0.0,0.0,0.0,0.0,0.0,0.0,0.0,0.0,0.0,0.0,0.0,0.0,0.0,0.0,0.0,0.0,0.0,0.0,0.0,0.0,0.0,0.0,0.0,0.0,0.0,0.0,0.0,0.0,0.0,0.0,0.0,0.0,0.0,0.0,0.0,0.0,0.0,0.0,0.0,0.0,0.0,0.0,0.0,0.0,0.0,0.0,0.0,0.0,0.0,0.0,0.0,0.0,0.0,0.0,0.0,0.0,0.0,0.0,0.0,0.0,0.0,1.8987,1.8987,1.8987,1.8987,1.8987,1.8987,1.8987,1.8987,1.8987,1.8987,0.0,0.0,0.0,0.0,0.0,0.0,0.0,0.0,0.0,0.0,0.0,0.0,0.0,0.0,0.0,0.0,0.0,0.0,0.0,0.0,0.0,0.0,0.0,0.0,0.0,0.0,0.0,0.0,0.0,0.0,0.0,0.0,0.0,0.0,0.0,0.0,0.0,0.0,0.0,0.0,0.0,0.0,0.0,0.0,0.0,0.0,0.0,0.0,0.0,0.0,0.0,0.0,0.0,0.0,0.0,0.0,0.0,0.0,0.0,0.0,0.0,0.0,0.0,0.0,0.0,0.0,0.0,0.0,0.0,0.0,0.0,0.0,0.0,0.0,0.0,0.0,0.0,0.0,0.0,0.0,0.0,0.0,0.0,0.0,0.0,0.0,0.0,0.0,0.0,0.0,0.0,0.0,0.0,0.0,0.0,0.0,0.0,0.0,0.0,0.0,0.0,0.0,1.8987,1.8987,1.8987,1.8987,1.8987,1.8987,1.8987,1.8987,1.8987,1.8987,0.0,0.0,0.0,0.0,0.0,0.0,0.0,0.0,0.0,0.0,0.0,0.0,0.0,0.0,0.0,0.0,0.0,0.0,0.0,0.0,0.0,0.0,0.0,0.0,0.0,0.0,0.0,0.0,0.0,0.0,0.0,0.0,0.0,0.0,0.0,0.0,0.0,0.0,0.0,0.0,0.0,0.0,0.0,0.0,0.0,0.0,0.0,0.0,0.0,0.0,0.0,0.0,0.0,0.0,0.0,0.0,0.0,0.0,0.0,0.0,0.0,0.0,0.0,0.0,0.0,0.0,0.0,0.0,0.0,0.0,0.0,0.0,0.0,0.0,0.0,0.0,0.0,0.0,0.0,0.0,0.0,0.0,0.0,0.0,0.0,0.0,0.0,0.0,0.0,0.0,0.0,0.0,0.0,0.0,0.0,0.0,0.0,0.0,0.0,0.0,0.0,0.0,1.8987,1.8987,1.9011,1.9059,1.9023,1.9011,1.9059,1.9023,1.8987,1.8987,0.0,0.0,0.0,0.0,0.0,0.0,0.0,0.0,0.0,0.0,0.0,0.0,0.0,0.0,0.0,0.0,0.0,0.0,0.0,0.0,0.0,0.0,0.0,0.0,0.0,0.0,0.0,0.0,0.0,0.0,0.0,0.0,0.0,0.0,0.0,0.0,0.0,0.0,0.0,0.0,0.0,0.0,0.0,0.0,0.0,0.0,0.0,0.0,0.0,0.0,0.0,0.0,0.0,0.0,0.0,0.0,0.0,0.0,0.0,0.0,1.541,0.0,0.0,0.0,0.0,0.0,0.0,0.0,0.0,0.0,0.0,0.0,0.0,0.0,0.0,0.0,0.0,0.0,0.0,0.0,0.0,0.0,0.0,0.0,0.0,0.0,0.0,0.0,0.0,0.0,0.0,0.0,0.0,0.0,0.0,0.0,0.0,0.0,0.0,0.0,0.0,0.0,1.8987,1.8987,1.9143,1.9591,1.9266,1.9155,1.9603,1.9227,1.8987,1.8987,1.8987,0.0,0.0,0.0,0.0,0.0,0.0,0.0,0.0,0.0,0.0,0.0,0.0,0.0,0.0,0.0,0.0,0.0,0.0,0.0,0.0,0.0,0.0,0.0,0.0,0.0,0.0,0.0,0.0,0.0,0.0,0.0,0.0,0.0,0.0,0.0,0.0,0.0,0.0,0.0,0.0,0.0,0.0,0.0,0.0,0.0,0.0,0.0,0.0,0.0,0.0,0.0,0.0,0.0,0.0,0.0,0.0,0.0,0.0,0.0,0.0,1.541,0.0,0.0,0.0,0.0,0.0,0.0,0.0,0.0,0.0,0.0,0.0,0.0,0.0,0.0,0.0,0.0,0.0,0.0,0.0,0.0,0.0,0.0,0.0,0.0,0.0,0.0,0.0,0.0,0.0,0.0,0.0,0.0,0.0,0.0,0.0,0.0,0.0,0.0,0.0,0.0,1.9336,1.9372,1.9576,2.0117,1.9937,1.9877,2.0153,1.9684,1.9372,1.9372,1.9131,0.0,0.0,0.0,0.0,0.0,0.0,0.0,0.0,0.0,0.0,0.0,0.0,0.0,0.0,0.0,0.0,0.0,0.0,0.0,0.0,0.0,0.0,0.0,0.0,0.0,0.0,0.0,0.0,0.0,0.0,0.0,0.0,0.0,0.0,0.0,0.0,0.0,0.0,0.0,0.0,0.0,0.0,0.0,0.0,0.0,0.0,0.0,0.0,0.0,0.0,0.0,0.0,0.0,1.6212,1.6377,1.6697,1.6697,1.6697,1.6658,1.5927,1.5644,1.5644,1.5644,0.0,0.0,0.0,0.0,0.0,0.0,0.0,0.0,0.0,0.0,0.0,0.0,0.0,0.0,0.0,0.0,0.0,0.0,0.0,0.0,0.0,0.0,0.0,0.0,1.9158,1.9128,0.0,0.0,0.0,0.0,0.0,0.0,0.0,0.0,0.0,0.0,0.0,0.0,1.9865,1.9953,2.0141,2.0665,2.067,2.0629,2.0742,2.0237,1.9904,1.982,1.9372,1.9083,0.0,0.0,0.0,0.0,0.0,0.0,0.0,0.0,0.0,0.0,0.0,0.0,0.0,0.0,0.0,0.0,0.0,0.0,0.0,0.0,0.0,0.0,0.0,0.0,0.0,0.0,0.0,0.0,0.0,0.0,0.0,0.0,1.541,1.541,0.0,0.0,0.0,0.0,0.0,0.0,0.0,0.0,0.0,0.0,0.0,0.0,0.0,1.6531,1.6531,1.6531,1.656,1.6609,1.6609,1.6648,1.6697,1.6697,1.6697,1.6697,1.658,0.0,1.6531,1.6531,0.0,0.0,0.0,0.0,0.0,0.0,0.0,0.0,0.0,0.0,0.0,0.0,0.0,0.0,0.0,0.0,0.0,0.0,0.0,0.0,0.0,0.0,1.9107,1.9591,1.97,1.9666,0.0,1.9127,1.8907,1.8987,1.8987,0.0,0.0,0.0,0.0,0.0,0.0,0.0,2.0502,2.0502,2.0706,2.1247,2.0887,2.0774,2.126,2.0808,2.0302,1.9832,1.9736,1.9495,1.9011,1.904,0.0,0.0,0.0,0.0,0.0,0.0,0.0,0.0,0.0,0.0,0.0,0.0,0.0,0.0,0.0,0.0,0.0,0.0,0.0,0.0,0.0,0.0,0.0,0.0,0.0,0.0,0.0,0.0,0.0,1.6122,1.6122,1.6122,1.6122,1.6122,0.0,0.0,0.0,0.0,0.0,0.0,0.0,0.0,0.0,1.6697,1.6697,1.6824,1.709,1.71,1.7334,1.7769,1.7769,1.7896,1.8164,1.8164,1.8164,1.8164,1.8164,1.8164,1.8096,1.7096,1.659,1.6436,0.0,0.0,0.0,0.0,1.6122,1.6183,1.6537,1.6628,0.0,1.6949,0.0,0.0,0.0,0.0,0.0,0.0,0.0,0.0,0.0,0.0,1.8782,1.9009,1.9345,1.9501,1.9041,1.913,1.9277,0.0,1.961,1.9901,1.9901,0.0,0.0,0.0,0.0,2.0711,2.1019,2.1055,2.126,2.1789,2.1644,2.1596,2.1825,2.1356,2.0935,2.0706,2.0418,2.0009,1.9483,1.9459,1.9314,0.0,0.0,0.0,0.0,0.0,0.0,0.0,0.0,0.0,0.0,0.0,0.0,0.0,0.0,0.0,0.0,0.0,0.0,0.0,0.0,0.0,0.0,0.0,0.0,0.0,0.0,0.0,0.0,1.6697,1.6697,1.6697,1.6697,1.6697,0.0,0.0,0.0,0.0,0.0,0.0,1.7019,1.7126,1.7233,1.735,1.736,1.7539,1.7871,1.7905,1.8184,1.8763,1.8763,1.8975,1.9287,1.9287,1.9287,1.9287,1.9287,1.9287,1.9189,1.791,1.7223,1.7028,1.7028,1.6892,1.6697,1.6697,1.6697,1.676,1.7222,1.7367,1.7399,1.7554,1.7616,1.7523,1.7065,0.0,0.0,0.0,0.0,1.7647,1.7791,1.8159,1.8516,1.8676,1.9094,1.9309,1.8757,1.9179,1.9569,0.0,1.9819,2.0309,2.0309,0.0,0.0,0.0,0.0,2.1169,2.1548,2.1608,2.1765,2.2149,2.2197,2.2197,2.2197,2.1825,2.1548,2.1416,2.1031,2.0562,2.0037,1.988,1.9627,1.9203,0.0,0.0,0.0,0.0,0.0,0.0,0.0,0.0,0.0,0.0,0.0,0.0,0.0,0.0,0.0,0.0,0.0,0.0,0.0,0.0,0.0,0.0,0.0,0.0,0.0,0.0,0.0,0.0,0.0,1.6697,1.6697,0.0,0.0,0.0,0.0,1.6697,1.7119,1.7529,1.792,1.8286,1.8695,1.915,1.916,1.917,1.9189,1.9189,1.9209,1.9248,1.9248,1.9268,1.9287,1.9287,1.9287,1.9287,1.9287,1.9287,1.9277,1.9199,1.8682,1.7949,1.7949,1.7418,1.6697,1.6697,1.6697,1.6697,1.6728,1.676,1.6855,1.7399,1.7616,1.7575,1.7544,1.7159,0.0,0.0,1.7585,1.7729,1.8312,1.8495,1.8633,1.9151,1.9291,1.9252,1.901,1.9531,1.9757,0.0,1.9086,1.9572,1.9572,0.0,2.1368,2.1368,2.1789,2.2125,2.2149,2.2149,2.2161,2.2197,2.2197,2.2197,2.2197,2.2173,2.1945,2.144,2.138,2.1115,2.0579,2.0073,1.9796,1.9772,1.9266,0.0,0.0,0.0,0.0,0.0,0.0,0.0,0.0,0.0,0.0,0.0,0.0,0.0,0.0,0.0,0.0,0.0,0.0,0.0,0.0,0.0,0.0,0.0,0.0,0.0,0.0,0.0,0.0,1.7896,1.7925,0.0,1.835,1.8379,1.8379,1.8379,1.8525,1.8672,1.8828,1.8975,1.9131,1.9277,1.9287,1.9414,1.9687,2.0008,2.0254,2.0547,2.083,2.0957,2.0957,2.0957,2.081,2.0498,2.0498,2.0381,2.0155,2.0155,1.9609,1.8838,1.8838,1.8643,1.8379,1.8379,1.8379,1.8379,1.8379,1.8379,1.8365,1.8275,1.8254,1.8204,1.7926,1.7714,1.7592,1.7813,1.7869,1.7972,1.8442,1.8546,1.8691,1.917,1.9617,1.9957,1.9952,2.0087,2.0302,2.051,2.0555,2.0688,2.1153,2.1624,2.1909,2.1909,2.2077,2.2197,2.2197,2.2197,2.2197,2.2197,2.2197,2.2197,2.2197,2.2197,2.2113,2.1921,2.1909,2.1668,2.1127,2.0923,2.0658,2.0326,2.0117,1.9865,0.0,0.0,0.0,0.0,0.0,0.0,0.0,0.0,0.0,0.0,0.0,0.0,0.0,0.0,0.0,0.0,0.0,0.0,0.0,0.0,0.0,0.0,0.0,0.0,0.0,0.0,1.8379,1.8809,1.8857,1.8965,1.9258,1.9287,1.9287,1.9287,1.9551,1.9754,1.9754,2.0,2.0166,2.0166,2.0166,2.0303,2.0576,2.0869,2.1162,2.1455,2.1748,2.1885,2.1885,2.1885,2.1728,2.1455,2.1455,2.1289,2.1055,2.1055,2.0713,2.0117,1.9668,1.9414,1.9287,1.9287,1.9287,1.9287,1.9287,1.9251,1.9175,1.8909,1.8786,1.8702,1.849,1.8437,1.8437,1.8437,1.8437,1.8506,1.8779,1.8857,1.8926,1.9219,1.963,1.9981,2.0099,2.0017,2.0221,2.1061,2.1002,2.1073,2.1846,2.1955,2.2019,2.2288,2.232,2.2416,2.2695,2.2758,2.2758,2.2758,2.257,2.2462,2.2462,2.2294,2.2197,2.2197,2.2197,2.2041,2.168,2.15,2.1223,2.0892,2.0694,2.043,2.0057,0.0,0.0,0.0,0.0,0.0,0.0,0.0,0.0,0.0,0.0,0.0,0.0,0.0,0.0,0.0,0.0,0.0,0.0,0.0,0.0,0.0,0.0,0.0,1.8617,1.8617,1.8792,1.9277,1.9326,1.9336,1.9365,1.9365,1.9365,1.9365,2.0175,2.0644,2.0644,2.1416,2.1885,2.1885,2.1885,2.1885,2.1885,2.1894,2.1904,2.1904,2.1924,2.1924,2.1924,2.1924,2.1924,2.1904,2.1904,2.1904,2.1885,2.1885,2.1885,2.1758,2.0459,1.9707,1.9346,1.9336,1.9326,1.9326,1.9326,1.9216,1.908,1.928,1.9207,1.906,1.926,1.9287,1.9287,1.9287,1.9287,1.9287,1.9307,1.9307,1.9307,1.9326,1.9326,1.9363,1.9363,1.9363,1.9535,2.0262,2.0334,2.0563,2.1341,2.1446,2.1666,2.2434,2.2571,0.0,2.3661,2.3773,2.3806,2.3806,2.3348,2.3035,2.3035,2.2534,2.2234,2.2221,2.2209,2.2209,2.2197,2.1704,2.1428,2.1428,2.0911,2.0605,2.0605,0.0,0.0,0.0,0.0,0.0,0.0,0.0,0.0,0.0,0.0,0.0,0.0,0.0,0.0,0.0,0.0,0.0,0.0,0.0,0.0,0.0,0.0,1.9111,1.9111,1.9111,1.9385,2.0165,2.0253,2.0507,2.1103,2.1172,2.1172,2.1172,2.1387,2.1523,2.1523,2.1758,2.1885,2.1885,2.1885,2.1885,2.1885,2.2187,2.2344,2.2344,2.2646,2.275,2.275,2.275,2.2627,2.2344,2.2175,2.2042,2.1885,2.1668,2.1719,2.1816,2.1133,2.0761,2.0654,2.0332,2.0253,2.0253,2.0253,2.0215,2.0128,1.9844,1.9709,1.9613,1.9375,1.9287,1.9287,1.9287,1.9287,1.9355,1.9668,1.9746,1.9824,2.0175,2.0253,2.0396,2.0991,2.0651,2.0651,2.2014,2.1308,2.0703,2.1331,2.1422,2.1492,2.17,2.2229,0.0,2.2888,2.3449,2.3806,2.3806,2.3673,2.3589,2.3589,2.3457,2.3204,2.2787,2.2763,2.2594,2.2209,2.2053,2.1981,2.1981,2.1452,2.1187,0.0,0.0,0.0,0.0,0.0,0.0,0.0,0.0,0.0,0.0,0.0,0.0,0.0,0.0,0.0,0.0,0.0,0.0,0.0,0.0,0.0,0.0,1.9658,1.9951,2.0322,2.0059,2.0184,2.1055,2.1153,2.1318,2.1836,2.1885,2.1885,2.1885,2.2051,2.2148,2.2148,2.2314,2.2412,2.2412,2.2412,2.2412,2.2412,2.2613,2.273,2.274,2.2984,2.3091,2.3091,2.3091,2.2964,2.273,2.2654,2.2508,2.237,2.2158,2.2158,0.0,0.0,0.0,0.0,0.0,2.1153,2.1113,2.1033,2.0877,2.0673,2.0401,2.0188,2.0032,1.9902,1.9862,1.9862,1.9862,1.9862,1.992,2.0127,2.0185,2.0254,2.0546,2.0605,2.0712,2.1203,2.0944,2.0867,2.1794,2.1242,0.0,2.0989,2.1042,2.1188,2.1515,2.1984,2.2377,2.2732,2.3445,2.3941,2.3941,2.4036,2.4085,2.4085,2.3926,0.0,0.0,0.0,2.3107,2.2546,2.2522,0.0,0.0,0.0,2.174,2.1728,0.0,0.0,0.0,2.067,2.043,0.0,0.0,0.0,0.0,0.0,0.0,0.0,0.0,0.0,0.0,0.0,0.0,0.0,0.0,0.0,0.0,2.0723,2.1045,2.1836,2.1279,2.1114,2.1865,2.1953,2.1982,2.2021,2.2031,2.2031,2.2031,2.2373,2.2578,2.2578,0.0,0.0,0.0,0.0,2.3091,2.3091,2.3091,2.3091,2.3091,2.3091,2.3091,2.3091,2.3091,2.3091,2.3091,2.3101,2.3091,2.3091,2.2838,2.275,2.2717,2.2097,2.1882,2.1843,2.1843,2.1885,2.1885,2.1627,0.0,0.0,2.1026,2.0776,2.0527,2.0674,2.0723,2.0683,2.0683,2.0644,2.0605,2.0605,2.0605,2.0605,2.0605,2.0605,2.0605,2.0605,2.0605,2.0605,2.0605,2.0605,2.0605,2.0605,2.0605,2.0828,2.1576,2.1728,2.2096,2.292,2.3647,2.412,2.4228,0.0,0.0,2.4568,2.4206,2.395,2.389,2.383,2.3589,2.3119,2.3095,2.2879,2.2378,2.2306,2.2282,2.2282,2.2221,2.2197,2.2173,2.1235,2.0779,0.0,0.0,0.0,0.0,0.0,0.0,0.0,0.0,0.0,0.0,0.0,0.0,0.0,0.0,0.0,2.0976,2.1406,2.1807,2.2314,2.2246,2.2197,2.2373,2.2393,2.2519,2.2818,2.2847,2.2847,2.2847,2.2925,2.2974,2.2974,2.3052,2.3091,2.3091,2.3091,2.3091,2.3091,2.3091,2.3091,2.3091,0.0,0.0,2.3091,2.3091,2.3091,2.3101,2.2925,2.2969,2.3057,2.2662,2.2485,2.2438,2.1988,2.1715,2.1585,2.1585,2.1709,2.1885,2.1843,2.1785,2.1717,2.1717,2.1658,2.159,2.1631,2.1387,0.0,2.1064,2.084,2.0605,2.0605,2.0605,2.0605,2.0605,2.0605,2.0605,2.0605,2.0605,2.0605,2.0605,2.0605,2.0605,2.0605,2.0605,2.0634,2.0828,2.1385,2.2096,2.292,2.3647,2.4337,2.5004,2.511,2.5155,2.5155,2.5071,2.4831,2.4398,2.3989,2.3758,2.3649,2.3649,2.3601,2.3505,2.3083,2.2867,2.2823,2.2402,2.2197,2.2185,2.1981,2.1885,0.0,0.0,0.0,0.0,0.0,0.0,0.0,0.0,0.0,0.0,0.0,2.0028,0.0,0.0,2.1367,2.1807,2.206,2.2344,2.2721,2.3018,2.3066,2.2852,2.2779,2.2867,2.3071,2.3091,2.3188,2.3447,2.3467,2.3555,2.3725,2.3734,2.3734,2.3734,2.3734,2.3734,2.3734,2.3734,2.3627,2.3467,2.3467,2.3305,2.3091,2.3013,2.3013,2.3101,2.2882,2.2925,2.3057,2.275,2.2441,2.2246,2.2127,2.2049,2.1955,2.1955,2.204,2.2126,2.205,2.2001,2.2039,2.1903,2.1894,2.1885,2.1885,2.1738,2.1562,2.1562,2.1396,2.1222,2.0957,2.0898,2.084,2.0664,2.0605,2.0605,2.0605,2.0605,2.0605,2.0605,2.0605,2.0605,2.0605,2.0605,2.0605,2.0605,2.127,2.1945,2.236,2.3379,2.4264,2.4671,2.5052,2.5312,2.5312,2.5312,2.5204,2.4927,2.4675,2.4422,2.4157,2.4145,2.4025,2.3806,2.3541,2.3408,2.3408,2.3144,2.3011,2.3011,2.3011,2.2702,0.0,0.0,0.0,0.0,0.0,0.0,0.0,0.0,1.958,1.9756,2.038,2.0889,2.0967,2.1523,2.2148,2.2568,2.2705,2.2881,2.3169,2.3643,2.3779,2.3383,2.3344,2.3344,2.3344,2.3344,2.3535,2.3887,2.3906,2.4062,2.4394,2.4414,2.4414,2.4414,2.4414,2.4414,2.4414,2.4414,2.4248,2.3906,2.3906,2.373,2.3344,2.3167,2.3167,2.3246,2.2957,2.2871,2.2969,2.275,2.2451,2.2097,2.2264,2.2353,2.2397,2.2397,2.2432,2.2441,2.222,2.2189,2.2217,2.1992,2.1935,2.2003,2.2045,2.2038,2.197,2.2012,2.1953,2.1807,2.1414,2.1317,2.1269,2.0948,2.0801,2.0732,2.0732,2.0664,2.0605,2.0605,2.0605,2.0605,2.0605,2.0605,2.0605,2.0605,2.1165,2.1614,2.1794,2.2861,2.3708,2.3866,2.46,2.5123,2.5276,2.5312,2.5312,2.5312,2.5312,2.5119,2.4652,2.4675,2.4482,2.4107,2.3998,2.395,2.395,2.3842,2.3806,2.3806,2.3806,2.3348,1.9287,1.9287,1.9287,1.9287,1.9287,1.9482,0.0,0.0,2.0683,2.1435,2.167,2.1846,2.2227,2.2373,2.2578,2.2955,2.3398,2.3662,2.3711,2.4082,2.4326,2.4277,2.4268,2.4268,2.4268,2.4268,2.4297,2.4346,2.4346,2.4365,2.4414,2.4414,2.4414,2.4414,2.4414,2.4414,2.4414,2.4414,2.4394,2.4346,2.4346,2.4316,2.4268,2.4231,2.4084,2.3871,2.3233,2.2773,2.2441,2.2274,2.2141,2.2097,2.2141,2.222,2.2397,2.2397,2.2574,2.2706,2.2441,2.2369,2.2375,2.2322,2.2337,2.2397,2.2615,2.2443,2.2196,2.2399,2.2178,2.1875,2.1826,2.1816,2.1797,2.1748,2.1445,2.1122,2.1122,2.084,2.0605,2.0605,2.0605,2.0605,2.0605,2.0605,2.0605,2.0605,2.0683,2.0972,2.1728,2.1945,2.2322,2.3058,2.3793,2.4528,2.5229,2.5312,2.5312,2.5312,2.5312,2.5288,2.5216,2.5216,2.5192,2.5131,2.4675,2.4434,2.4434,2.3989,2.3806,2.3806,2.3806,2.3746,2.0067,2.0067,2.0088,2.0352,2.042,2.0576,2.1191,2.1378,2.1476,2.1807,2.208,2.2305,2.248,2.2672,2.2974,0.0,2.3672,2.3877,2.4121,2.4531,2.4795,2.4795,2.5019,2.4933,2.4473,2.4414,2.4521,2.4775,2.4795,2.4912,2.5118,2.5138,2.5138,2.5138,2.5138,2.5138,2.5138,2.5138,2.5049,2.4795,2.4795,2.4668,2.4414,2.4285,2.4146,2.4044,2.3714,2.3404,2.3161,2.3089,2.2811,2.2441,2.2576,2.2516,2.2397,2.2397,2.2397,2.2362,2.2274,2.223,2.223,2.223,2.2309,2.2441,2.2706,2.2678,2.2587,2.2794,2.2711,2.2559,2.2314,2.2246,2.2187,2.1943,2.1748,2.1611,2.1611,2.1465,2.1378,2.1378,2.1378,2.1378,2.1378,2.1378,2.1378,2.1378,2.1311,2.1423,2.1766,2.2209,2.2622,2.2947,2.3279,2.361,2.395,2.4348,2.46,2.46,2.504,2.5312,2.5312,2.5312,2.5312,2.5312,2.5083,2.4975,2.4975,2.4771,2.4662,2.4662,2.4662,2.4662,2.0752,2.0879,2.1045,2.1338,2.1375,2.1533,2.1963,2.206,2.209,2.2207,2.2471,2.2685,2.2685,2.2994,2.3418,2.374,2.3984,2.4248,2.4551,2.4971,2.5254,2.5254,2.5537,2.544,2.4844,2.4775,2.4912,2.5225,2.5254,2.54,2.5674,2.5693,2.5693,2.5693,2.5693,2.5693,2.5693,2.5693,2.5528,2.5254,2.5254,2.5088,2.4738,2.4551,2.4389,2.4367,2.418,2.3926,2.3682,2.3598,2.3289,2.287,2.3044,2.2881,2.2558,2.2558,2.2368,2.2097,2.2097,2.2052,2.2008,2.2008,2.2132,2.2353,2.2618,2.2759,2.2838,2.3057,2.3091,2.3023,2.2721,2.2685,2.2607,2.2305,2.2139,2.206,2.206,2.1963,2.1885,2.1885,2.1885,2.1885,2.1885,2.1885,2.1885,2.1885,2.185,2.1849,2.1849,2.2342,2.2792,2.302,2.302,2.308,2.3154,2.3849,2.4233,2.412,2.4862,2.5312,2.5312,2.5312,2.5312,2.5312,2.5312,2.5312,2.5312,2.5312,2.5312,2.5312,2.5312,2.5312,0.0,0.0,2.1846,2.1865,2.1865,2.1973,2.2402,2.249,2.2607,2.2974,2.3062,2.3081,2.3081,2.3477,2.3769,2.3789,2.4482,2.5077,2.5096,2.5439,2.5664,2.5664,2.5684,2.5674,0.0,2.5645,2.5654,2.5664,2.5664,2.5674,2.5693,2.5693,2.5693,2.5693,2.5693,2.5693,2.5693,2.5693,2.5684,2.5664,2.5664,2.5664,2.5645,2.5392,2.5208,2.5049,2.4536,2.407,2.3672,2.3439,2.3299,2.327,2.327,2.314,2.2983,2.2983,2.2603,2.2097,2.2097,2.1919,2.1687,2.1687,2.1874,2.2141,2.2353,2.2574,2.2838,2.3057,2.3091,2.3091,2.3081,2.3081,2.3071,2.3062,2.275,2.249,2.249,2.2168,2.1885,2.1885,2.1885,2.1885,2.1885,2.1885,2.1885,2.1885,2.1906,2.1887,2.1887,2.1928,2.2247,2.299,2.3122,2.3234,2.3563,2.4318,2.4562,2.4143,2.4862,2.5312,2.5312,2.5312,2.5312,2.5312,2.5312,2.5312,2.5312,2.5312,2.5312,2.5312,2.5312,2.5312,0.0,0.0,2.1953,2.2236,2.2305,2.2412,2.2789,2.2886,2.2925,2.3062,2.3091,2.3091,2.3091,2.3496,2.3887,2.416,2.4697,2.5176,2.5469,2.5596,2.5693,2.5693,2.5693,0.0,0.0,0.0,0.0,2.5693,2.5693,2.5693,2.5693,2.5693,2.5693,2.5693,2.5693,2.5693,2.5693,2.5693,2.5693,2.5693,2.5693,2.5693,2.5693,2.5586,2.5557,2.5469,2.5121,2.489,2.4708,2.4264,2.3912,2.3689,2.3489,2.324,2.2973,2.3112,2.2936,2.2557,2.2203,2.2052,2.1963,2.1963,2.2141,2.2353,2.2574,2.2715,2.2838,2.3057,2.3091,2.3091,2.3091,2.3091,2.3091,2.3091,2.2984,2.2886,2.2886,2.2769,2.2715,2.2715,2.2715,2.2715,2.2715,2.2715,2.2715,2.2715,2.2246,2.1885,2.1885,2.1885,2.2009,2.2287,2.2287,2.234,2.2453,2.3727,2.447,2.4315,2.5616,2.6214,2.5841,2.5829,2.5661,2.5312,2.5312,2.5312,2.5312,2.5312,2.5312,2.5312,2.5312,2.5312,0.0,2.2217,2.2402,2.2666,2.2691,2.2769,2.3033,2.3091,2.3091,2.3091,2.3091,2.3091,2.3091,2.3496,2.3926,2.4346,2.4785,2.5225,2.5625,2.5693,2.5693,2.5693,2.5693,2.5693,0.0,0.0,0.0,2.5693,2.5693,2.5693,2.5693,2.5693,2.5693,2.5693,2.5693,2.5693,2.5693,2.5693,2.5693,2.5693,2.5693,2.5693,2.5693,2.5693,2.5693,2.5684,2.5538,2.5391,2.5284,2.4932,2.4585,2.4244,2.3953,2.3607,2.3266,2.3361,2.3174,2.2878,2.263,2.2351,2.2176,2.2266,2.2342,2.2441,2.2706,2.2847,2.2925,2.3047,2.3091,2.3091,2.3091,2.3091,2.3091,2.3091,2.3091,2.3091,2.3091,2.3091,2.3091,2.3091,2.3091,2.3091,2.3091,2.3091,2.3091,2.3091,2.2676,2.2334,2.2334,2.2334,2.2334,2.2334,2.2334,2.2275,2.2129,2.335,2.4076,2.3956,2.5515,2.6266,2.595,2.6209,2.6238,2.5901,2.5853,2.5793,2.5588,2.5588,2.5492,2.5312,2.5312,2.5312,2.2539,2.2852,2.313,2.313,2.313,2.313,2.313,2.311,2.3091,2.3091,2.3091,2.3091,0.0,0.0,2.3926,2.4346,2.4785,2.5225,2.5625,2.5693,2.5693,0.0,0.0,0.0,0.0,0.0,0.0,2.5693,0.0,2.5693,2.5693,2.5693,2.5693,2.5693,2.5693,2.5693,2.5693,2.5693,2.5693,2.5693,2.5693,2.5693,2.5693,2.5693,2.5693,2.5693,2.5693,2.5538,2.5333,2.5294,2.5137,2.4883,2.4627,2.4305,2.3912,2.3623,2.3288,2.3015,2.3251,2.2917,2.2401,2.2639,2.2595,2.2542,2.2773,2.2974,2.313,2.313,2.311,2.3091,2.3091,2.3091,2.3091,2.3091,2.3091,2.3091,2.3091,2.3091,2.3091,2.3091,2.3091,2.3091,2.3091,2.3091,2.3091,2.3091,2.3091,2.3091,2.3091,2.3091,2.3091,2.3091,2.3091,2.2935,2.2578,2.3281,2.3598,2.3216,2.4724,2.5584,2.5561,2.6429,2.6846,2.6822,2.6898,2.6633,2.6142,2.6142,2.5877,2.5396,2.5396,2.5396,2.2847,2.3301,2.3623,2.3623,2.3623,2.3623,2.3623,2.3369,2.3091,2.3091,2.3091,2.3091,2.3091,2.3496,0.0,2.4346,2.4785,0.0,2.5625,2.5693,0.0,2.5693,0.0,2.5693,2.5693,2.5693,0.0,0.0,2.5693,2.5693,2.5693,2.5693,2.5693,2.5693,2.5693,2.5693,2.5693,2.5693,2.5693,2.5693,2.5693,2.5693,2.5693,2.5693,2.5693,2.5693,2.5693,2.5635,2.5586,2.5382,2.5235,2.5137,2.4686,2.4571,2.4585,2.4193,2.403,2.4084,2.3996,2.3573,2.3075,2.3131,2.3362,2.358,2.3671,2.3641,2.3623,2.3623,2.3389,2.3091,2.3091,2.3091,2.3091,2.3091,2.3091,2.3091,2.3091,2.3091,2.3091,2.3091,2.3091,2.3091,2.3091,2.3091,2.3091,2.3091,2.3091,2.3091,2.3091,2.3091,2.3091,2.3091,2.3091,2.3052,2.2945,2.3778,2.4228,2.4167,2.5139,2.5551,2.5147,2.6035,2.6345,2.5923,2.6584,2.6825,2.6681,2.6681,2.6609,2.6477,2.6477,2.6477,2.331,2.3603,2.3838,2.4014,2.3926,2.3789,2.3789,2.3457,2.3091,2.3091,2.3091,2.3091,2.3091,2.334,2.3701,0.0,0.0,0.0,2.5596,2.5693,2.5693,0.0,2.5693,0.0,2.5693,2.5693,2.5693,0.0,2.5693,2.5693,2.5693,2.5693,2.5693,2.5693,2.5693,2.5693,2.5693,2.5693,2.5693,2.5693,2.5693,2.5693,2.5693,2.5693,2.5693,2.5693,0.0,2.5693,2.5693,2.5538,2.5489,2.543,2.503,2.4932,2.5039,2.4646,2.4489,2.448,2.439,2.4054,2.3695,2.3615,2.3608,2.3728,2.3821,2.3808,2.3763,2.3763,2.349,2.3241,2.3241,2.3149,2.3091,2.3091,2.3091,2.3091,2.3091,2.3091,2.3091,2.3091,2.3091,2.3091,2.3091,2.3091,2.3091,2.3091,2.3091,2.3091,2.3091,2.3091,2.3091,2.3091,2.3091,2.3091,2.3091,2.356,2.3897,2.3897,2.4744,2.5083,2.4775,2.5631,2.617,2.6307,2.678,2.7115,2.7246,2.7246,2.7126,2.6898,2.6898,2.6898,2.3691,2.3867,2.4033,2.4336,2.4141,2.3857,2.3799,2.3457,2.3091,2.3091,2.3091,2.3091,2.3091,2.3091,2.3354,2.4199,0.0,2.4707,2.5537,2.5654,2.5693,2.5693,2.5693,2.5693,2.5693,2.5693,2.5693,2.5693,2.5693,2.5693,2.5693,2.5693,2.5693,2.5693,2.5693,2.5693,2.5693,2.5693,2.5693,2.5693,2.5693,2.5693,2.5693,2.5693,2.5693,2.5693,2.5693,2.5693,2.5693,2.5693,2.5693,2.5684,2.5391,2.5333,2.5333,2.503,2.4735,2.4538,2.4529,2.439,2.4146,2.3992,2.3736,2.3494,2.3739,2.3796,2.3805,2.3805,2.3621,2.346,2.3451,2.3361,2.3213,2.3266,2.3266,2.3266,2.3266,2.3218,2.3169,2.311,2.3091,2.3091,2.3091,2.3091,2.3091,2.3091,2.3091,2.3091,2.3091,2.3091,2.3091,2.3091,2.3091,2.3091,2.3091,2.3091,2.3091,2.3091,2.3864,2.4327,2.4327,2.5158,2.6038,2.701,2.7144,2.7382,2.7825,2.7825,2.7546,2.7102,2.7102,2.7102,2.3769,2.4307,2.4822,2.4492,2.4365,2.4219,2.3867,2.3457,0.0,2.3091,2.3091,2.3091,2.3091,2.3091,2.3257,2.3818,2.4189,2.46,2.5107,2.5508,2.5693,0.0,2.5693,2.5693,2.5693,2.5693,0.0,0.0,2.5693,2.5693,2.5693,2.5693,2.5693,2.5693,2.5693,2.5693,2.5693,2.5693,2.5693,2.5693,2.5693,2.5693,2.5693,2.5693,2.5693,2.5693,2.5693,0.0,2.5693,2.5693,2.5693,2.5684,2.5391,2.544,2.5586,2.5088,2.4883,2.4784,2.4578,2.439,2.4192,2.4168,2.4193,2.4324,2.4324,2.4294,2.4221,2.4221,2.3918,2.3689,2.3846,2.3871,2.3915,2.4098,2.4153,2.4153,2.4153,2.3926,2.3574,2.3169,2.3091,2.3091,2.3091,2.3091,2.3091,2.3091,2.3091,2.3091,2.3091,2.3091,2.3091,2.3091,2.3091,2.3091,2.3091,2.3091,2.3091,2.3091,2.3266,2.3343,2.3343,2.4231,2.5115,2.6038,2.6794,2.7597,2.8378,2.8378,2.833,2.8234,2.8234,2.8234,2.3994,2.4414,2.4727,2.4746,2.458,2.4307,2.3887,0.0,0.0,2.3091,2.3091,2.3091,2.3091,2.3091,2.3237,2.3721,2.4141,2.457,2.501,2.5449,2.5693,2.5693,2.5693,2.5693,2.5693,2.5693,2.5693,2.5693,2.5693,2.5693,2.5693,2.5693,2.5693,2.5693,2.5693,2.5693,2.5693,2.5693,2.5693,2.5693,2.5693,2.5693,2.5693,2.5693,2.5693,2.5693,2.5693,2.5693,2.5693,2.5693,2.5693,2.5693,2.5538,2.5586,2.5693,2.543,2.5137,2.4883,2.4932,2.4587,2.4202,2.4341,2.4341,2.4341,2.4341,2.431,2.4259,2.4259,2.4009,2.3833,2.3909,2.3974,2.4034,2.4173,2.4322,2.4414,2.4414,2.4258,2.4053,2.3793,2.3799,2.3799,2.3799,2.3578,2.3477,2.3477,2.3247,2.3091,2.3091,2.3091,2.3091,2.3091,2.3091,2.3091,2.3091,2.3091,2.3091,2.3091,2.3091,2.3091,2.3091,2.3983,2.4914,2.5777,2.6712,2.7632,2.851,2.851,2.851,2.851,2.851,2.851,2.4102,2.4346,2.4473,2.4727,2.4531,2.417,2.375,2.3344,0.0,2.3091,2.3091,2.3091,2.3091,2.3091,2.3208,0.0,2.4082,2.4531,2.4883,2.5391,2.5693,0.0,2.5693,0.0,2.5693,2.5693,0.0,2.5693,2.5693,2.5693,2.5693,2.5693,2.5693,2.5693,2.5693,2.5693,2.5693,2.5693,2.5693,2.5693,2.5693,2.5693,2.5693,2.5693,2.5693,2.5693,2.5693,2.5693,2.5693,2.5693,2.5693,2.5693,2.5693,2.5693,2.5693,2.5693,2.5391,2.503,2.5235,2.4892,2.435,2.4489,2.4341,2.4202,2.4202,2.4202,2.4202,2.4202,2.407,2.3966,2.4015,2.405,2.4116,2.4266,2.4454,2.4575,2.458,2.456,2.4531,2.4434,2.4414,2.4414,2.4414,2.4141,2.3926,2.3926,2.3633,2.3364,2.3364,2.3286,2.3237,2.3237,2.3149,2.3091,2.3091,2.3091,2.3091,2.3091,2.3091,2.3091,2.3091,2.3983,2.4914,2.5777,2.6712,2.7632,2.851,2.851,2.851,2.851,2.851,2.851,2.3828,2.4121,2.4336,2.3994,2.3877,2.373,2.3257,0.0,2.3091,2.3091,2.3091,2.3091,2.3091,2.3091,2.311,2.3149,0.0,2.4434,2.4473,2.5157,2.5693,2.5693,0.0,0.0,2.5693,2.5693,2.5693,2.5693,2.5693,2.5693,2.5693,2.5693,2.5693,2.5693,2.5693,2.5693,2.5693,2.5693,2.5693,2.5693,2.5693,2.5693,2.5693,2.5693,2.5693,2.5693,2.5693,2.5693,0.0,2.5693,2.5693,2.5693,2.5693,2.5693,2.5693,2.5693,2.5489,2.5284,2.5284,2.5088,2.4784,2.4578,2.4341,2.4202,2.4202,2.4202,2.4202,2.4202,2.4174,2.4196,2.4384,2.4445,2.4564,2.5071,2.5217,2.516,2.504,2.5057,2.4893,2.4492,2.4414,2.4414,2.4414,2.4385,2.4355,2.4355,2.4326,2.4297,2.4297,2.3965,2.373,2.373,2.3335,2.3091,2.3091,2.3091,2.3091,2.3091,2.3091,2.3091,2.3091,2.3983,2.4914,2.5777,2.6712,2.7632,2.851,2.851,2.851,2.851,2.851,2.851,2.3721,2.3906,2.4004,2.3828,2.3789,2.3682,2.3198,0.0,2.3091,2.3091,2.3091,2.3091,2.3091,2.3091,2.3091,0.0,0.0,0.0,2.4414,2.5128,2.5693,2.5693,2.5693,0.0,0.0,0.0,2.5693,2.5693,2.5693,2.5693,2.5693,2.5693,2.5693,2.5693,2.5693,2.5693,2.5693,2.5693,2.5693,2.5693,2.5693,2.5693,2.5693,2.5693,2.5693,2.5693,2.5693,2.5693,0.0,2.5693,2.5693,2.5693,2.5693,2.5693,2.5693,2.5693,2.5538,2.5333,2.5489,2.5235,2.4883,2.4981,2.4833,2.4597,2.4301,2.4202,2.4202,2.4202,2.4202,2.4202,2.4291,2.439,2.4578,2.4981,2.5186,2.5294,2.5208,2.5372,2.542,2.5196,2.5157,2.5157,2.5157,2.499,2.4805,2.4805,2.458,2.4414,2.4414,2.4268,2.417,2.417,2.35,2.3091,2.3091,2.3091,2.3091,2.3091,2.3091,2.3091,2.3091,2.3983,2.4659,2.4999,2.5913,2.6794,2.7725,2.7725,2.7978,2.851,2.851,2.851,2.3477,2.3594,2.3594,2.3594,2.3594,2.3516,0.0,0.0,2.3091,2.3091,2.3091,2.3091,2.3091,2.3091,2.3091,0.0,0.0,2.4414,2.4414,2.5128,2.5693,2.5693,0.0,2.5693,0.0,2.5693,2.5693,2.5693,2.5693,2.5693,2.5693,2.5693,2.5693,2.5693,2.5693,2.5693,2.5693,2.5693,2.5693,2.5693,2.5693,2.5693,2.5693,2.5693,2.5693,2.5693,2.5693,2.5693,0.0,2.5693,2.5693,2.5693,2.5693,2.5693,2.5693,2.5693,2.5586,2.544,2.5635,2.543,2.5137,2.5235,2.5186,2.4932,2.4548,2.435,2.4301,2.4202,2.4202,2.4202,2.4202,2.4301,2.4489,2.4735,2.4932,2.5088,2.5284,2.544,2.5586,2.5684,2.5693,2.5693,2.5693,2.5478,2.5264,2.5264,2.5,2.4758,2.4758,2.4687,2.4609,2.4609,2.3955,2.3471,2.3471,2.3364,2.3286,2.3286,2.3169,2.3091,2.3091,2.3983,2.4498,2.4498,2.5368,2.6121,2.6805,2.7051,2.751,2.8139,2.8379,2.851,2.2984,2.3101,2.3101,2.3101,2.3101,2.3101,0.0,2.3091,2.3091,2.3091,2.3091,2.3091,2.3091,2.3091,2.3091,2.3091,0.0,0.0,2.4414,2.5128,2.5693,0.0,0.0,2.5693,2.5693,2.5693,2.5693,2.5693,2.5693,0.0,2.5693,2.5693,2.5693,2.5693,2.5693,2.5693,2.5693,2.5693,2.5693,2.5693,2.5693,2.5693,2.5693,2.5693,2.5693,2.5693,2.5693,2.5693,0.0,2.5693,2.5693,2.5693,2.5693,2.5693,2.5693,2.5693,2.5693,2.5693,2.5693,2.5693,2.5645,2.5391,2.5284,2.5235,2.4981,2.4686,2.444,2.4251,2.4202,2.4202,2.4202,2.4202,2.4242,2.444,2.4538,2.4627,2.5186,2.5284,2.5382,2.5645,2.5693,2.5693,2.5693,2.5684,2.5684,2.5684,2.5674,2.5674,2.5674,2.5332,2.5106,2.5106,2.4668,2.4404,2.4404,2.4023,2.3779,2.3779,2.3379,2.3091,2.3091,2.3983,2.4498,2.4498,2.5368,2.5777,2.583,2.6753,2.7185,2.7226,2.8099,2.851,2.2676,2.2877,2.3091,2.3091,2.3091,2.3091,2.3091,2.3091,2.3091,2.3091,2.3091,2.3091,2.3091,2.3091,2.3091,2.3091,0.0,0.0,0.0,0.0,0.0,2.5693,2.5693,2.5693,0.0,0.0,2.5693,2.5693,2.5693,2.5693,2.5693,2.5693,2.5693,2.5693,2.5693,2.5693,2.5693,2.5693,2.5693,2.5693,2.5693,2.5693,2.5693,2.5693,2.5693,2.5693,2.5693,2.5693,2.5693,2.5693,2.5693,2.5684,2.5489,2.5538,2.5684,2.5489,2.5538,2.5693,2.5693,2.5693,2.5693,2.5586,2.5586,2.5538,2.5235,2.4883,2.444,2.4251,2.4202,2.4202,2.4202,2.4202,2.4202,2.4301,2.439,2.4538,2.4735,2.5039,2.5342,2.543,2.5586,2.5693,2.5693,2.5693,2.5693,2.5693,2.5693,2.5693,2.5693,2.5567,2.5527,2.5527,2.54,2.5031,2.4473,2.4297,2.4092,2.3809,2.3662,2.3447,2.311,2.3396,2.3517,2.3517,2.381,2.4274,2.4904,2.521,2.6008,2.7226,2.747,2.7926,0.0,2.2662,2.2896,2.3052,2.3091,0.0,0.0,2.3091,2.3091,2.3091,2.3091,2.3091,2.3091,2.3091,2.3091,2.3091,2.3812,0.0,0.0,0.0,0.0,2.5693,0.0,0.0,0.0,2.5693,2.5693,2.5693,2.5693,2.5693,2.5693,2.5693,2.5693,2.5693,2.5693,2.5693,2.5693,2.5693,2.5693,2.5693,2.5693,2.5693,2.5693,2.5693,2.5693,2.5693,2.5693,2.5693,0.0,2.5693,2.5693,2.5684,2.5538,2.5538,2.5684,2.5489,2.5489,2.5538,2.5635,2.5635,2.5586,2.5693,2.5693,2.5586,2.5137,2.4784,2.4489,2.4341,2.4251,2.4202,2.4202,2.4202,2.4202,2.4202,2.4301,2.444,2.4587,2.4833,2.5088,2.5382,2.5489,2.5586,2.5684,2.5693,2.5693,2.5693,2.5693,2.5693,2.5693,2.5693,2.5693,2.5693,2.5693,2.5469,2.4961,2.4756,2.4551,2.4287,2.3965,2.3662,2.3398,2.3179,2.3091,2.3091,2.3091,2.3396,2.3983,2.4327,2.5421,2.7185,2.7185,2.7684,0.0,2.2461,2.2607,2.2955,2.3071,2.3091,2.3091,0.0,0.0,2.3091,2.3091,2.3091,2.3091,2.3091,2.311,2.314,2.3832,0.0,0.0,2.5148,0.0,0.0,2.5693,0.0,2.5693,2.5693,2.5693,2.5693,2.5693,2.5693,2.5693,2.5693,2.5693,2.5693,2.5693,2.5693,2.5693,2.5693,2.5693,2.5693,2.5693,2.5693,2.5693,2.5693,2.5693,0.0,2.5693,2.5693,2.5693,2.5693,2.5693,2.5693,2.5684,2.5684,2.5693,2.5684,2.5538,2.5333,2.5586,2.5489,2.5333,2.5586,2.5635,2.5489,2.4784,2.4529,2.4538,2.4529,2.439,2.4251,2.4251,2.4202,2.4202,2.4202,2.4202,2.4301,2.4735,2.4686,2.4735,2.5489,2.544,2.5382,2.5586,2.5684,2.5684,2.5684,2.5693,2.5693,2.5693,2.5693,2.5693,2.5693,2.5693,2.5693,2.5693,2.5361,2.5145,2.5116,2.4316,2.3857,2.3789,2.3398,2.312,2.3091,2.3091,2.3091,2.3091,2.4026,2.5379,2.701,2.7144,2.7632,2.1387,0.0,2.2539,2.2637,2.2857,2.3091,0.0,0.0,0.0,0.0,0.0,0.0,0.0,2.3091,2.3198,2.3584,0.0,2.4531,2.4863,2.5391,0.0,2.5693,2.5693,2.5693,2.5693,2.5693,2.5693,2.5693,2.5693,2.5693,2.5693,2.5693,2.5693,2.5693,2.5693,2.5693,2.5693,2.5693,2.5693,2.5693,2.5693,2.5693,2.5693,2.5693,2.5693,2.5693,2.5693,2.5693,2.5693,2.5693,2.5693,2.5684,2.5489,2.5538,2.5684,2.5489,2.5489,2.5586,2.544,2.5333,2.5284,2.5137,2.5088,2.503,2.4883,2.4941,2.5039,2.4637,2.4587,2.4686,2.4489,2.444,2.439,2.4251,2.4202,2.4251,2.435,2.444,2.4578,2.4735,2.5088,2.5235,2.5137,2.544,2.5635,2.544,2.5586,2.5693,2.5693,2.5693,2.5693,2.5693,2.5693,2.5693,2.5693,2.5596,2.5439,2.5135,2.492,2.4519,2.3818,2.3691,2.3486,2.3101,2.3091,2.3091,2.3091,2.4026,2.4701,2.5168,2.6547,2.7307,2.0859,2.1416,2.2021,2.2412,2.2643,2.2857,2.3052,0.0,0.0,0.0,0.0,0.0,0.0,2.3257,2.3516,2.375,2.4307,0.0,0.0,0.0,2.5693,2.5693,2.5693,2.5693,0.0,2.5693,2.5693,2.5693,2.5693,2.5693,2.5693,2.5693,2.5693,2.5693,2.5693,2.5693,2.5693,2.5693,2.5693,2.5693,2.5693,2.5693,2.5693,2.5693,2.5693,2.5693,2.5693,2.5693,2.5693,2.5693,2.5693,2.5693,2.5538,2.5586,2.5684,2.5538,2.544,2.5342,2.5294,2.5235,2.5079,2.4784,2.4784,2.4883,2.4646,2.4843,2.503,2.4637,2.4587,2.4686,2.444,2.444,2.443,2.4251,2.4202,2.4251,2.4341,2.4341,2.444,2.4637,2.4833,2.4932,2.4883,2.5137,2.5342,2.5284,2.544,2.5538,2.5684,2.5693,2.5693,2.5693,2.5693,2.5693,2.5693,2.5693,2.5635,2.5391,2.5176,2.491,2.4441,2.3994,2.3584,2.3101,2.3091,2.3091,2.3091,2.3604,2.4284,2.5115,2.5704,2.6629,2.0605,2.084,2.1338,2.2197,2.2461,2.2627,2.3003,0.0,0.0,0.0,0.0,0.0,0.0,2.3496,0.0,0.0,0.0,0.0,2.5635,2.5693,2.5693,2.5693,2.5693,0.0,2.5693,2.5693,2.5693,2.5693,2.5693,2.5693,2.5693,2.5693,2.5693,2.5693,2.5693,2.5693,2.5693,2.5693,2.5693,2.5693,2.5693,2.5693,2.5693,2.5693,2.5693,2.5693,0.0,0.0,2.5693,2.5693,2.5693,2.5693,2.5693,2.5693,2.5693,2.5693,2.543,2.5039,2.5235,2.5088,2.4784,2.4578,2.4637,2.4735,2.4301,2.4498,2.4735,2.4538,2.4538,2.4538,2.4291,2.439,2.443,2.4251,2.4202,2.4251,2.444,2.4341,2.4301,2.4745,2.4637,2.4578,2.4735,2.4833,2.4981,2.5137,2.5235,2.5333,2.5538,2.5586,2.5635,2.5635,2.5684,2.5693,2.5693,2.5693,2.5693,2.5693,2.5381,2.5137,2.5116,2.4307,2.3682,2.3198,2.3198,2.3159,2.3091,2.3222,2.4102,2.5579,2.5126,2.6121,2.0605,2.0654,2.0918,2.1768,2.2246,2.2627,2.3003,0.0,0.0,0.0,0.0,0.0,0.0,2.3496,2.3906,0.0,0.0,2.5615,0.0,0.0,2.5693,2.5693,0.0,2.5693,2.5693,2.5693,2.5693,2.5693,2.5693,2.5693,2.5693,2.5693,2.5693,2.5693,2.5693,2.5693,2.5693,2.5693,2.5693,2.5693,2.5693,2.5693,2.5693,2.5693,2.5693,2.5693,0.0,2.5693,2.5693,2.5693,2.5693,2.5693,2.5693,2.5693,2.5693,2.5693,2.5645,2.5538,2.5333,2.4981,2.4529,2.4529,2.439,2.4301,2.4202,2.4251,2.4301,2.4251,2.4548,2.4784,2.4538,2.4489,2.443,2.4251,2.4202,2.4202,2.4251,2.4202,2.4202,2.4301,2.439,2.444,2.435,2.4646,2.4833,2.4627,2.4833,2.4981,2.503,2.5235,2.5333,2.5333,2.5538,2.5693,2.5693,2.5693,2.5693,2.5693,2.5625,2.5469,2.5135,2.459,2.4121,2.3701,2.3691,2.3506,2.3091,2.3907,2.4413,2.4744,2.6133,2.701,2.0605,2.0742,2.1084,2.1728,2.2031,2.2344,0.0,0.0,0.0,0.0,0.0,0.0,0.0,0.0,2.4619,2.5059,0.0,2.5693,2.5693,2.5693,2.5693,0.0,0.0,2.5693,2.5693,2.5693,2.5693,2.5693,2.5693,2.5693,2.5693,2.5693,2.5693,2.5693,2.5693,2.5693,2.5693,2.5693,2.5693,2.5693,2.5693,2.5693,2.5693,2.5693,2.5693,2.5693,0.0,2.5693,2.5693,2.5693,2.5693,2.5693,2.5693,2.5693,2.5684,2.5538,2.5489,2.544,2.5186,2.4833,2.448,2.448,2.4341,2.4202,2.4202,2.4202,2.4202,2.4202,2.444,2.4637,2.439,2.444,2.443,2.4251,2.4202,2.4202,2.4202,2.4202,2.4202,2.4202,2.4251,2.4301,2.4202,2.4399,2.4538,2.448,2.4587,2.4735,2.4883,2.5137,2.5284,2.5284,2.5538,2.5693,2.5693,2.5693,2.5693,2.5693,2.5693,2.5537,2.5135,2.4873,2.457,2.4141,2.4121,2.3916,2.3486,2.3919,2.427,2.4498,2.5081,2.5883,2.0605,2.0889,2.1298,2.1777,0.0,0.0,0.0,0.0,0.0,0.0,0.0,0.0,0.0,2.4607,0.0,2.5615,2.5693,2.5693,2.5693,2.5693,2.5693,2.5693,2.5693,2.5693,2.5693,2.5693,2.5693,2.5693,2.5693,2.5693,2.5693,2.5693,2.5693,2.5693,2.5693,2.5693,2.5693,2.5693,2.5693,2.5693,2.5693,2.5693,2.5693,2.5693,2.5693,2.5693,2.5693,2.5693,2.5693,2.5693,2.5693,2.5693,2.5693,2.5693,2.5684,2.5489,2.5382,2.5333,2.5137,2.4932,2.4686,2.4686,2.4489,2.4251,2.4251,2.4251,2.4202,2.4202,2.4301,2.439,2.4251,2.4291,2.439,2.4251,2.4202,2.4202,2.4202,2.4202,2.4202,2.4202,2.4202,2.4202,2.4202,2.4202,2.4251,2.439,2.444,2.4538,2.4784,2.5039,2.5235,2.5284,2.5538,2.5693,2.5693,2.5693,2.5693,2.5693,2.5693,2.5586,2.5244,2.5225,2.5019,2.458,2.457,2.4355,2.3935,2.3935,2.4242,2.4776,2.444,2.5115,2.0605,2.0889,2.1298,2.1777,2.2178,0.0,2.2994,2.3091,0.0,2.3662,0.0,0.0,0.0,2.4756,2.5215,2.5615,2.5693,2.5693,2.5693,0.0,2.5693,2.5693,2.5693,2.5693,2.5693,2.5693,2.5693,2.5693,2.5693,2.5693,2.5693,2.5693,2.5693,2.5693,2.5693,2.5693,2.5693,2.5693,2.5693,2.5693,2.5693,2.5693,2.5693,2.5693,2.5693,2.5693,2.5693,2.5693,2.5693,2.5693,2.5693,2.5693,2.5693,2.5693,2.5693,2.5684,2.5684,2.5693,2.5645,2.5489,2.5235,2.5235,2.4883,2.448,2.448,2.4341,2.4202,2.4202,2.4202,2.4202,2.4202,2.4202,2.4202,2.4202,2.4202,2.4202,2.4202,2.4202,2.4202,2.4202,2.4202,2.4202,2.4202,2.4202,2.4202,2.4202,2.4202,2.4301,2.448,2.4784,2.503,2.5284,2.5538,2.5693,2.5693,2.5693,2.5693,2.5693,2.5693,2.5674,2.5645,2.5635,2.5478,2.5077,2.5067,2.4805,2.4375,2.4375,2.4804,2.5706,2.5647,2.6151,2.0908,2.1299,2.1738,2.2168,2.2793,0.0,0.0,2.3545,2.3662,2.4092,2.4394,0.0,0.0,0.0,2.5537,2.5664,2.5693,2.5693,2.5693,2.5693,2.5693,2.5693,2.5693,2.5693,2.5693,2.5693,2.5693,2.5693,2.5693,2.5693,2.5693,2.5693,2.5693,2.5693,2.5693,2.5693,2.5693,2.5693,2.5693,2.5693,2.5693,2.5693,2.5693,2.5693,2.5693,2.5693,2.5693,2.5693,2.5693,2.5693,2.5693,2.5693,2.5693,2.5693,2.5693,2.5693,2.5693,2.5693,2.5693,2.5538,2.5284,2.5284,2.4932,2.448,2.448,2.4341,2.4202,2.4202,2.4202,2.4202,2.4202,2.4202,2.4202,2.4202,2.4202,2.4202,2.4202,2.4202,2.4202,2.4202,2.4202,2.4202,2.4202,2.4202,2.4202,2.4202,2.4202,2.4251,2.4489,2.4735,2.4981,2.5284,2.5538,2.5693,2.5693,2.5693,2.5693,2.5693,2.5693,2.5693,2.5693,2.5693,2.5615,2.5488,2.5488,2.5264,2.4824,2.4824,2.4864,2.4965,2.5235,2.5551,2.1422,2.1746,2.1992,2.2412,0.0,0.0,2.3955,2.3984,2.4111,2.4531,2.4971,2.5371,2.5635,0.0,0.0,0.0,2.5693,2.5693,2.5693,2.5693,2.5693,2.5693,2.5693,2.5693,2.5693,2.5693,2.5693,2.5693,2.5693,2.5693,2.5693,2.5693,2.5693,2.5693,2.5693,2.5693,2.5693,2.5693,2.5693,2.5693,2.5693,2.5693,2.5693,2.5693,2.5693,2.5693,2.5693,2.5693,2.5693,2.5693,2.5693,2.5693,2.5693,2.5693,2.5693,2.5693,2.5693,2.5693,2.5693,2.5586,2.544,2.544,2.5088,2.4637,2.4735,2.4489,2.4202,2.4301,2.4251,2.4202,2.4202,2.4202,2.4202,2.4202,2.4202,2.4202,2.4202,2.4202,2.4202,2.4202,2.4202,2.4202,2.4202,2.4202,2.4202,2.4202,2.4202,2.4301,2.4587,2.4784,2.5039,2.5391,2.5586,2.5693,2.5693,2.5693,2.5693,2.5693,2.5693,2.5693,2.5693,2.5693,2.5693,2.5693,2.5693,2.5538,2.5283,2.5283,2.5127,2.4844,2.5137,2.5283,2.2082,2.2141,2.2024,2.2412,0.0,0.0,2.4316,2.4414,2.4551,2.5028,2.543,2.5693,2.5693,2.5693,0.0,2.5693,2.5693,2.5693,2.5693,2.5693,2.5693,2.5693,2.5693,2.5693,2.5693,2.5693,2.5693,2.5693,2.5693,2.5693,2.5693,2.5693,2.5693,2.5693,2.5693,2.5693,2.5693,2.5693,2.5693,2.5693,2.5693,2.5693,2.5693,2.5693,2.5693,2.5693,2.5693,2.5693,2.5693,2.5693,2.5693,2.5693,2.5693,2.5693,2.5693,2.5693,2.5693,2.5693,2.5693,2.5693,2.5693,2.5693,2.5333,2.4932,2.5235,2.4794,2.4251,2.444,2.4341,2.4202,2.4202,2.4202,2.4202,2.4202,2.4202,2.4202,2.4202,2.4202,2.4202,2.4202,2.4202,2.4202,2.4202,2.4202,2.4202,2.4202,2.4202,2.435,2.4833,2.4883,2.5137,2.5635,2.5693,2.5693,2.5693,2.5693,2.5693,2.5693,2.5693,2.5693,2.5693,2.5693,2.5693,2.5693,2.5693,2.5693,2.5693,2.5693,2.5693,2.5693,2.5693,2.5693,2.246,2.2848,2.2807,2.2893,0.0,0.0,0.0,2.5149,0.0,0.0,2.5644,2.5693,2.5693,2.5693,0.0,2.5693,2.5693,2.5693,2.5693,2.5693,2.5693,2.5693,2.5693,2.5693,2.5693,2.5693,2.5693,2.5693,2.5693,2.5693,2.5693,2.5693,2.5693,2.5693,2.5693,2.5693,2.5693,2.5693,2.5693,2.5693,2.5693,2.5693,2.5693,2.5693,2.5693,2.5693,2.5693,2.5693,2.5693,2.5693,2.5693,2.5693,2.5693,2.5693,2.5693,2.5693,2.5693,2.5693,2.5693,2.5693,2.5693,2.5693,2.544,2.5137,2.503,2.4735,2.439,2.4301,2.4251,2.4202,2.4202,2.4202,2.4202,2.4202,2.4202,2.4202,2.4202,2.4202,2.4202,2.4202,2.4202,2.4202,2.4202,2.4202,2.4202,2.4202,2.4341,2.4587,2.5137,2.5342,2.5538,2.5684,2.5693,2.5693,2.5693,2.5693,2.5693,2.5693,2.5693,2.5693,2.5693,2.5693,2.5693,2.5693,2.5693,2.5693,2.5693,2.5693,2.5693,2.5693,2.5693,2.5693,2.3649,2.3905,0.0,2.3854,2.5173,2.6388,2.6426,0.0,0.0,0.0,2.5693,2.5693,2.5693,2.5693,0.0,2.5693,2.5693,2.5693,2.5693,2.5693,2.5693,2.5693,2.5693,2.5693,2.5693,2.5693,2.5693,2.5693,2.5693,2.5693,2.5693,2.5693,2.5693,2.5693,2.5693,2.5693,2.5693,2.5693,2.5693,2.5693,2.5693,2.5693,2.5693,2.5693,2.5693,2.5693,2.5693,2.5693,2.5693,2.5693,2.5693,2.5693,2.5693,2.5693,2.5693,2.5693,2.5693,2.5693,2.5693,2.5693,2.5693,2.5693,2.5538,2.5284,2.5235,2.4883,2.4489,2.4489,2.435,2.4202,2.4202,2.4202,2.4202,2.4202,2.4202,2.4202,2.4202,2.4202,2.4202,2.4202,2.4202,2.4251,2.4301,2.4242,2.4251,2.4301,2.4489,2.4833,2.5235,2.5538,2.5693,2.5693,2.5693,2.5693,2.5693,2.5693,2.5693,2.5693,2.5693,2.5693,2.5693,2.5693,2.5693,2.5693,2.5693,2.5693,2.5693,2.5693,2.5693,2.5693,2.5693,2.5693,2.5138,2.5122,2.4683,2.5132,2.632,0.0,2.7358,2.7284,2.6914,2.5917,0.0,2.5693,2.5693,2.5693,2.5693,2.5693,2.5693,2.5693,2.5693,2.5693,2.5693,2.5693,2.5693,2.5693,2.5693,2.5693,2.5693,2.5693,2.5693,2.5693,2.5693,2.5693,2.5693,2.5693,2.5693,2.5693,2.5693,2.5693,2.5693,2.5693,2.5693,2.5693,2.5693,2.5693,2.5693,2.5693,2.5693,2.5693,2.5693,2.5693,2.5693,2.5693,2.5693,2.5693,2.5693,2.5693,2.5693,2.5693,2.5693,2.5693,2.5693,2.5693,2.5538,2.5382,2.5586,2.5137,2.4637,2.4833,2.4587,2.4251,2.4251,2.4202,2.4202,2.4202,2.4202,2.4202,2.4202,2.4202,2.4202,2.4202,2.4202,2.4251,2.444,2.4341,2.4301,2.4538,2.4784,2.503,2.5284,2.5538,2.5693,2.5693,2.5693,2.5693,2.5693,2.5693,2.5693,2.5693,2.5693,2.5693,2.5693,2.5693,2.5693,2.5693,2.5693,2.5693,2.5693,2.5693,2.5693,2.5693,2.5693,2.5693,2.5229,2.58,0.0,2.6224,2.7096,2.8016,2.8318,2.7793,2.6914,2.5917,2.5693,2.5693,2.5693,2.5693,2.5693,2.5693,2.5693,2.5693,2.5693,2.5693,2.5693,2.5693,2.5693,2.5693,2.5693,2.5693,2.5693,2.5693,2.5693,2.5693,2.5693,2.5693,2.5693,2.5693,2.5693,2.5693,2.5693,2.5693,2.5693,2.5693,2.5693,2.5693,2.5693,2.5693,2.5693,2.5693,2.5693,2.5693,2.5693,2.5693,2.5693,2.5693,2.5693,2.5693,2.5693,2.5693,2.5693,2.5693,2.5693,2.5693,2.5693,2.5693,2.5635,2.5586,2.543,2.5284,2.5088,2.4932,2.4686,2.444,2.444,2.4341,2.4202,2.4202,2.4202,2.4202,2.4202,2.4202,2.4202,2.4202,2.4202,2.4202,2.4251,2.4341,2.4587,2.5088,2.5186,2.5333,2.5586,2.5635,2.5693,2.5693,2.5693,2.5693,2.5693,2.5693,2.5693,2.5693,2.5693,2.5693,2.5693,2.5693,2.5693,2.5693,2.5693,2.5693,2.5693,2.5693,2.5693,2.5693,2.5693,2.5693,2.5893,0.0,0.0,2.8034,0.0,2.8824,2.9306,2.9004,2.8355,2.7342,2.638,2.5693,2.5693,2.5693,2.5693,2.5693,2.5693,2.5693,2.5693,2.5693,2.5693,2.5693,2.5693,2.5693,2.5693,2.5693,2.5693,2.5693,2.5693,2.5693,2.5693,2.5693,2.5693,2.5693,2.5693,2.5693,2.5693,2.5693,2.5693,2.5693,2.5693,2.5693,2.5693,2.5693,2.5693,2.5693,2.5693,2.5693,2.5693,2.5693,2.5693,2.5693,2.5693,2.5693,2.5693,2.5693,2.5693,2.5693,2.5693,2.5693,2.5693,2.5693,2.5693,2.5684,2.5538,2.5391,2.5284,2.5137,2.4784,2.448,2.448,2.4341,2.4202,2.4202,2.4202,2.4202,2.4202,2.4202,2.4202,2.4202,2.4202,2.4251,2.435,2.4538,2.4784,2.5088,2.5235,2.5391,2.5693,2.5693,2.5693,2.5693,2.5693,2.5693,2.5693,2.5693,2.5693,2.5693,2.5693,2.5693,2.5693,2.5693,2.5693,2.5693,2.5693,2.5693,2.5693,2.5693,2.5693,2.5693,2.5693,2.5693,2.6621,0.0,2.775,2.9629,2.9762,0.0,3.01,3.0079,2.9704,2.8866,2.7258,2.5965,2.5965,2.583,2.5693,2.5693,2.5693,2.5693,2.5693,2.5693,2.5693,2.5693,2.5693,2.5693,2.5693,2.5693,2.5693,2.5693,2.5693,2.5693,2.5693,2.5693,2.5693,2.5693,2.5693,2.5693,2.5693,2.5693,2.5693,2.5693,2.5693,2.5693,2.5693,2.5693,2.5693,2.5693,2.5693,2.5693,2.5693,2.5693,2.5693,2.5693,2.5693,2.5693,2.5693,2.5693,2.5693,2.5693,2.5693,2.5693,2.5693,2.5693,2.5693,2.5693,2.5693,2.5538,2.5391,2.5391,2.4981,2.4587,2.4587,2.439,2.4202,2.4202,2.4202,2.4202,2.4202,2.4202,2.4202,2.4202,2.4202,2.4251,2.4489,2.4735,2.4932,2.4981,2.5186,2.544,2.5684,2.5693,2.5693,2.5693,2.5693,2.5693,2.5693,2.5693,2.5693,2.5693,2.5693,2.5693,2.5693,2.5693,2.5693,2.5693,2.5693,2.5693,2.5693,2.5693,2.5693,2.5693,2.5693,2.5693,2.6729,0.0,2.916,0.0,2.9762,2.955,0.0,0.0,2.8866,0.0,2.7793,2.701,2.701,2.6284,2.5693,2.5693,2.5693,2.5693,2.5693,2.5693,2.5693,2.5693,2.5693,2.5693,2.5693,2.5693,2.5693,2.5693,2.5693,2.5693,2.5693,2.5693,2.5693,2.5693,2.5693,2.5693,2.5693,2.5693,2.5693,2.5693,2.5693,2.5693,2.5693,2.5693,2.5693,2.5693,2.5693,2.5693,2.5693,2.5693,2.5693,2.5693,2.5693,2.5693,2.5693,2.5693,2.5693,2.5693,2.5693,2.5693,2.5693,2.5693,2.5693,2.5693,2.5693,2.5684,2.5645,2.5645,2.5235,2.4833,2.4833,2.4538,2.4202,2.4202,2.4202,2.4202,2.4202,2.4202,2.4202,2.4202,2.4202,2.4251,2.4489,2.4735,2.4981,2.5235,2.5489,2.5635,2.5693,2.5693,2.5693,2.5693,2.5693,2.5693,2.5693,2.5693,2.5693,2.5693,2.5693,2.5693,2.5693,2.5693,2.5693,2.5693,2.5693,2.5693,2.5693,2.5693,2.5693,2.5693,2.5693,2.5693,2.6669,2.7873,2.9051,0.0,2.9945,3.0013,3.087,3.0678,3.0396,3.0396,2.9555,2.8541,2.7416,2.637,2.5693,2.5693,2.5693,2.5693,2.5693,2.5693,2.5693,2.5693,2.5693,2.5693,2.5693,2.5693,2.5693,2.5693,2.5693,2.5693,2.5693,2.5693,2.5693,2.5693,2.5693,2.5693,2.5693,2.5693,2.5693,2.5693,2.5693,2.5693,2.5693,2.5693,2.5693,2.5693,2.5693,2.5693,2.5693,2.5693,2.5693,2.5693,2.5693,2.5693,2.5693,2.5693,2.5693,2.5693,2.5693,2.5693,2.5693,2.5693,2.5693,2.5693,2.5693,2.5693,2.5693,2.5693,2.544,2.5088,2.4932,2.4745,2.4538,2.439,2.439,2.439,2.439,2.4301,2.4202,2.4202,2.4202,2.4251,2.4341,2.4538,2.4784,2.5039,2.5284,2.5538,2.5684,2.5693,2.5693,2.5693,2.5693,2.5693,2.5693,2.5693,2.5693,2.5693,2.5693,2.5693,2.5693,2.5693,2.5693,2.5693,2.5693,2.5693,2.5693,2.5693,2.5693,2.5693,2.5693,2.5693,0.0,0.0,2.8727,2.9653,2.9989,3.0284,0.0,0.0,3.1617,0.0,3.0722,2.9658,2.7887,2.6733,2.6004,2.5732,2.5693,2.5693,2.5693,2.5693,2.5693,2.5693,2.5693,2.5693,2.5693,2.5693,2.5693,2.5693,2.5693,2.5693,2.5693,2.5693,2.5693,2.5693,2.5693,2.5693,2.5693,2.5693,2.5693,2.5693,2.5693,2.5693,2.5693,2.5693,2.5693,2.5693,2.5693,2.5693,2.5693,2.5693,2.5693,2.5693,2.5693,2.5693,2.5693,2.5693,2.5693,2.5693,2.5693,2.5693,2.5693,2.5693,2.5693,2.5693,2.5693,2.5693,2.5693,2.5693,2.5489,2.5235,2.503,2.4932,2.4833,2.4637,2.4587,2.4587,2.444,2.4301,2.4202,2.4251,2.4301,2.4301,2.435,2.4538,2.4784,2.4981,2.5235,2.5489,2.5684,2.5693,2.5693,2.5693,2.5693,2.5693,2.5693,2.5693,2.5693,2.5693,2.5693,2.5693,2.5693,2.5693,2.5693,2.5693,2.5693,2.5693,2.5693,2.5693,2.5693,2.5693,2.5693,2.5693,0.0,2.7666,0.0,2.9208,2.9713,3.0006,0.0,0.0,3.1427,3.0453,3.0215,2.9886,2.8819,2.7793,2.6829,2.5868,2.5693,2.5693,2.5693,2.5693,2.5693,2.5693,2.5693,2.5693,2.5693,2.5693,2.5693,2.5693,2.5693,2.5693,2.5693,2.5693,2.5693,2.5693,2.5693,2.5693,2.5693,2.5693,2.5693,2.5693,2.5693,2.5693,2.5693,2.5693,2.5693,2.5693,2.5693,2.5693,2.5693,2.5693,2.5693,2.5693,2.5693,2.5693,2.5693,2.5693,2.5693,2.5693,2.5693,2.5693,2.5693,2.5693,2.5693,2.5693,2.5693,2.5693,2.5693,2.5693,2.5489,2.5284,2.5284,2.5079,2.4883,2.4883,2.4883,2.4735,2.4301,2.4202,2.4251,2.444,2.448,2.4587,2.4833,2.5088,2.5235,2.5284,2.5489,2.5684,2.5693,2.5693,2.5693,2.5693,2.5693,2.5693,2.5693,2.5693,2.5693,2.5693,2.5693,2.5693,2.5693,2.5693,2.5693,2.5693,2.5693,2.5693,2.5693,2.5693,2.5693,2.5693,2.5693,2.5693,0.0,0.0,0.0,2.92,2.9689,3.0133,3.0304,3.1057,3.1617,3.1238,3.1149,3.0678,2.9004,2.7887,2.6867,2.5868,2.5693,2.5693,2.5693,2.5693,2.5693,2.5693,2.5693,2.5693,2.5693,2.5693,2.5693,2.5693,2.5693,2.5693,2.5693,2.5693,2.5693,2.5693,2.5693,2.5693,2.5693,2.5693,2.5693,2.5693,2.5693,2.5693,2.5693,2.5693,2.5693,2.5693,2.5693,2.5693,2.5693,2.5693,2.5693,2.5693,2.5693,2.5693,2.5693,2.5693,2.5693,2.5693,2.5693,2.5693,2.5693,2.5693,2.5693,2.5693,2.5693,2.5693,2.5693,2.5693,2.5635,2.5538,2.5333,2.5333,2.5382,2.5186,2.5137,2.5088,2.4735,2.4637,2.4637,2.4529,2.4637,2.4735,2.4686,2.4883,2.5088,2.5284,2.5382,2.5489,2.5684,2.5693,2.5693,2.5693,2.5693,2.5693,2.5693,2.5693,2.5693,2.5693,2.5693,2.5693,2.5693,2.5693,2.5693,2.5693,2.5693,2.5693,2.5693,2.5693,2.5693,2.5693,2.5693,2.5693,2.75,0.0,0.0,0.0,0.0,2.9965,3.0494,3.1067,3.1488,3.1669,3.1705,3.1193,2.951,2.868,2.7662,2.5965,2.5693,2.5693,2.5693,2.5693,2.5693,2.5693,2.5693,2.5693,2.5693,2.5693,2.5693,2.5693,2.5693,0.0,2.5693,2.5693,2.5693,2.5693,2.5693,2.5693,2.5693,2.5693,2.5693,2.5693,2.5693,2.5693,2.5693,2.5693,2.5693,2.5693,2.5693,2.5693,2.5693,2.5693,2.5693,2.5693,2.5693,2.5693,2.5693,2.5693,2.5693,2.5693,2.5693,2.5693,2.5693,2.5693,2.5693,2.5693,2.5693,2.5693,2.5693,2.5693,2.5693,2.5723,2.5663,2.5907,2.6083,2.574,2.5653,2.5565,2.5215,2.5039,2.4883,2.4784,2.4932,2.499,2.4932,2.503,2.5235,2.5391,2.543,2.5489,2.5684,2.5693,2.5693,2.5693,2.5693,2.5693,2.5693,2.5693,2.5693,2.5693,2.5693,2.5693,2.5693,2.5693,2.5693,2.5693,2.5693,2.5693,2.5693,2.5693,2.5693,2.5693,2.5693,2.5693,0.0,0.0,0.0,0.0,0.0,0.0,2.9965,0.0,3.1067,3.1597,3.1705,3.1383,3.0407,3.0215,2.92,2.6245,2.5732,2.5732,2.5693,2.5693,2.5693,2.5693,2.5693,2.5693,2.5693,2.5693,2.5693,2.5693,2.5693,2.5693,2.5693,2.5693,2.5693,2.5693,2.5693,2.5693,2.5693,2.5693,2.5693,2.5693,2.5693,2.5693,2.5693,2.5693,2.5693,2.5693,2.5693,2.5693,2.5693,2.5693,2.5693,2.5693,2.5693,2.5693,2.5693,2.5693,2.5693,2.5693,2.5693,2.5693,2.5693,2.5693,2.5693,2.5693,2.5693,2.5693,2.5693,2.5693,2.5703,2.581,2.6299,2.6709,2.6914,2.6504,2.6406,2.6289,2.582,2.5313,2.5,2.5235,2.5294,2.5382,2.5635,2.5684,2.5693,2.5693,2.5693,2.5693,2.5693,2.5693,2.5693,2.5693,2.5693,2.5693,2.5693,2.5693,2.5693,2.5693,2.5693,2.5693,2.5693,2.5693,2.5693,2.5693,2.5693,2.5693,2.5693,2.5693,2.5693,2.5693,2.5693,2.5693,2.8315,0.0,0.0,0.0,0.0,0.0,0.0,0.0,3.1067,3.1597,3.1705,3.1383,3.0407,3.0215,2.9475,2.7152,2.6781,2.6552,2.5781,2.5693,2.5693,2.5693,2.5693,2.5693,2.5693,2.5693,2.5693,0.0,2.5693,2.5693,2.5693,2.5693,2.5693,2.5693,2.5693,2.5693,2.5693,2.5693,2.5693,2.5693,2.5693,2.5693,2.5693,2.5693,2.5693,2.5693,2.5693,2.5693,2.5693,2.5693,2.5693,2.5693,2.5693,2.5693,2.5693,2.5693,2.5693,2.5693,2.5693,2.5693,2.5693,2.5693,2.5693,2.5693,2.5693,2.5693,2.5693,2.5693,2.5967,2.6309,2.6728,2.6934,2.6982,2.6865,2.6846,2.6807,2.6689,2.6316,2.5866,2.54,2.544,2.5538,2.543,2.5586,2.5693,2.5693,2.5693,2.5693,2.5693,2.5693,2.5693,2.5693,2.5693,2.5693,2.5693,2.5693,2.5693,2.5693,2.5693,2.5693,2.5693,2.5693,2.5693,2.5693,2.5693,2.5693,2.5693,2.5693,2.5693,2.5693,2.5693,2.5693,0.0,0.0,0.0,0.0,0.0,0.0,3.0084,3.0465,3.0888,3.1548,3.1705,3.1516,3.0913,3.0824,3.0306,2.8727,2.8448,2.7804,2.5965,2.5693,2.5693,2.5693,2.5693,2.5693,2.5693,2.5693,2.5693,2.5693,2.5693,2.5693,2.5693,2.5693,2.5693,2.5693,2.5693,2.5693,2.5693,2.5693,2.5693,2.5693,2.5693,2.5693,2.5693,2.5693,2.5693,2.5693,2.5693,2.5693,2.5693,2.5693,2.5693,2.5693,2.5693,2.5693,2.5693,2.5693,2.5693,2.5693,2.5693,2.5693,2.5693,2.5693,2.5693,2.5693,2.5693,2.5693,2.5723,2.5957,2.6445,2.6982,2.7226,2.7422,2.75,2.7324,2.7285,2.7236,2.7051,2.6826,2.6473,2.5887,2.5713,2.5635,2.5489,2.5586,2.5693,2.5693,2.5693,2.5693,2.5693,2.5693,2.5693,2.5693,2.5693,2.5693,2.5693,2.5693,2.5693,2.5693,2.5693,2.5693,2.5693,2.5693,2.5693,2.5693,2.5693,2.5693,2.5693,2.5693,2.5693,2.5693,2.5693,2.5693,0.0,0.0,0.0,0.0,0.0,0.0,3.0299,3.0476,3.0725,3.1544,3.1705,3.1705,3.1705,3.1705,3.1383,3.0351,3.0125,2.9061,2.6245,2.5878,2.583,2.5684,2.5693,2.5693,2.5693,2.5693,2.5693,2.5693,2.5693,2.5693,2.5693,2.5693,2.5693,2.5693,2.5693,2.5693,2.5693,2.5693,2.5693,2.5693,2.5693,2.5693,2.5693,2.5693,2.5693,2.5693,2.5693,2.5693,2.5693,2.5693,2.5693,2.5693,2.5693,2.5693,2.5693,2.5693,2.5693,2.5693,2.5693,2.5693,2.5693,2.5693,2.5693,2.5693,2.5693,2.5723,2.5859,2.6396,2.708,2.7728,2.7777,2.8018,2.8193,2.7822,2.7787,2.7627,2.7246,2.7119,2.6973,2.6602,2.6143,2.5762,2.5762,2.5713,2.5693,2.5693,2.5693,2.5693,2.5693,2.5693,2.5693,2.5693,2.5693,2.5693,2.5693,2.5693,2.5693,2.5693,2.5693,2.5693,2.5693,2.5693,2.5693,2.5693,2.5693,2.5693,2.5693,2.5693,2.5693,2.5693,2.5693,2.5693,0.0,0.0,0.0,0.0,0.0,0.0,3.0937,3.1041,3.1192,3.1616,3.1705,3.1705,3.1705,3.1705,3.1383,3.0351,2.951,2.8495,2.7105,2.6914,2.66,2.5781,2.5693,2.5693,2.5693,2.5693,2.5693,2.5693,2.5693,2.5693,2.5693,2.5693,2.5693,2.5693,2.5693,2.5693,2.5693,2.5693,2.5693,2.5693,2.5693,2.5693,2.5693,2.5693,2.5693,2.5693,2.5693,2.5693,2.5693,2.5693,2.5693,2.5693,2.5693,2.5693,2.5693,2.5693,2.5693,2.5693,2.5693,2.5693,2.5693,2.5693,2.5693,2.5693,2.5693,2.5977,2.6426,2.7197,2.7591,2.7744,2.8086,2.8232,2.8271,2.8193,2.8174,2.8144,2.8066,2.7773,2.7562,2.7483,2.6797,2.626,2.626,2.5967,2.5693,2.5693,2.5693,2.5693,2.5693,2.5693,2.5693,2.5693,2.5693,2.5693,2.5693,2.5693,2.5693,2.5693,2.5693,2.5693,2.5693,2.5693,2.5693,2.5693,2.5693,2.5693,2.5693,2.5693,2.5693,2.5693,2.5693,2.5693,0.0,0.0,0.0,3.11,0.0,0.0,0.0,3.1369,3.14,3.1641,3.1705,3.1705,3.1705,3.1705,3.1516,3.1015,3.0113,2.928,2.8773,2.7379,2.6284,2.5781,2.5693,2.5693,2.5693,2.5693,2.5693,2.5693,2.5527,2.5508,2.5674,2.5693,2.5693,2.5693,2.5693,2.5693,2.5693,2.5693,2.5693,2.5693,2.5693,2.5693,2.5693,2.5693,2.5693,2.5693,2.5693,2.5693,2.5693,2.5693,2.5693,2.5693,2.5693,2.5693,2.5693,2.5693,2.5693,2.5693,2.5693,2.5693,2.5693,2.5693,2.5693,2.5732,2.5996,2.6514,2.7119,2.7601,2.7812,2.8027,2.8232,2.8291,2.8291,2.8291,2.8291,2.8291,2.8291,2.8125,2.7978,2.7978,2.7461,2.6885,2.6465,2.6201,2.5986,2.5723,2.5693,2.5693,2.5693,2.5693,2.5693,2.5693,2.5693,2.5693,2.5693,2.5693,2.5693,2.5693,2.5693,2.5693,2.5693,2.5693,2.5693,2.5693,2.5693,2.5693,2.5693,2.5693,2.5693,2.5693,2.5693,2.5693,0.0,0.0,0.0,0.0,0.0,3.1743,0.0,0.0,0.0,3.1797,0.0,0.0,0.0,0.0,0.0,0.0,0.0,0.0,0.0,2.7738,0.0,2.6004,2.583,2.5693,2.5693,2.5693,2.5654,2.5567,2.5352,2.5322,2.5596,2.5645,2.5693,2.5693,2.5693,2.5693,2.5693,2.5693,2.5693,2.5693,2.5693,2.5693,2.5693,2.5693,2.5693,2.5693,2.5693,2.5693,2.5693,2.5693,2.5693,2.5693,2.5693,2.5693,2.5693,2.5693,2.5693,2.5693,2.5693,2.5693,2.5693,2.5693,2.5742,2.5967,2.6475,2.7119,2.7738,2.7816,2.8027,2.8291,2.8291,2.8291,2.8291,2.8291,2.8291,2.8291,2.8291,2.8291,2.8291,2.8291,2.8018,2.7591,2.6768,2.6572,2.6357,2.5879,2.581,2.5781,2.5703,2.5693,2.5693,2.5693,2.5693,2.5693,2.5693,2.5693,2.5693,2.5693,2.5693,2.5693,2.5693,2.5693,2.5693,2.5693,2.5693,2.5693,2.5693,2.5693,2.5693,2.5693,2.5693,2.5693,0.0,0.0,0.0,0.0,3.2923,0.0,3.2611,0.0,3.2519,3.2332,0.0,0.0,0.0,0.0,0.0,0.0,0.0,0.0,2.8271,2.8243,2.8028,2.7142,2.6235,2.5693,2.5693,2.5693,2.5566,2.5176,2.5469,2.5508,2.5166,2.5518,2.5693,2.5693,2.5693,2.5693,2.5693,2.5693,2.5693,2.5693,2.5693,2.5693,2.5693,2.5693,2.5693,2.5693,2.5693,2.5693,2.5693,2.5693,2.5693,2.5693,2.5693,2.5693,2.5693,2.5693,2.5693,2.5693,2.5693,2.5693,2.5693,2.5693,2.5996,2.6465,2.7275,2.764,2.7744,2.8115,2.8252,2.8291,2.8291,2.8291,2.8291,2.8291,2.8291,2.8291,2.8291,2.8291,2.8291,2.8291,2.8252,2.8066,2.765,2.7197,2.6797,2.6377,2.6318,2.6172,2.5732,2.5693,2.5693,2.5693,2.5693,2.5693,2.5693,2.5693,2.5693,2.5693,2.5693,2.5693,2.5693,2.5693,2.5693,2.5693,2.5693,2.5693,2.5693,2.5693,2.5693,2.5693,2.5693,2.5693,0.0,0.0,0.0,0.0,0.0,0.0,3.2754,0.0,3.2636,0.0,0.0,0.0,0.0,0.0,0.0,0.0,3.049,0.0,0.0,0.0,2.7652,0.0,0.0,0.0,2.5781,2.5508,2.5273,2.5135,2.5244,2.5273,2.5125,2.5488,2.5693,2.5693,2.5693,2.5693,2.5693,2.5693,2.5693,2.5693,2.5693,2.5693,2.5693,2.5693,2.5693,2.5693,2.5693,2.5693,2.5693,2.5693,2.5693,2.5693,2.5693,2.5693,2.5693,2.5693,2.5693,2.5693,2.5693,2.5693,2.5732,2.6035,2.6406,2.6865,2.7532,2.7832,2.8066,2.8242,2.8291,2.8291,2.8291,2.8291,2.8291,2.8291,2.8291,2.8291,2.8291,2.8291,2.8291,2.8291,2.8291,2.8232,2.8057,2.7676,2.7246,2.6816,2.6543,2.6328,2.6143,2.5889,2.5693,2.5693,2.5693,2.5693,2.5693,2.5693,2.5693,2.5693,2.5693,2.5693,2.5693,2.5693,2.5693,2.5693,2.5693,2.5693,2.5693,2.5693,2.5693,2.5693,2.5693,2.5693,3.3124,0.0,0.0,0.0,0.0,0.0,0.0,0.0,0.0,0.0,0.0,0.0,0.0,0.0,0.0,0.0,0.0,3.0772,0.0,2.9534,0.0,0.0,0.0,0.0,0.0,2.5439,2.5205,2.5125,2.5176,2.5195,2.5125,2.5488,2.5693,2.5693,2.5693,2.5693,2.5693,2.5693,2.5693,2.5693,2.5693,2.5693,2.5693,2.5693,2.5693,2.5693,2.5693,2.5693,2.5693,2.5693,2.5693,2.5693,2.5693,2.5693,2.5693,2.5693,2.5693,2.5693,2.5693,2.5762,2.5986,2.6416,2.6846,2.7275,2.7705,2.8057,2.8291,2.8291,2.8291,2.8291,2.8291,2.8291,2.8291,2.8291,2.8291,2.8291,2.8291,2.8291,2.8291,2.8291,2.8291,2.8291,2.8291,2.8047,2.7695,2.7256,2.6934,2.6699,2.6572,2.6182,2.5869,2.5869,2.5762,2.5693,2.5693,2.5693,2.5693,2.5693,2.5693,2.5693,2.5693,2.5693,2.5693,2.5693,2.5693,2.5693,2.5693,2.5693,2.5693,2.5693,2.5693,2.5693,0.0,0.0,0.0,3.3124,0.0,0.0,0.0,0.0,3.3081,0.0,0.0,0.0,0.0,0.0,0.0,0.0,0.0,0.0,0.0,0.0,0.0,0.0,0.0,0.0,0.0,2.5674,2.5537,2.5145,2.5469,2.5527,2.5135,2.5488,2.5693,2.5693,2.5693,2.5693,2.5693,2.5693,2.5693,2.5693,2.5693,2.5693,2.5693,2.5693,2.5693,2.5693,2.5693,2.5693,2.5693,2.5693,2.5693,2.5693,2.5693,2.5693,2.5693,2.5693,2.5693,2.5693,2.5693,2.6016,2.6435,2.6855,2.7285,2.7777,2.8144,2.8281,2.8291,2.8291,2.8291,2.8291,2.8291,2.8291,2.8291,2.8291,2.8291,2.8291,2.8291,2.8291,2.8291,2.8291,2.8291,2.8291,2.8291,2.8281,2.8125,2.7767,2.7689,2.7471,2.7051,2.6631,2.6367,2.6367,2.5986,2.5693,2.5693,2.5693,2.5693,2.5693,2.5693,2.5693,2.5693,2.5693,2.5693,2.5693,2.5693,2.5693,2.5693,2.5693,2.5693,2.5693,2.5693,2.5693,0.0,0.0,3.3124,3.3124,0.0,0.0,0.0,0.0,0.0,0.0,0.0,0.0,0.0,0.0,0.0,0.0,0.0,0.0,0.0,0.0,0.0,0.0,0.0,0.0,0.0,0.0,2.5557,2.5145,2.5488,2.5537,2.5135,2.5488,2.5693,2.5693,2.5693,2.5693,2.5693,2.5693,2.5693,2.5693,2.5693,2.5693,2.5693,2.5693,2.5693,2.5693,2.5693,2.5693,2.5693,2.5693,2.5693,2.5693,2.5693,2.5693,2.5693,2.5693,2.5693,2.5732,2.6074,2.6269,2.6504,2.7217,2.7549,2.7796,2.8164,2.8291,2.8291,2.8291,2.8291,2.8291,2.8291,2.8291,2.8291,2.8291,2.8291,2.8291,2.8291,2.8291,2.8291,2.8291,2.8291,2.8291,2.8291,2.8291,2.8242,2.8105,2.7894,2.7669,2.7461,2.707,2.6807,2.6807,2.667,2.6582,2.6582,2.6582,2.6465,2.6182,2.6172,2.6035,2.5703,2.5693,2.583,2.6162,2.6172,2.6309,2.6582,2.6582,2.6582,2.6582,2.6582,2.623,3.3124,3.3124,0.0,3.3124,3.3124,0.0,3.3124,0.0,3.3124,0.0,0.0,0.0,0.0,0.0,0.0,0.0,0.0,0.0,0.0,3.0958,0.0,0.0,0.0,0.0,0.0,2.5917,2.5567,2.5332,2.5528,2.5605,0.0,2.5586,2.5693,2.5693,2.5693,2.5693,2.5693,2.5693,2.5693,2.5693,2.5693,2.5693,2.5693,2.5693,2.5693,2.5693,2.5693,2.5693,2.5693,2.5693,2.5693,2.5693,2.5693,2.5693,2.5693,2.5693,2.5693,2.5752,2.624,2.6484,2.6728,2.7441,2.7826,2.7939,2.8213,2.8291,2.8262,2.8115,2.8174,2.8262,2.8105,2.8174,2.8291,2.8291,2.8291,2.8291,2.8291,2.8291,2.8291,2.8291,2.8291,2.8291,2.8291,2.8291,2.8291,2.8291,2.8066,2.7891,2.7891,2.751,2.7246,2.7246,2.7109,2.7012,2.7012,2.7012,2.6904,2.6631,2.6611,2.6484,2.6152,2.6142,2.6328,2.6602,2.6611,2.6748,2.7012,2.7012,2.7012,2.7012,2.7012,2.6719]}]]